GFSCGP_925_temp_000.txt.gz
Temp
23 20 20 22 23 23 23 21 21 22 22 21 21 19 20 22 19 18 17 17 18 18 18 19 20 20 20 20 21 20 20 20 19 18 18 17 17 17 17 16 16 15 16 15
20 21 23 23 22 22 21 21 20 20 21 21 20 20 19 20 20 18 18 17 18 18 17 18 20 20 21 21 21 20 20 20 19 18 18 18 18 17 17 17 16 16 15 15
21 23 24 22 21 21 21 21 20 20 19 20 21 20 21 22 21 20 20 18 19 18 18 18 19 20 21 21 21 21 21 20 20 19 18 18 17 16 16 16 16 16 16 15
23 23 23 21 22 21 20 21 21 19 19 19 20 18 21 21 21 21 19 18 19 19 19 20 20 19 20 22 21 21 21 20 19 19 18 18 17 16 17 17 17 16 16 15
22 23 21 21 21 21 20 20 19 20 18 19 19 18 20 21 22 21 19 17 18 18 18 20 20 20 21 20 21 20 20 20 19 19 18 17 17 17 17 17 16 16 16 15
22 23 21 22 21 22 20 20 18 18 17 16 19 19 19 20 21 19 18 19 18 18 18 18 20 19 19 19 19 19 19 18 18 18 18 17 17 17 16 16 16 15 15 14
19 21 21 22 20 19 18 16 13 14 13 15 18 18 19 20 20 19 19 18 18 18 17 17 19 16 17 18 17 17 17 17 17 17 17 17 17 16 15 15 14 13 12 11
17 17 19 21 21 20 19 17 12 15 13 14 17 19 19 20 21 19 18 17 18 18 16 17 14 15 16 16 16 15 16 15 16 16 16 16 16 15 15 14 12 10 10 9
15 17 19 20 20 20 19 16 18 15 8 11 14 18 20 19 19 19 19 19 17 14 13 13 16 15 14 14 14 14 14 14 14 14 15 14 15 14 14 12 10 9 7 6
18 16 18 18 19 20 20 19 15 12 12 14 15 16 17 19 19 18 17 17 14 14 14 14 14 14 15 15 15 14 14 13 12 13 13 13 12 12 12 10 9 7 6 6
17 17 16 17 18 18 16 15 16 17 13 13 13 14 17 18 18 18 17 15 15 14 13 12 13 14 14 14 14 13 12 11 12 12 12 11 10 10 9 8 7 7 6 7
17 13 12 16 17 18 18 17 15 11 14 11 11 16 19 17 19 15 15 16 15 15 13 11 13 13 13 12 12 12 11 11 11 11 11 10 9 8 8 7 6 6 6 6
17 12 11 15 16 15 16 17 16 14 10 12 9 12 18 18 16 16 14 14 13 13 12 11 11 12 12 12 12 11 10 10 10 10 10 8 8 7 7 6 6 6 6 6
15 14 13 12 14 14 14 16 16 14 8 13 14 15 16 17 15 14 13 12 12 12 11 11 10 11 11 11 11 10 9 9 8 9 8 7 6 6 6 5 5 5 5 5
14 13 14 13 14 15 15 15 15 14 13 11 13 14 15 13 13 13 13 13 12 12 11 10 10 9 10 10 10 9 8 8 7 8 7 6 5 5 5 4 4 3 5 5
13 11 12 13 14 13 13 14 13 13 13 13 13 14 13 12 12 12 12 12 11 10 11 11 10 10 10 10 9 8 7 6 6 6 5 5 4 4 4 2 3 4 4 4
13 8 8 13 10 10 12 12 13 14 14 13 11 12 12 11 11 11 11 11 11 9 10 10 9 9 9 8 8 7 6 5 5 4 3 3 3 2 3 3 4 4 3 3
8 7 7 9 10 12 14 14 14 14 13 14 13 12 11 11 11 11 11 11 9 10 10 9 9 8 8 8 7 6 6 5 5 4 4 4 4 3 3 3 3 3 3 2
11 8 9 9 11 12 13 14 15 14 13 12 11 12 11 10 10 10 11 11 10 10 9 8 8 7 7 7 6 6 6 5 4 4 4 3 3 3 3 3 2 2 1 1
8 6 7 9 10 12 12 14 15 15 11 12 12 11 10 9 10 11 10 9 10 9 8 7 7 7 6 6 6 5 4 4 3 3 3 3 3 2 2 2 1 0 0 -0
6 7 7 4 7 8 11 13 14 10 12 12 11 11 10 10 10 10 9 9 9 7 6 6 6 6 6 6 5 3 3 3 3 3 2 2 2 1 1 0 -0 -0 -1 -2
10 8 9 7 9 10 13 13 11 11 10 11 11 10 9 9 8 8 9 8 7 5 5 5 5 5 5 5 5 3 3 3 2 2 1 1 0 -0 -0 -1 -1 -2 -3 -4
11 10 9 9 9 11 12 13 11 11 12 10 10 10 9 8 8 8 7 6 5 4 4 4 4 5 5 5 5 3 2 2 1 1 0 -1 -1 -1 -2 -2 -2 -3 -4 -4
11 12 9 10 13 12 12 13 13 11 10 9 9 8 8 7 7 7 6 5 4 4 3 4 4 5 5 4 3 3 2 1 1 -0 -1 -2 -2 -2 -2 -3 -3 -4 -4 -5
11 10 10 10 11 12 12 12 11 11 10 9 8 8 7 8 8 6 5 5 4 4 3 3 2 1 3 3 3 2 2 1 1 -1 -1 -2 -3 -3 -3 -4 -4 -4 -5 -5
10 12 10 11 12 11 12 10 10 9 7 6 6 7 8 8 6 6 5 5 5 4 3 3 3 3 4 3 2 2 2 1 0 -0 -1 -2 -3 -3 -4 -4 -4 -5 -5 -6

GFSCGP_925_temp_006.txt.gz
Temp
18 18 19 20 20 21 21 20 19 19 20 19 18 16 16 15 15 15 15 15 15 16 15 16 17 19 19 19 20 20 20 20 20 19 19 19 19 19 18 18 18 17 17 17
19 20 21 19 19 20 21 20 19 18 18 19 18 18 18 17 16 15 14 14 16 16 16 16 18 19 19 20 20 20 20 19 19 18 17 17 17 17 17 18 18 17 17 17
19 21 20 20 18 18 19 20 20 19 17 18 17 19 17 19 18 16 15 16 17 16 16 17 17 19 19 20 19 19 18 18 17 16 16 16 16 16 16 17 17 17 17 15
20 20 20 19 20 19 19 20 19 17 17 18 17 18 18 16 19 16 17 16 18 17 16 16 17 17 18 18 18 17 16 16 16 15 15 14 14 13 15 14 14 14 15 14
20 20 19 19 20 19 18 17 17 18 17 17 16 16 18 17 19 18 18 17 16 15 15 17 17 16 15 16 16 16 16 15 15 15 15 14 13 13 13 14 13 14 14 14
18 19 19 20 20 19 18 17 16 15 15 15 17 16 16 17 18 18 18 18 16 17 16 15 14 14 14 15 15 16 16 15 15 14 14 13 12 12 12 13 12 13 13 13
17 18 18 19 18 18 16 14 13 14 12 14 16 16 16 18 18 18 18 17 16 13 12 12 11 12 14 14 15 14 14 13 13 12 12 12 12 11 11 11 11 11 11 11
15 16 18 18 19 18 17 15 11 15 11 12 14 17 17 19 16 16 16 14 12 11 11 11 12 12 13 13 13 13 12 12 12 12 12 11 10 10 10 11 11 10 10 8
13 16 17 18 17 18 18 14 15 11 6 9 13 15 17 16 15 16 13 12 12 11 11 11 12 13 13 14 14 13 12 12 12 11 10 10 10 10 9 10 10 9 8 6
16 16 17 17 18 17 16 16 14 11 11 12 14 14 15 15 14 13 12 13 12 11 11 11 12 13 13 13 12 12 12 11 11 10 10 9 9 9 8 8 8 6 6 5
16 15 15 16 16 16 15 13 14 13 11 10 10 13 14 14 14 13 13 12 11 11 11 10 12 12 12 12 12 11 11 11 10 9 8 8 7 7 7 6 5 5 5 5
15 11 12 16 16 15 15 15 13 10 12 9 8 11 15 15 13 13 13 11 11 11 10 10 11 11 11 12 12 11 11 9 8 8 8 7 6 6 5 4 4 4 5 5
15 11 11 14 14 14 15 15 13 10 9 11 9 12 13 13 13 13 12 11 10 10 10 10 10 10 11 11 11 10 9 8 7 7 6 5 5 4 3 3 3 3 4 4
13 12 13 11 14 13 13 14 13 12 11 11 11 14 15 14 12 11 10 10 10 9 9 9 8 10 11 10 9 8 8 7 6 5 4 4 3 2 2 2 3 3 3 2
13 13 12 12 12 12 13 12 12 11 11 12 13 12 13 12 11 11 10 10 10 10 9 8 8 9 9 8 8 7 7 6 5 4 4 3 3 2 2 2 2 2 2 1
10 10 11 10 11 10 10 11 11 11 11 11 11 11 12 12 11 10 10 10 9 8 8 8 8 8 8 8 6 6 5 5 4 3 3 3 3 2 1 1 1 2 2 2
11 7 8 9 9 8 10 12 11 12 12 12 12 13 12 11 10 10 10 8 8 7 8 7 8 9 8 6 6 5 5 4 3 2 2 2 2 2 2 2 2 1 1 1
7 6 6 7 10 11 13 14 14 12 12 12 11 10 11 10 9 9 8 8 7 6 7 7 8 7 6 6 5 4 4 3 2 1 2 3 2 2 2 1 1 1 0 -0
8 7 8 11 11 11 13 14 15 12 11 13 12 11 11 10 8 9 6 6 6 6 7 7 7 6 5 5 4 3 3 2 2 2 2 2 1 1 0 0 -0 -1 -1 -1
7 4 6 8 10 11 12 13 13 12 10 12 12 12 12 9 9 10 7 6 7 7 7 6 6 6 5 4 4 3 3 2 2 2 1 1 0 -0 -1 -1 -2 -2 -2 -3
6 7 10 10 9 9 10 11 12 11 11 12 11 11 9 8 7 5 5 6 8 7 7 7 6 4 4 4 4 3 3 2 2 1 1 0 -0 -1 -2 -2 -2 -3 -3 -4
9 7 5 7 8 8 10 12 12 11 11 11 10 9 8 6 6 5 6 7 7 7 7 7 5 4 4 4 3 2 1 2 1 1 0 -0 -1 -2 -2 -3 -3 -4 -4 -5
9 9 10 10 9 10 12 12 12 11 10 9 8 6 5 5 5 6 5 6 7 6 6 5 4 3 4 3 2 1 3 1 1 0 -0 -1 -1 -2 -3 -3 -4 -4 -5 -5
10 10 9 10 11 11 12 12 10 8 7 6 5 5 5 6 5 5 5 5 6 6 5 4 3 3 3 4 3 2 2 2 1 0 -0 -1 -2 -2 -3 -3 -4 -5 -5 -6
9 10 10 9 11 10 10 7 7 6 6 6 6 6 6 5 4 4 4 4 4 4 5 4 3 3 3 4 3 3 2 1 0 -0 -1 -2 -2 -3 -3 -4 -5 -5 -5 -6
9 9 8 11 11 10 10 8 7 7 6 6 6 5 6 5 4 4 3 4 4 3 4 3 3 2 2 2 3 2 1 0 -0 -1 -1 -2 -3 -3 -4 -5 -5 -5 -6 -6

GFSCGP_925_temp_009.txt.gz
Temp
19 22 21 20 20 20 21 20 20 20 19 20 19 20 21 19 19 18 18 19 19 20 17 17 18 19 19 19 20 20 20 19 17 16 17 17 17 17 17 17 17 16 16 15
21 20 20 19 19 20 20 20 20 20 19 20 20 21 20 19 17 17 18 19 19 19 18 16 16 17 18 19 18 17 17 16 16 16 15 15 15 16 16 16 16 16 16 16
20 21 19 20 19 20 19 20 19 20 19 19 19 22 20 20 19 18 18 18 18 20 20 19 18 16 17 16 16 16 16 15 15 15 15 15 15 14 14 14 14 14 14 14
20 19 19 19 19 19 19 19 18 18 19 21 18 22 21 19 20 19 19 19 19 19 19 18 17 15 14 15 15 15 14 14 14 14 14 13 12 12 12 11 11 12 13 13
20 19 19 20 19 19 20 17 17 18 19 19 20 21 21 19 20 20 19 18 18 17 17 15 14 13 12 14 14 14 14 14 14 13 13 12 11 10 10 10 10 10 11 11
18 18 19 19 19 18 18 18 17 16 18 19 18 19 20 20 19 19 19 19 17 16 16 14 13 13 13 14 14 15 14 14 14 13 12 11 10 9 9 10 9 10 9 9
18 19 18 18 19 19 18 18 19 19 18 19 17 18 19 18 17 18 18 17 15 14 14 14 14 14 13 14 14 13 13 12 12 11 11 11 10 9 9 9 9 8 8 7
17 19 18 18 18 18 17 17 17 18 17 17 16 18 18 17 17 17 15 15 15 14 14 14 13 13 13 12 12 11 11 11 11 12 11 11 10 9 8 7 7 7 6 5
16 18 17 17 17 18 18 17 16 14 8 14 17 18 17 17 17 16 15 15 15 15 14 14 14 13 12 12 12 12 12 12 12 11 10 9 9 8 7 6 6 5 4 4
16 17 17 17 17 17 18 17 17 15 16 16 18 16 19 17 17 15 15 14 14 15 15 15 15 13 12 12 12 12 11 10 10 9 8 7 7 6 6 6 6 4 4 3
15 16 17 16 17 17 17 17 15 15 14 15 14 17 16 16 16 16 15 14 14 14 15 15 14 13 11 11 11 10 9 9 8 8 7 7 6 5 5 4 3 3 4 4
15 13 15 17 15 15 16 16 15 15 15 13 12 15 16 16 16 15 15 14 14 14 14 13 12 11 11 11 10 10 8 7 7 7 6 4 4 5 3 2 3 3 3 3
15 14 15 16 16 16 16 15 13 12 12 14 13 16 15 14 14 15 14 14 14 13 13 13 12 11 11 10 9 8 7 7 6 5 4 4 4 4 2 2 1 2 2 2
14 13 14 16 16 15 14 14 13 14 13 14 14 16 17 17 16 15 13 13 14 13 12 12 11 10 10 9 8 7 6 6 5 4 4 3 3 2 1 1 1 1 1 1
14 14 13 13 14 13 14 14 14 13 14 13 15 15 16 16 15 14 14 13 13 13 11 10 10 9 9 8 7 6 6 5 4 3 3 3 2 2 2 2 2 2 2 2
11 13 11 11 11 11 11 13 12 13 13 13 14 13 15 14 13 13 13 12 12 10 9 9 8 8 8 7 6 5 5 4 3 3 2 2 2 2 2 2 1 1 1 0
12 11 10 12 10 10 12 13 12 13 13 14 14 16 13 13 12 13 13 11 8 7 7 8 9 9 7 6 5 5 4 4 3 2 2 2 2 2 1 1 1 0 -0 -1
8 9 9 11 11 13 16 14 14 14 14 14 13 13 12 13 13 12 8 7 6 6 7 9 9 7 7 6 5 4 4 3 3 2 2 2 1 1 0 -0 -0 -1 -1 -2
9 8 9 10 12 12 14 15 14 13 14 13 12 12 12 13 12 10 7 6 6 6 7 8 7 6 5 5 4 3 3 2 2 2 2 1 0 -0 -1 -1 -2 -2 -2 -2
8 7 10 9 11 12 13 13 12 12 13 12 12 12 12 11 9 10 5 5 6 7 8 8 7 5 5 5 4 3 3 2 2 1 1 0 -0 -1 -1 -2 -2 -3 -3 -3
7 8 10 11 10 11 12 11 12 12 11 11 12 12 10 8 6 6 5 6 7 7 7 7 6 5 5 4 3 3 2 2 2 1 1 0 -0 -1 -2 -3 -3 -3 -3 -4
11 11 9 8 9 10 11 12 12 12 10 10 10 9 6 7 6 6 7 7 7 7 7 6 5 5 5 4 3 3 3 2 1 1 1 -0 -1 -1 -2 -3 -3 -3 -4 -5
11 11 11 10 11 11 12 13 11 10 9 7 7 6 6 5 6 8 7 7 6 6 6 5 4 4 3 4 2 3 3 2 1 1 -0 -1 -1 -2 -3 -3 -3 -4 -4 -5
10 10 10 10 12 12 12 12 9 8 7 7 7 6 6 7 7 7 7 6 6 5 5 4 3 4 3 3 3 2 2 2 1 -0 -1 -1 -2 -2 -3 -4 -4 -4 -5 -5
11 10 10 9 12 12 10 10 8 7 7 6 7 7 7 6 7 6 6 5 4 4 3 3 2 2 2 2 2 2 2 2 -0 -1 -1 -2 -3 -3 -4 -4 -5 -5 -6 -7
10 11 10 11 12 10 10 9 7 7 7 7 7 7 6 6 6 5 5 4 3 2 2 2 2 2 1 1 0 0 0 -1 -1 -1 -2 -3 -3 -4 -4 -4 -5 -6 -6 -7

GFSCGP_925_temp_012.txt.gz
Temp
26 28 26 25 25 25 25 25 26 26 24 24 25 26 25 25 26 25 26 25 25 25 24 23 21 20 20 19 20 20 19 16 17 18 18 19 18 18 18 17 15 15 15 14
27 25 24 24 24 25 25 25 25 25 23 24 25 26 25 25 23 24 25 25 25 25 24 22 21 20 19 18 18 18 18 17 17 17 17 16 16 17 16 16 15 15 14 14
26 24 23 24 25 25 24 24 23 23 24 24 25 26 25 24 24 24 24 25 25 25 24 23 21 19 18 17 17 17 17 16 15 15 17 17 17 17 17 15 15 14 13 13
24 23 23 24 23 23 24 23 22 22 23 26 24 26 24 24 24 24 24 24 23 23 23 21 20 19 17 16 16 16 16 16 15 14 15 14 15 15 14 14 13 12 12 12
22 23 23 23 22 22 23 21 22 22 24 24 25 26 24 24 24 24 23 23 22 21 21 20 18 18 17 16 15 15 16 15 14 14 13 14 14 13 13 13 12 12 13 12
23 23 23 23 22 22 22 22 22 22 23 23 23 24 24 24 22 23 23 22 21 21 20 19 18 18 17 16 15 15 15 15 14 13 12 12 12 12 12 12 12 12 11 11
23 23 23 22 23 23 24 23 23 22 22 23 21 23 22 21 22 22 21 21 20 20 20 20 19 19 18 16 16 15 15 15 14 13 13 12 12 11 11 11 11 10 10 10
22 22 22 21 21 21 22 22 21 20 21 22 21 23 23 21 21 21 20 20 20 19 19 19 18 18 17 16 15 14 15 15 14 13 13 12 11 10 10 9 9 9 9 8
21 21 21 20 21 21 22 21 20 18 13 18 22 22 21 21 21 21 20 20 19 19 19 19 18 17 16 15 15 14 14 14 14 12 11 10 9 9 8 8 7 7 7 7
20 21 20 21 21 21 22 20 21 21 18 19 23 22 23 21 21 20 20 20 19 19 19 19 18 17 16 15 14 13 13 13 12 11 10 9 8 8 7 6 6 6 6 6
20 20 20 20 21 21 21 20 20 20 19 19 19 22 22 21 20 20 19 19 19 18 18 18 17 16 15 14 14 13 12 12 11 10 9 8 7 6 6 6 5 5 5 5
18 19 19 20 19 19 20 20 20 19 18 18 16 19 20 21 20 19 19 18 18 18 18 17 16 15 14 14 13 12 11 10 10 9 8 8 6 6 6 5 5 4 4 5
19 19 19 20 19 19 19 19 18 17 16 17 16 19 21 20 19 20 19 18 18 18 18 17 16 15 14 13 12 11 10 9 9 8 8 7 6 6 5 5 4 4 4 3
17 18 19 20 20 19 18 19 19 18 16 17 18 19 20 21 20 20 19 17 17 17 16 15 14 13 12 12 11 10 9 9 8 8 7 7 5 4 4 4 4 4 4 3
18 18 18 18 18 18 18 18 18 18 18 16 18 19 19 20 19 18 17 17 16 16 14 13 13 12 12 11 10 9 9 8 7 7 7 6 5 5 5 4 4 4 3 3
17 17 14 15 16 17 17 18 18 18 18 18 18 18 19 18 17 16 16 15 14 13 11 9 10 11 11 10 9 8 8 8 6 6 6 5 5 4 4 3 3 3 3 2
16 15 14 14 14 14 14 17 18 18 18 17 16 18 17 16 15 15 15 14 11 9 8 9 11 11 10 10 9 9 8 7 6 6 5 5 4 4 3 3 3 2 2 1
11 13 11 13 12 14 17 19 18 17 18 19 18 17 16 16 15 16 12 10 7 8 10 11 11 11 10 9 9 8 8 7 6 5 5 4 4 3 3 3 2 2 1 1
14 12 11 12 14 16 17 17 17 16 16 16 16 15 16 15 15 14 8 6 7 9 10 10 10 10 9 9 8 7 7 7 6 5 4 4 3 3 2 2 2 1 1 0
12 11 13 12 12 13 17 16 16 16 15 15 13 12 12 13 10 8 7 9 10 10 10 10 10 9 9 9 8 7 7 7 6 5 4 3 3 2 2 2 1 1 0 -0
10 10 11 12 12 14 16 15 15 13 13 13 11 10 10 8 7 8 7 10 10 10 10 9 9 9 9 8 7 7 7 6 6 5 4 3 2 2 2 1 1 0 -0 -1
15 13 11 11 11 11 15 15 12 14 13 10 9 9 8 8 8 9 10 11 10 10 10 9 9 8 8 7 7 7 7 6 5 4 4 3 2 2 1 1 1 0 -0 -2
14 15 15 14 15 17 17 16 15 13 12 8 9 10 8 9 10 10 10 11 10 10 9 8 7 7 7 7 7 6 6 5 3 2 2 2 2 1 1 1 0 -1 -1 -3
15 15 13 13 15 16 16 16 13 10 8 9 10 10 10 10 10 10 11 10 9 9 8 7 6 6 6 6 5 4 2 1 1 3 2 2 2 1 1 0 -1 -1 -3 -4
16 15 14 14 14 15 15 12 11 8 7 8 10 10 10 10 10 10 10 9 8 7 7 6 6 5 5 4 3 2 2 1 2 2 2 1 0 0 -0 -1 -1 -3 -4 -5
15 15 12 11 13 11 12 10 9 8 9 9 9 10 10 9 10 9 8 8 7 6 5 5 5 4 4 3 2 1 0 -1 -1 0 1 0 -1 -1 -2 -1 -2 -4 -5 -6

GFSCGP_925_temp_015.txt.gz
Temp
30 30 29 28 28 28 29 29 29 29 28 27 28 29 29 29 29 29 29 29 29 29 28 25 24 23 23 22 23 23 21 19 20 21 20 21 20 20 20 19 18 17 17 16
29 28 27 27 27 28 28 28 28 28 27 27 29 29 28 28 27 28 28 28 28 27 26 24 23 22 21 21 21 20 20 19 19 20 19 18 18 19 18 18 17 17 16 15
28 27 26 27 27 27 28 27 26 26 27 28 28 28 27 27 27 27 28 28 27 26 25 24 23 21 20 20 20 20 19 18 17 18 19 19 19 19 19 18 17 16 15 14
27 26 26 27 26 26 26 26 25 25 26 27 28 28 27 27 26 26 26 26 26 25 25 24 23 21 20 19 18 18 18 18 17 16 17 16 17 17 17 16 16 15 14 14
26 26 26 26 25 25 26 24 25 25 26 27 28 28 26 27 26 25 25 25 24 24 23 23 22 20 19 19 18 18 18 18 17 16 15 15 15 15 15 15 14 13 14 13
26 26 26 25 25 25 25 25 25 26 27 25 27 27 27 27 26 25 25 24 24 23 23 22 21 21 20 18 18 18 18 18 17 16 15 14 14 14 14 14 13 13 12 12
26 25 25 25 26 26 26 26 25 24 24 25 26 26 25 25 25 25 24 24 23 23 22 22 22 21 20 19 18 18 18 18 17 16 15 15 14 13 13 12 12 10 10 10
26 24 25 24 24 24 25 25 23 22 23 25 25 25 25 25 24 24 23 23 23 22 22 21 21 20 20 19 18 17 17 17 17 16 15 14 13 12 11 10 9 9 9 9
25 24 24 23 24 24 24 23 23 22 18 20 26 26 25 24 23 23 23 23 22 22 22 21 21 20 19 18 18 16 16 16 16 15 13 12 11 11 10 9 8 8 8 8
23 23 23 24 24 24 24 24 23 23 19 21 25 25 25 23 23 23 23 22 22 22 22 21 20 19 18 17 16 16 15 15 14 13 12 11 10 9 8 8 8 7 7 7
23 23 23 23 23 24 24 23 22 23 22 20 21 23 24 24 23 22 22 22 22 21 21 21 20 18 17 17 16 15 15 14 13 12 11 10 10 9 8 8 7 6 6 6
21 22 21 23 22 22 23 23 23 20 20 20 19 20 23 23 23 22 22 22 21 20 20 20 18 17 17 16 15 14 14 13 12 11 11 10 10 9 8 7 6 5 5 5
22 21 21 23 22 22 22 22 22 20 18 18 18 20 23 23 23 23 22 22 20 19 18 18 17 16 15 15 14 14 13 11 11 10 10 10 9 8 6 6 5 5 5 5
18 22 21 21 22 22 21 22 22 21 18 19 20 21 23 23 22 22 21 21 19 18 17 16 16 15 14 14 14 13 12 11 10 10 9 9 8 7 6 6 5 5 5 5
21 19 20 21 22 22 21 21 21 21 21 19 20 21 21 21 20 20 20 19 18 17 16 15 14 13 13 14 13 12 11 10 10 9 9 9 8 7 5 5 5 5 5 4
20 18 17 17 20 21 20 21 21 21 21 20 21 20 21 21 20 19 18 17 16 15 13 13 13 13 14 13 12 12 11 10 9 9 9 8 7 5 5 5 5 5 4 4
18 17 17 16 17 16 15 19 21 21 21 20 18 19 20 19 17 15 15 15 14 11 10 12 13 13 13 12 12 12 11 10 10 9 9 8 6 5 5 4 5 4 4 3
15 16 14 14 13 15 20 21 21 20 20 21 21 20 19 16 16 15 14 13 10 10 12 13 13 12 12 12 12 11 11 10 10 9 8 6 6 5 5 4 4 4 3 3
18 15 13 13 16 18 19 18 18 17 17 20 18 17 17 16 15 14 11 11 11 11 12 12 12 12 12 12 12 11 11 10 10 9 8 7 5 4 4 4 4 3 3 3
15 15 15 13 13 14 18 19 18 18 16 17 17 15 14 13 12 12 12 12 12 12 13 12 12 12 11 11 10 10 10 10 9 8 8 7 6 5 4 4 3 3 3 2
11 11 13 13 13 15 19 18 18 15 15 16 14 13 11 11 10 10 11 12 12 13 12 12 12 11 11 10 9 9 9 10 9 7 7 6 3 3 4 3 3 3 3 2
14 13 11 13 12 13 18 17 14 16 16 15 11 10 10 12 11 12 13 13 12 12 12 12 11 10 9 9 8 8 9 8 7 5 4 2 1 3 3 3 3 3 2 0
17 17 16 16 17 19 18 17 16 16 14 11 9 10 10 12 12 12 12 13 12 12 12 11 10 9 8 8 7 7 7 5 4 3 2 2 3 3 3 3 3 2 1 -1
18 20 16 15 17 18 17 16 15 13 12 10 9 10 12 12 12 12 12 12 11 11 10 10 9 8 8 7 7 6 4 3 3 2 2 2 3 3 2 2 2 1 -0 -3
18 18 16 16 17 17 17 14 13 12 10 9 12 12 12 12 12 12 12 11 10 9 9 8 8 8 7 7 5 4 2 2 2 1 2 2 2 2 2 1 1 -0 -2 -4
17 17 16 14 16 13 13 11 12 11 10 12 11 11 11 12 12 11 11 10 9 8 8 8 8 7 6 5 3 2 2 0 -0 -0 1 1 1 0 -1 0 -1 -2 -3 -5

GFSCGP_925_temp_018.txt.gz
Temp
30 29 28 28 28 29 29 29 29 30 29 28 28 29 30 29 30 30 30 30 30 26 25 24 24 23 23 23 22 21 20 20 20 21 20 20 19 19 19 19 18 17 17 16
29 28 28 29 29 28 29 28 29 29 28 27 29 29 29 28 28 29 29 29 27 25 24 23 22 21 21 21 21 21 20 19 19 19 19 19 19 19 18 19 18 17 16 15
27 27 28 28 28 28 29 28 26 26 28 28 28 28 27 27 28 28 28 28 26 25 24 23 22 21 20 20 20 20 19 18 17 18 18 18 18 18 18 17 17 16 15 14
28 27 27 28 27 26 27 26 26 26 26 26 29 26 27 27 26 26 26 25 25 25 24 23 22 20 19 19 19 19 19 18 17 17 16 16 16 15 15 15 15 14 14 13
27 27 27 27 26 26 26 26 26 26 26 27 28 27 27 27 26 25 25 25 24 24 23 22 21 20 19 19 18 18 18 18 17 16 15 15 15 14 14 14 13 13 12 11
27 27 26 26 26 26 26 26 27 26 26 24 27 27 24 26 26 25 25 24 24 23 23 22 21 21 19 19 18 18 18 18 18 17 16 15 15 14 13 12 12 10 10 10
26 26 26 26 26 27 27 26 24 22 23 23 26 26 24 25 26 26 24 23 23 23 22 22 22 21 20 19 19 18 17 17 17 17 16 14 13 12 11 11 9 9 9 8
26 23 25 26 25 24 26 25 22 21 21 23 26 25 24 25 25 24 24 23 23 22 22 22 21 20 20 19 18 18 17 16 16 15 14 13 12 11 10 9 8 8 8 8
25 24 25 25 25 25 24 23 24 22 19 20 24 25 24 24 24 24 23 23 23 23 22 22 21 20 19 18 17 17 16 16 15 14 13 12 11 10 9 9 8 8 7 7
24 24 25 25 25 25 25 25 23 22 20 20 24 24 22 23 23 23 23 23 23 23 22 21 21 19 18 18 17 16 15 15 14 13 12 11 11 10 9 9 8 7 6 5
24 24 23 24 24 24 24 24 23 23 22 20 20 22 24 24 24 23 22 23 22 21 21 20 19 18 17 16 16 15 15 14 13 12 12 11 10 10 10 8 6 6 5 5
22 23 21 24 23 24 24 23 23 19 20 20 19 20 24 23 23 22 22 21 21 20 19 18 17 17 16 16 15 15 14 13 12 11 11 10 10 10 9 7 6 5 5 5
22 22 21 22 22 23 23 24 23 21 18 17 17 19 24 23 20 21 21 21 19 19 18 18 17 16 15 15 14 14 13 13 11 11 11 10 10 9 8 7 6 5 5 5
19 23 22 20 22 23 22 23 23 22 18 18 18 20 22 23 21 20 20 20 19 18 17 16 16 15 14 14 14 13 13 12 11 11 10 9 9 8 7 6 5 5 5 5
21 20 21 21 22 22 22 22 22 22 21 19 20 21 22 21 21 19 19 18 18 17 16 15 14 14 14 14 14 13 13 12 11 10 10 9 9 8 6 6 5 5 5 5
21 18 17 18 22 21 19 20 20 21 22 22 21 20 22 19 18 17 16 16 17 15 14 12 13 14 14 13 13 13 12 12 11 10 10 10 8 7 6 5 5 5 5 4
19 18 17 16 16 16 15 19 21 21 21 20 18 20 19 18 17 17 16 16 14 13 12 13 13 13 13 13 12 12 12 12 10 10 10 9 7 7 6 5 5 4 4 4
16 16 13 14 13 15 20 21 21 20 21 21 21 19 18 17 16 16 14 13 12 12 12 12 13 13 13 12 12 12 11 11 10 10 10 9 7 6 6 5 5 4 4 3
19 15 12 13 16 17 19 19 18 17 17 20 18 17 16 16 15 15 13 13 12 12 13 13 13 13 13 12 11 10 10 10 10 10 7 6 5 6 5 5 3 4 3 3
17 16 15 12 13 14 18 20 19 19 16 17 16 15 14 13 11 13 12 12 13 13 13 13 13 13 12 11 10 9 9 9 9 7 5 5 4 3 2 1 2 3 3 3
11 13 13 13 13 15 19 19 18 15 15 15 15 14 12 11 11 11 12 13 13 13 13 13 12 12 11 10 9 9 8 8 7 5 4 4 3 1 1 1 3 3 2 2
12 12 11 13 13 13 19 18 15 16 15 14 13 12 11 11 12 13 13 13 13 13 12 12 11 10 9 9 9 8 8 6 5 4 3 2 1 1 3 3 3 3 2 0
17 16 16 15 15 18 19 17 16 15 14 12 12 11 11 12 13 13 12 12 12 12 11 11 10 9 9 9 8 7 6 4 3 3 2 2 2 2 2 2 3 2 1 -1
20 21 16 16 18 19 18 17 14 13 12 12 11 11 12 12 12 12 12 12 12 11 10 9 9 9 9 8 7 5 4 3 2 2 2 2 2 2 2 2 1 0 -1 -2
18 19 18 17 18 18 17 15 13 12 11 10 11 12 12 12 12 12 12 11 10 10 9 8 8 8 7 7 5 4 3 2 1 0 0 1 0 1 0 0 -1 -1 -2 -3
17 17 15 14 17 15 14 12 12 10 10 11 12 12 12 12 12 11 10 10 9 8 8 8 8 7 6 5 4 3 2 1 -0 -2 -1 -1 -1 -1 -1 -1 -1 -2 -3 -4

GFSCGP_925_temp_021.txt.gz
Temp
25 23 22 25 26 27 26 26 24 24 26 27 26 25 25 25 26 27 22 20 20 20 19 20 20 21 20 20 20 20 20 20 20 20 19 19 18 19 19 18 17 17 15 15
25 23 26 28 28 27 27 25 23 25 26 25 25 25 24 24 24 22 21 20 20 19 19 19 20 20 20 20 19 19 19 19 18 18 18 17 17 17 16 16 15 14 14 13
23 25 27 27 24 24 24 23 23 24 24 25 25 23 23 24 23 23 22 21 20 19 18 18 18 19 19 19 19 18 18 18 18 17 18 17 17 17 16 15 14 13 13 12
24 26 26 26 24 24 23 24 24 24 22 21 23 21 22 22 22 22 21 18 18 18 18 18 17 18 18 18 18 18 18 18 18 17 16 15 15 14 14 13 12 12 11 11
25 25 23 23 24 24 24 25 24 24 22 22 22 21 21 22 21 21 19 19 18 17 17 16 17 18 18 18 18 18 18 17 17 17 16 15 14 13 12 11 11 10 10 10
24 25 24 23 25 25 25 24 23 23 21 17 21 22 21 22 22 21 20 19 19 17 17 18 19 19 18 18 18 18 17 17 16 15 14 14 13 12 11 10 9 9 9 8
24 24 24 25 23 25 23 21 16 17 15 16 21 22 19 21 22 21 20 17 17 17 16 16 17 18 18 18 18 17 16 16 15 14 13 12 12 11 10 9 9 9 8 7
21 21 22 24 23 23 22 22 14 19 15 16 21 21 19 20 21 21 20 18 18 18 18 17 19 19 18 17 17 17 16 16 14 14 12 11 11 10 10 9 9 8 7 6
21 21 23 23 23 23 22 19 23 17 17 13 19 21 21 21 21 21 20 19 17 17 17 17 17 17 17 16 16 16 15 15 13 12 12 11 11 10 10 9 8 7 6 6
22 21 23 24 24 24 22 23 18 15 17 18 19 19 18 20 20 21 21 19 18 17 16 14 15 16 16 16 15 15 15 14 13 12 11 11 10 10 10 8 7 7 6 6
20 20 21 23 21 21 20 20 20 20 15 14 13 17 21 19 19 19 18 18 16 14 14 13 15 16 16 15 15 15 14 13 12 11 11 11 10 10 9 8 7 7 6 5
20 18 16 21 22 23 23 21 20 13 17 12 12 15 20 17 18 17 17 16 15 15 14 14 15 15 14 14 14 14 13 12 12 11 11 10 10 10 9 8 7 6 5 5
19 18 14 18 20 21 22 22 21 16 12 15 11 13 20 20 17 18 16 15 15 14 13 13 13 13 13 13 14 13 13 12 12 11 11 10 10 9 9 7 6 6 5 5
17 20 17 14 19 20 20 20 21 17 11 13 13 16 18 17 17 16 14 14 14 13 12 11 11 12 13 13 13 13 13 12 12 11 11 10 9 9 8 6 6 5 5 5
18 17 18 18 19 20 20 19 18 18 17 15 15 18 16 15 14 14 14 14 14 12 11 11 10 11 13 13 13 12 12 12 12 10 10 10 9 8 7 6 5 5 5 5
17 13 16 17 17 17 17 16 17 18 19 18 18 17 16 15 14 14 14 13 12 11 11 11 11 12 12 12 12 12 11 10 10 9 9 9 8 7 6 5 4 2 4 4
15 12 11 12 13 12 12 16 18 19 19 18 16 17 14 13 13 12 10 11 11 10 10 10 11 11 12 12 12 10 9 9 9 8 7 7 6 6 5 4 2 1 4 4
13 12 8 9 9 11 17 19 18 17 17 17 16 14 13 12 12 10 10 10 9 10 10 10 11 11 12 10 9 9 9 9 8 7 5 5 5 4 4 3 0 1 2 2
15 9 7 9 10 13 17 18 16 16 15 15 14 13 12 12 12 10 10 11 10 10 11 12 12 12 10 9 9 9 8 8 7 5 4 4 3 2 2 1 1 -0 2 2
13 10 8 9 8 8 13 17 17 17 11 14 13 11 11 11 7 9 10 10 10 12 12 12 11 10 9 9 9 8 8 7 5 4 3 3 3 2 1 1 1 2 1 1
9 10 7 6 6 9 14 17 17 12 11 13 12 10 10 9 8 9 10 10 12 12 11 10 10 9 9 9 8 8 6 5 4 3 3 2 2 2 2 1 1 2 1 -0
9 8 7 10 10 9 15 17 13 12 12 11 10 10 10 10 9 10 11 10 11 10 10 10 9 8 8 8 8 6 4 4 3 3 2 2 2 2 2 2 2 1 0 -1
13 11 9 10 10 12 16 14 13 13 11 10 9 10 10 9 10 10 10 10 10 9 9 9 8 8 8 7 5 4 3 3 2 1 1 1 1 1 1 1 1 -0 -1 -2
16 15 10 12 15 16 13 12 11 10 10 10 10 10 10 10 10 10 9 8 8 9 8 8 8 7 6 6 4 3 3 2 1 0 -0 -1 -1 -1 -0 -0 -1 -2 -2 -3
12 15 15 12 15 15 12 11 11 9 9 10 11 11 11 10 10 9 7 7 7 7 7 7 6 6 5 4 3 3 3 2 1 -0 -1 -2 -2 -2 -1 -1 -2 -2 -3 -3
14 13 10 9 13 12 10 10 10 9 9 10 10 10 11 9 7 7 7 7 6 6 6 5 5 5 3 2 2 2 2 1 0 -1 -2 -2 -2 -2 -2 -2 -2 -3 -3 -3

GFSCGP_925_temp_024.txt.gz
Temp
23 22 22 24 23 24 24 22 22 24 25 26 23 23 24 24 20 18 18 17 17 16 17 16 17 18 18 17 17 17 17 18 18 18 18 18 16 15 15 15 14 14 13 13
21 23 24 25 24 23 24 22 23 24 24 24 21 22 23 20 18 18 18 17 17 16 16 16 16 17 17 17 17 18 18 18 18 17 16 16 16 15 14 13 13 12 12 12
21 24 26 24 22 23 21 21 23 23 23 23 21 21 20 20 19 19 18 17 17 16 16 15 15 16 17 17 17 18 18 18 18 18 17 17 17 15 13 12 12 11 11 11
24 25 23 23 23 23 22 23 23 23 21 21 22 18 21 19 18 18 17 16 16 17 16 16 16 17 18 18 18 17 17 17 17 16 16 15 14 13 11 11 11 11 10 10
23 22 22 22 23 24 23 24 23 23 21 20 20 18 20 19 18 18 16 16 16 15 15 14 16 18 18 18 18 17 17 17 16 15 15 14 13 12 11 11 11 10 9 8
23 23 23 23 23 24 24 23 20 20 19 16 20 19 19 18 19 18 18 16 16 14 14 15 17 17 17 18 17 17 16 16 16 15 14 14 12 11 11 10 10 9 8 7
22 22 23 24 22 22 21 18 15 16 15 16 20 19 18 18 19 19 16 15 15 14 14 14 15 16 17 17 16 16 15 14 13 13 13 12 11 11 10 10 9 9 8 7
19 19 21 22 22 22 22 19 14 19 15 16 19 18 18 18 19 18 17 16 17 16 15 14 15 15 15 15 15 15 14 13 13 12 11 11 11 10 10 9 8 8 7 6
19 20 22 23 23 22 21 19 20 16 14 13 17 19 20 19 19 19 19 19 17 14 13 12 14 14 15 15 15 15 15 14 13 12 11 11 11 10 10 9 9 8 7 7
21 20 22 23 22 22 21 21 17 13 16 18 17 18 17 18 18 18 17 15 14 14 13 12 13 14 14 14 14 14 13 12 11 11 11 11 11 10 10 9 9 8 7 6
20 19 19 21 20 20 19 19 18 17 13 14 13 15 17 18 18 16 14 14 13 13 12 12 12 13 13 14 14 13 12 12 12 12 12 11 11 10 9 9 9 8 7 6
19 16 14 20 21 22 21 20 17 12 17 11 11 14 17 16 16 16 15 14 13 13 12 11 12 12 13 13 13 12 12 12 12 12 11 11 10 10 9 8 8 7 6 6
19 16 13 16 18 19 20 21 17 14 11 14 10 13 16 16 15 15 13 13 12 11 10 10 11 11 12 12 12 12 12 12 11 11 10 10 10 10 9 8 7 6 5 4
17 17 16 15 18 18 20 20 17 15 11 13 12 15 16 15 13 13 12 11 10 10 10 10 10 11 12 12 12 12 11 10 10 9 9 8 8 7 7 7 6 5 3 2
16 16 17 17 17 18 19 18 17 17 15 14 15 14 14 13 12 13 12 11 11 10 10 10 9 10 11 12 12 10 9 9 9 8 8 7 7 7 6 6 5 4 3 1
14 13 15 17 15 14 16 16 15 16 17 17 15 14 14 13 12 12 11 11 11 10 10 10 10 10 11 10 9 9 9 9 8 8 6 6 5 5 5 4 4 3 2 1
14 11 10 12 11 12 11 15 17 18 16 17 15 14 12 12 11 10 10 10 10 10 10 9 10 10 9 9 9 9 9 8 7 6 5 4 4 4 3 3 2 1 -0 -1
11 9 6 8 8 11 16 16 17 16 16 13 13 12 12 11 10 9 9 9 9 9 10 9 9 9 9 9 9 9 8 7 6 4 4 4 3 3 2 2 -0 -1 -0 0
13 7 7 8 9 12 16 16 16 16 14 13 12 11 11 10 9 10 10 10 10 10 10 9 10 9 9 8 8 8 7 6 5 4 3 3 2 2 1 1 1 0 0 0
11 8 7 8 8 9 13 16 16 15 11 13 12 10 10 9 7 8 9 10 10 11 10 9 9 8 8 8 8 6 5 4 4 3 3 2 2 2 1 1 1 0 0 -0
8 6 7 2 5 8 11 15 15 12 12 11 10 9 9 9 7 8 9 10 11 10 9 9 8 8 8 7 7 5 4 3 3 3 2 1 1 1 1 1 1 1 -0 -2
9 8 7 5 5 10 12 15 13 11 11 10 9 9 9 9 9 9 10 10 9 8 8 8 7 7 6 6 6 4 4 3 3 2 1 0 0 0 1 1 0 -1 -1 -2
12 10 10 10 10 12 13 14 13 11 10 9 8 9 9 9 9 9 8 7 7 7 7 7 6 6 6 5 4 3 3 3 2 1 0 -1 -1 -1 -1 -0 -1 -2 -2 -3
13 12 9 11 13 12 13 11 11 10 9 9 10 10 10 9 9 7 6 6 6 6 6 6 5 5 5 4 3 2 2 2 1 0 -0 -1 -2 -2 -2 -2 -2 -3 -3 -4
11 13 13 10 13 11 11 11 9 9 9 10 10 10 10 7 6 6 5 5 5 5 5 5 4 4 3 3 2 2 1 1 0 -0 -1 -1 -2 -2 -2 -3 -3 -3 -3 -4
12 13 10 9 12 12 10 9 9 8 9 10 10 7 7 7 5 6 4 5 4 4 4 3 3 2 2 1 1 1 1 -0 -1 -1 -1 -2 -2 -3 -3 -3 -3 -3 -4 -4

GFSCGP_925_temp_027.txt.gz
Temp
22 21 22 23 23 24 23 21 21 22 23 22 23 20 17 18 15 14 14 15 14 14 14 14 14 16 17 16 16 17 17 17 17 17 16 16 14 14 14 14 13 13 13 13
21 22 24 22 22 23 22 21 22 23 22 22 20 17 16 16 15 15 15 15 15 14 14 14 15 16 17 17 17 18 18 18 17 17 16 15 14 14 14 13 13 12 12 11
22 24 23 22 21 22 21 21 22 23 21 20 20 18 16 17 16 16 15 15 15 15 14 13 13 16 17 17 18 18 18 18 17 17 17 15 14 13 12 11 11 10 10 10
22 22 22 21 22 21 22 22 22 22 20 19 20 17 18 17 16 16 15 14 14 14 13 14 13 14 16 17 17 17 17 17 17 17 17 17 16 13 11 10 10 10 10 10
22 22 22 22 23 23 22 22 22 22 19 19 19 16 17 17 16 16 15 14 14 14 14 13 14 15 16 15 16 16 16 16 15 15 15 15 14 13 11 11 10 10 9 9
22 22 22 23 23 23 23 21 18 17 17 16 19 17 16 16 16 16 16 15 15 14 14 15 15 16 15 15 15 15 15 15 15 15 14 13 13 11 11 10 11 11 10 9
21 21 21 22 22 22 20 18 15 16 14 15 18 18 17 18 17 17 15 14 14 13 13 13 14 14 14 14 14 15 15 15 14 13 13 12 11 11 11 11 11 10 9 9
18 19 21 21 22 21 20 18 14 19 15 15 17 17 17 17 16 16 15 14 14 13 13 13 13 13 14 15 14 14 14 13 13 12 12 11 11 11 11 10 10 9 9 8
19 20 22 22 22 21 21 17 18 14 12 13 15 18 18 18 16 16 16 15 14 12 11 11 12 13 14 14 14 14 13 12 11 11 11 11 11 11 10 10 9 9 8 7
20 19 21 22 22 21 20 19 17 13 16 17 16 17 15 16 16 16 15 13 12 11 11 10 12 13 13 13 13 14 13 12 12 12 12 12 11 10 10 9 9 9 8 7
19 18 18 20 19 19 19 18 16 15 12 13 12 14 15 16 16 14 13 12 12 11 11 10 11 12 12 12 13 13 12 12 12 12 11 11 10 9 9 9 9 8 7 5
18 15 14 19 19 20 20 19 16 12 16 10 10 13 16 15 14 14 13 13 11 10 10 10 11 12 12 12 12 12 11 11 11 11 10 9 9 8 8 7 7 6 5 5
18 15 13 16 17 18 20 19 14 12 10 14 10 13 15 14 14 13 12 11 10 9 9 9 10 10 11 11 11 11 11 10 10 9 9 9 8 8 7 7 7 6 6 5
16 15 15 15 17 17 18 18 16 15 11 12 11 15 15 13 12 12 11 10 9 9 9 9 9 10 11 11 10 10 9 9 9 9 8 8 7 6 6 5 5 5 5 4
15 15 16 15 15 17 18 17 15 15 14 14 14 13 15 12 11 11 11 9 9 9 10 10 9 10 10 10 9 9 9 9 8 8 7 6 5 5 4 4 4 3 3 1
13 12 15 16 13 13 16 16 15 14 15 14 15 14 13 12 11 11 10 10 10 11 10 10 10 9 9 8 9 9 9 8 8 7 6 5 5 4 3 2 2 2 1 1
12 10 10 12 10 12 11 14 15 16 16 15 12 13 11 11 11 10 9 9 9 9 9 9 8 8 8 9 9 8 8 8 7 6 5 4 3 3 2 1 0 -1 -0 -0
10 7 5 8 7 11 15 14 15 16 15 14 12 11 11 11 10 9 8 8 8 8 9 8 8 8 8 8 8 8 8 7 5 5 4 3 2 2 2 1 -1 -1 -1 -1
11 7 6 7 9 12 16 15 14 15 14 12 12 10 11 9 9 9 8 8 8 8 9 9 9 8 8 8 8 7 7 5 4 4 3 2 2 1 1 1 1 0 -0 -1
9 7 7 6 8 9 13 14 14 15 11 11 11 10 9 8 6 8 7 8 9 9 9 8 8 8 7 7 7 6 5 4 4 3 3 2 1 1 1 1 1 0 -0 -1
8 5 6 2 5 9 11 14 15 13 12 10 10 10 8 8 8 8 8 9 9 9 8 8 7 7 6 6 6 5 4 4 3 3 2 1 1 0 0 1 0 -0 -1 -2
9 9 8 6 6 11 12 14 13 12 11 10 9 8 8 9 8 8 8 7 7 7 7 6 6 6 6 5 5 4 3 3 3 2 1 0 -0 -1 -0 0 -1 -1 -2 -2
11 10 9 10 10 12 11 13 12 10 10 9 9 8 9 8 8 8 7 6 6 6 6 6 5 5 5 4 3 3 2 2 2 1 0 -1 -1 -1 -2 -1 -2 -2 -3 -3
11 11 9 11 13 11 11 12 11 10 10 8 8 9 9 9 8 6 5 4 5 5 5 5 4 3 3 3 3 2 1 1 1 -0 -1 -2 -2 -2 -2 -3 -3 -3 -3 -4
10 11 11 9 11 11 11 10 10 9 8 9 9 9 8 7 5 5 4 4 4 4 4 3 3 2 2 2 1 1 0 1 0 -0 -1 -2 -2 -3 -3 -3 -3 -4 -4 -4
10 11 9 10 12 12 12 10 8 8 8 9 9 7 6 6 5 5 3 4 3 3 3 2 2 1 1 0 0 0 -0 -1 -1 -1 -2 -3 -3 -3 -3 -4 -4 -4 -4 -4

GFSCGP_925_temp_030.txt.gz
Temp
21 20 21 22 22 22 22 22 22 21 22 19 15 15 14 15 14 13 13 13 12 12 12 13 13 14 15 15 16 15 15 14 14 14 15 15 14 14 14 14 14 14 13 12
20 21 22 21 21 20 20 20 22 22 20 19 16 15 14 14 14 13 12 12 12 12 12 13 14 15 15 15 15 15 15 15 15 16 16 16 15 14 14 13 12 12 11 11
20 22 22 22 20 21 20 21 22 22 21 18 19 17 15 16 14 14 13 13 13 13 12 12 13 15 15 15 16 16 16 16 17 18 17 16 15 13 12 11 11 11 11 11
21 21 21 21 21 20 22 21 22 20 19 18 18 18 17 15 14 14 14 13 12 13 13 12 13 14 15 16 17 17 17 17 16 16 16 16 15 13 11 11 11 11 11 10
22 22 21 21 22 22 22 20 20 20 17 18 18 17 16 15 15 14 13 13 13 12 12 12 13 14 16 16 16 16 16 16 16 16 15 15 14 13 11 11 11 11 10 10
20 21 21 22 21 21 20 19 17 16 16 15 18 17 16 15 15 15 14 13 13 13 13 13 14 14 15 16 16 16 16 15 15 15 14 14 13 12 11 11 11 10 10 10
19 20 20 21 21 21 18 17 15 16 14 15 17 16 16 16 16 16 14 13 13 12 12 11 12 13 13 13 15 15 14 14 14 13 13 12 12 11 11 11 11 11 10 10
18 18 21 20 21 20 19 18 14 19 15 15 17 17 17 16 16 15 14 14 12 12 12 12 13 13 13 13 14 13 14 14 13 12 12 12 12 11 11 11 10 10 9 9
18 20 21 21 21 21 19 17 17 13 12 12 14 17 17 15 14 14 14 14 12 12 11 11 12 12 12 12 13 13 13 12 12 12 12 12 11 10 9 9 9 9 9 8
19 19 20 21 21 19 20 17 16 12 16 17 15 15 15 15 14 14 14 13 12 11 10 9 10 11 12 12 13 13 12 11 12 11 10 9 9 9 8 8 8 8 7 7
18 17 18 20 19 19 18 17 14 14 11 13 11 14 14 15 15 14 13 12 10 10 9 9 10 11 12 12 12 12 11 12 12 11 10 9 9 8 9 8 7 7 7 6
17 14 15 19 19 18 19 18 15 12 16 9 10 13 15 14 14 14 12 11 10 9 9 9 10 11 11 11 12 12 11 11 10 10 9 9 9 8 7 6 6 6 5 5
16 15 13 16 17 18 19 17 13 12 10 13 10 13 14 13 13 13 10 9 9 8 8 8 9 10 11 11 11 10 10 9 9 9 9 8 7 6 6 5 5 5 4 3
15 14 15 15 17 16 18 17 15 14 10 12 11 15 15 14 13 11 10 9 8 8 8 8 8 10 9 10 10 9 9 9 9 8 8 7 6 5 5 4 4 3 2 2
15 15 15 14 14 16 17 16 14 15 14 14 15 12 14 13 11 10 9 8 8 8 9 9 8 9 9 9 9 8 9 8 8 8 7 5 5 4 4 4 3 2 1 0
12 12 15 15 12 12 15 15 14 14 14 13 14 13 12 11 10 10 9 8 9 9 9 9 9 9 8 8 8 8 8 8 8 6 5 4 4 4 3 2 1 1 -0 0
12 10 11 12 9 11 11 13 13 14 13 13 13 13 10 11 10 9 8 8 8 8 8 9 9 8 8 8 8 8 8 7 6 5 4 4 4 3 2 1 0 -0 -1 -1
10 9 5 8 7 11 15 14 14 14 14 13 14 12 10 11 10 9 8 8 7 7 8 8 8 8 8 8 8 7 7 6 5 4 4 4 3 2 1 1 -0 -0 -1 -1
10 7 6 7 8 12 17 14 13 14 14 12 12 11 10 8 9 10 7 7 7 7 8 8 8 8 8 7 7 7 6 5 5 4 3 3 2 1 1 1 0 0 -1 -1
9 7 8 4 8 9 13 14 14 15 12 12 11 9 8 8 8 10 7 7 7 8 8 8 8 7 7 7 7 6 6 5 4 3 3 2 1 1 0 0 0 -0 -1 -1
7 5 6 2 5 9 11 14 14 13 13 10 10 9 7 8 9 9 6 7 8 8 7 7 7 7 6 6 5 5 4 3 3 2 2 2 1 0 -1 -0 -0 -1 -1 -2
9 9 9 6 4 11 11 14 13 12 11 10 9 8 9 8 7 7 7 6 6 6 6 6 6 5 5 5 4 3 3 2 2 2 1 0 -0 -1 -1 -1 -1 -2 -2 -3
11 10 8 9 10 11 11 12 12 10 11 10 9 8 9 8 7 6 5 5 6 6 5 5 5 4 4 3 3 2 2 1 1 1 0 -1 -1 -2 -2 -2 -2 -3 -3 -3
10 10 8 10 13 10 10 10 10 10 10 10 9 8 8 8 7 6 5 3 4 4 4 4 3 3 2 2 2 1 1 0 0 0 0 -0 -1 -2 -3 -3 -3 -3 -3 -4
10 10 10 9 10 10 10 10 10 9 9 8 8 8 8 6 5 5 3 3 4 4 3 3 2 1 1 1 1 0 -0 -0 -1 -1 -1 -1 -2 -3 -3 -3 -3 -4 -4 -4
9 10 9 10 12 12 12 12 9 8 8 8 8 6 6 6 4 4 3 4 3 3 2 2 1 1 0 -0 -0 -1 -1 -1 -2 -2 -2 -2 -3 -3 -3 -3 -4 -4 -5 -4

GFSCGP_925_temp_033.txt.gz
Temp
21 24 24 24 22 22 22 23 23 22 21 20 18 17 17 17 18 17 17 17 17 16 13 13 12 13 13 13 14 15 16 15 14 13 13 13 13 13 13 13 13 12 12 11
23 22 22 21 21 21 21 22 22 21 20 20 18 18 17 16 16 17 17 16 16 15 15 13 13 13 13 14 15 14 16 16 14 13 14 14 14 13 12 12 11 11 11 11
22 22 21 21 21 22 21 22 21 22 21 20 20 20 18 16 16 15 15 15 15 16 16 14 14 13 13 13 13 14 15 15 15 15 15 14 13 11 10 10 11 11 11 11
21 21 21 21 21 21 22 21 21 21 22 23 20 23 19 17 16 15 15 16 16 16 15 15 14 13 13 14 15 15 15 15 15 14 14 15 13 12 11 11 11 11 11 10
21 21 21 21 21 21 21 20 20 20 20 21 21 22 20 16 17 16 16 16 16 15 16 15 15 14 13 14 15 15 15 14 14 15 14 14 13 12 11 11 11 11 11 10
20 20 21 21 19 20 19 20 19 18 19 20 19 21 21 18 18 17 16 16 16 15 15 15 14 14 13 12 14 15 14 15 14 14 14 13 13 12 12 12 11 11 10 10
20 20 20 21 21 20 20 21 20 20 20 20 18 18 21 19 18 18 17 17 16 15 16 16 14 14 13 14 14 14 15 14 14 13 13 12 12 12 11 11 10 9 9 9
20 21 21 20 21 21 19 21 19 19 19 19 18 19 21 18 18 19 18 18 16 16 15 15 14 14 14 13 13 14 14 13 13 12 12 12 12 11 10 9 9 8 8 7
20 20 20 20 20 21 19 19 18 16 13 17 19 19 19 17 17 17 18 16 17 16 15 15 14 13 12 12 13 13 13 12 12 12 11 11 10 9 9 8 8 8 7 7
19 20 19 20 20 19 20 18 19 17 18 18 18 18 20 18 17 17 17 17 17 15 15 14 13 11 11 11 12 12 12 12 11 11 11 10 9 8 8 8 7 7 7 6
18 19 19 19 20 20 19 18 16 17 16 18 17 20 18 19 18 17 18 18 16 15 14 13 12 11 11 11 11 11 11 11 10 10 9 9 8 8 8 7 7 6 6 5
17 17 17 19 18 18 19 18 17 18 17 13 15 19 16 16 17 17 17 15 14 13 12 12 12 11 11 10 10 10 9 10 10 9 9 9 8 8 7 6 6 5 4 3
17 17 17 19 19 18 19 17 15 14 14 15 16 19 16 15 15 16 16 14 12 12 12 12 11 11 11 9 9 10 11 10 9 9 9 8 8 7 6 5 4 4 2 1
16 15 18 19 19 17 18 16 15 17 16 16 16 18 17 16 15 14 14 13 12 12 11 12 11 11 10 10 10 10 9 9 9 9 8 7 6 5 4 4 3 2 1 0
16 17 16 15 14 15 17 17 15 17 16 18 18 16 18 17 17 15 13 12 11 11 11 11 11 10 10 9 9 8 9 8 8 8 7 5 5 4 4 3 2 2 0 -0
13 15 14 15 13 13 15 16 15 15 15 16 15 16 16 15 14 13 12 11 11 11 11 11 10 10 9 8 8 8 8 8 8 7 5 5 4 3 3 2 1 0 -0 -1
13 13 13 14 11 13 14 15 16 15 15 17 16 19 14 13 13 14 12 11 11 11 11 11 10 9 8 8 8 8 8 7 7 6 5 4 3 3 2 1 0 0 -0 -1
11 11 9 13 10 15 17 14 15 16 16 15 15 14 14 14 12 12 12 12 11 10 10 10 9 8 8 7 8 8 7 7 6 5 4 4 3 2 1 0 0 -0 -1 -1
11 10 9 13 13 14 18 14 14 14 17 15 15 14 12 11 12 13 11 11 11 10 10 9 9 7 7 7 7 7 6 6 5 4 4 3 2 1 0 0 -0 -1 -1 -1
10 9 13 9 14 15 16 15 14 15 16 15 14 12 11 12 13 16 11 10 10 9 8 7 7 7 7 7 7 6 5 4 3 3 2 2 1 0 -0 -1 -1 -1 -1 -1
10 8 11 7 12 13 13 14 14 16 16 12 13 12 10 12 14 11 10 9 8 8 7 6 6 6 6 6 5 5 4 3 3 2 1 1 0 0 -0 -1 -2 -2 -2 -3
12 11 10 7 10 14 12 14 15 15 12 12 12 11 11 11 9 8 8 8 7 7 6 6 5 5 5 5 4 3 3 2 2 1 1 0 -0 -1 -1 -2 -2 -2 -3 -3
13 13 12 12 13 13 12 13 13 11 12 13 11 11 11 9 9 8 7 7 6 5 4 5 5 4 4 3 3 2 2 1 1 0 -0 0 -0 -1 -2 -2 -2 -3 -3 -3
11 10 12 12 14 12 12 12 11 12 12 12 11 11 10 10 8 7 6 6 4 4 4 4 4 3 2 2 2 1 1 0 -0 -1 -1 -1 -1 -1 -2 -3 -3 -3 -3 -3
12 11 11 11 12 12 12 11 12 12 10 10 10 10 10 9 7 7 5 4 4 4 3 3 2 2 1 1 1 0 -0 -1 -2 -1 -1 -1 -2 -2 -3 -3 -3 -3 -4 -4
10 12 12 12 13 13 13 12 11 10 10 10 9 7 7 8 6 4 3 3 3 3 2 2 1 1 0 0 -0 -1 -1 -2 -3 -2 -2 -2 -2 -2 -3 -3 -3 -4 -4 -4

GFSCGP_925_temp_036.txt.gz
Temp
25 26 27 28 28 28 28 28 28 27 26 27 27 26 25 24 25 25 25 24 24 23 20 19 18 18 18 17 15 15 14 14 15 14 12 11 12 11 12 12 12 12 12 11
26 27 26 25 26 27 27 27 27 25 25 26 26 25 24 24 25 25 25 24 24 22 22 19 18 17 16 16 16 14 14 15 13 13 14 15 15 14 13 12 11 12 11 11
27 25 25 26 26 26 26 27 26 26 25 26 26 26 24 22 22 21 22 24 23 23 22 20 19 18 16 16 15 16 16 16 16 16 15 14 13 13 13 13 12 11 11 11
26 24 25 26 26 26 26 25 26 25 26 27 26 27 26 23 23 21 21 21 22 22 21 20 19 18 18 17 17 18 18 17 16 15 16 15 17 16 15 13 13 12 10 11
25 25 25 26 25 24 25 25 26 26 26 26 26 26 27 23 23 22 21 22 21 21 21 21 20 19 19 17 17 17 17 16 15 15 15 15 15 14 13 13 12 12 11 10
25 25 25 25 24 25 24 25 25 25 25 24 26 25 28 27 25 23 21 21 21 20 21 20 20 19 18 17 16 15 16 15 15 15 14 14 14 14 14 13 13 13 12 11
25 24 24 24 25 24 25 25 24 23 23 24 23 24 27 25 24 23 22 21 21 20 21 21 20 19 17 16 16 16 16 15 14 14 14 13 13 13 13 12 12 11 11 11
25 23 24 24 25 26 25 25 24 22 23 24 22 24 26 23 23 23 23 22 21 21 21 21 20 19 18 17 17 16 16 15 14 13 13 12 12 12 12 11 10 10 10 9
25 24 23 23 24 24 23 24 23 22 17 21 25 25 25 22 22 22 23 22 22 22 21 21 19 18 18 17 16 16 15 14 12 11 11 11 11 11 10 10 9 9 8 8
24 23 23 22 24 23 24 23 22 23 20 21 24 24 25 22 22 22 22 22 22 22 21 20 19 17 17 16 14 14 14 13 12 11 10 11 10 10 9 9 8 8 7 7
25 24 22 22 23 24 22 23 22 23 22 22 22 25 24 23 23 23 23 23 22 22 21 20 18 16 16 15 15 13 12 11 11 10 10 10 10 9 8 8 7 7 6 6
22 24 22 23 22 22 23 24 24 22 21 20 20 24 23 22 23 23 23 23 23 22 20 19 17 16 15 15 14 12 11 11 10 10 10 10 9 9 8 7 7 6 5 5
22 23 22 22 22 22 23 23 23 21 20 21 20 24 22 22 22 22 23 23 21 19 19 18 16 16 15 14 12 11 10 10 11 10 10 10 9 8 8 7 6 5 4 4
20 22 23 23 24 23 22 22 22 23 21 22 22 25 23 23 22 23 22 22 20 18 17 17 17 16 14 13 11 11 10 10 10 10 10 9 8 7 6 6 5 4 4 3
21 22 21 20 20 20 22 22 22 22 23 21 24 23 25 24 24 23 22 21 19 18 17 17 17 15 14 13 12 12 11 10 10 10 9 9 7 6 5 5 4 4 3 3
19 20 19 19 18 19 19 21 22 22 23 22 23 23 25 24 22 21 20 19 18 17 17 16 16 15 14 13 12 11 11 10 9 9 8 7 6 5 5 4 3 3 3 3
20 19 19 20 17 18 16 20 22 22 22 22 22 23 23 21 20 21 20 19 18 17 17 16 16 14 13 12 11 10 10 9 8 8 7 6 5 5 4 4 3 3 3 3
17 18 16 17 14 17 23 20 20 22 22 23 22 23 21 22 20 19 20 19 18 17 16 16 14 13 12 11 10 10 9 8 8 7 6 5 5 4 4 3 3 3 2 2
18 17 14 16 18 20 23 20 19 19 22 22 22 22 20 17 17 19 18 18 18 17 16 15 14 12 11 10 9 9 8 7 6 6 6 5 4 4 4 3 3 2 2 2
16 16 18 14 17 17 20 18 18 19 20 20 20 20 17 17 18 21 18 16 16 16 15 13 11 10 9 9 8 8 8 7 6 5 5 4 4 3 3 3 2 2 2 2
14 13 15 15 16 18 20 18 18 18 20 19 18 19 18 18 20 17 17 16 15 14 12 10 9 9 9 7 7 7 7 6 5 4 4 4 3 3 2 2 2 1 1 1
17 15 14 13 14 16 17 17 18 19 19 18 18 18 17 18 15 15 15 14 13 12 9 9 8 7 6 6 6 7 6 5 4 3 3 3 3 2 1 1 2 1 1 0
17 18 18 18 19 18 18 19 18 17 17 18 17 18 16 16 15 13 13 12 11 10 9 8 7 6 5 5 5 5 5 3 3 2 3 3 2 1 1 1 1 1 1 0
16 15 16 16 19 18 18 18 18 18 17 17 17 17 16 16 15 13 11 11 10 7 7 6 5 6 5 4 3 3 3 2 2 2 2 2 2 2 1 1 0 0 -0 -1
17 16 17 16 18 19 18 17 16 16 16 16 16 14 14 15 13 12 10 8 7 5 3 5 6 5 5 3 3 2 2 1 1 1 1 1 1 1 1 1 0 -0 -1 -2
15 16 16 17 15 15 17 16 15 14 15 14 14 12 12 12 11 10 7 5 4 3 4 5 4 3 3 2 2 2 1 0 -0 0 1 1 1 0 0 0 -0 -1 -2 -3

GFSCGP_925_temp_039.txt.gz
Temp
27 26 26 28 28 29 29 29 29 30 29 29 29 28 28 28 28 28 28 28 27 27 26 24 23 23 24 22 18 17 15 14 14 15 13 12 12 12 13 13 13 13 13 13
27 26 28 29 29 29 29 28 28 29 29 29 29 29 29 29 29 29 28 28 28 27 25 23 22 22 22 21 17 16 16 14 16 15 15 15 15 14 15 14 14 14 13 13
25 27 28 28 28 28 28 28 27 28 28 29 29 29 28 28 29 29 29 29 28 27 25 24 23 21 20 19 18 18 17 17 17 17 17 17 17 16 15 15 14 14 13 13
24 26 28 28 28 28 27 28 28 28 28 27 29 27 28 28 27 26 26 27 28 27 26 25 23 21 20 19 19 19 19 18 18 18 18 17 18 18 17 17 16 14 12 12
27 27 28 28 28 28 26 28 28 29 29 28 28 28 27 29 27 26 26 26 26 26 25 24 23 21 20 20 19 20 20 19 18 18 18 17 18 17 16 15 15 14 13 13
23 28 29 28 27 27 27 27 28 28 28 26 28 28 29 29 29 28 26 26 26 25 24 24 23 22 21 20 20 20 19 19 18 17 17 17 16 16 15 15 14 14 14 13
27 27 27 28 27 27 28 27 25 25 25 25 27 27 28 29 27 28 26 25 25 24 24 24 23 22 21 19 19 18 19 18 17 17 16 16 15 15 15 14 14 13 13 12
26 25 27 27 28 27 27 27 25 23 24 26 27 26 28 27 26 27 26 26 24 24 23 24 23 22 20 19 18 18 18 18 17 16 16 15 14 14 14 13 12 12 11 11
25 25 27 27 27 27 27 26 27 25 22 23 26 29 27 26 26 26 26 25 24 24 23 23 23 22 20 19 19 18 18 17 16 15 14 13 12 13 13 12 11 11 10 10
27 25 26 25 26 26 26 27 25 25 22 23 27 27 28 26 26 25 25 25 24 24 24 24 23 21 20 19 18 18 18 16 15 14 12 12 12 12 11 11 10 10 9 8
28 27 25 25 25 27 25 25 25 26 25 23 24 27 28 27 27 26 26 25 25 24 24 24 22 21 20 19 17 17 16 15 14 13 12 12 12 11 11 10 10 9 8 8
27 26 25 25 26 26 26 26 26 23 24 23 23 24 27 26 27 26 26 26 25 25 25 24 22 21 19 18 17 16 15 14 13 12 11 11 11 11 11 10 9 8 7 7
26 25 24 24 25 25 25 26 26 26 23 23 22 24 27 26 26 26 26 26 25 25 25 24 22 20 19 18 17 15 14 13 12 11 12 12 11 11 10 10 8 7 7 6
21 25 25 24 25 26 24 25 26 25 22 23 24 26 27 26 26 26 26 26 26 25 24 23 22 20 19 18 16 15 13 11 11 12 13 13 11 10 9 9 7 7 6 5
24 24 25 25 25 24 25 25 25 25 25 24 25 26 28 28 27 27 26 25 25 24 22 22 21 20 19 17 15 14 13 12 12 12 12 12 11 9 8 7 7 6 5 5
24 23 23 22 24 23 23 24 25 25 25 25 26 26 28 27 27 26 25 25 24 23 22 21 20 20 18 16 15 14 13 12 12 12 11 10 9 8 7 7 6 6 5 5
23 22 21 21 21 21 18 22 24 25 26 25 24 26 27 25 24 24 24 24 23 23 22 21 20 19 18 16 15 14 13 12 11 11 10 9 8 7 7 6 6 6 5 5
21 21 20 19 15 16 24 24 24 23 25 26 26 26 26 26 24 23 24 23 22 22 21 21 19 18 17 16 13 12 12 11 10 10 9 8 7 7 7 6 6 5 5 4
22 20 17 17 20 22 24 24 22 22 23 24 23 24 25 23 21 22 22 22 22 21 21 19 18 17 16 14 12 11 11 11 10 9 8 8 7 7 6 6 5 5 4 4
20 20 20 17 16 16 22 21 21 22 21 22 22 23 22 21 20 22 21 21 20 20 19 18 17 15 14 12 11 11 10 10 9 8 7 7 6 6 6 5 5 4 4 4
16 16 17 18 17 20 23 21 21 20 20 21 21 22 21 21 20 20 21 20 20 19 18 17 15 13 13 12 10 9 9 9 8 6 6 6 6 5 5 4 4 3 4 3
18 17 15 17 15 16 21 21 19 20 21 21 21 21 20 20 20 18 18 19 19 18 16 14 13 12 9 8 8 8 9 8 6 5 5 5 5 4 4 3 3 3 3 3
20 21 21 20 21 21 21 21 21 21 20 20 20 20 20 19 19 19 17 17 16 15 13 12 10 8 6 5 6 7 6 5 5 4 4 4 4 4 4 3 3 3 2 2
21 19 19 19 22 21 21 21 20 20 19 19 19 19 19 18 18 18 16 15 14 13 11 8 5 4 4 5 5 5 4 3 3 3 3 4 4 4 3 3 4 3 1 1
20 19 20 19 21 20 21 19 18 17 18 18 18 18 16 16 17 16 14 13 11 7 4 3 4 5 6 5 4 4 3 3 3 3 3 3 3 3 3 3 3 2 1 -0
19 19 18 18 17 16 17 17 15 16 15 15 15 15 14 15 14 13 10 6 3 2 3 4 5 5 5 4 3 3 3 3 2 2 2 2 2 2 2 2 1 0 0 -1

GFSCGP_925_temp_042.txt.gz
Temp
26 25 25 26 27 27 28 27 28 29 30 29 28 28 29 29 29 28 28 27 27 27 27 25 25 25 24 19 17 16 15 14 13 13 13 13 13 13 13 13 13 13 13 13
24 25 27 26 27 28 28 27 27 29 29 28 29 29 29 29 29 29 28 27 26 26 26 24 24 24 22 19 18 16 15 14 14 15 15 14 14 13 14 13 14 14 14 13
24 25 25 28 28 28 28 25 25 26 28 29 29 28 28 29 29 29 29 28 28 27 25 24 24 23 23 19 18 16 15 15 15 17 16 15 15 15 15 14 14 14 13 13
23 23 25 27 28 29 26 26 27 27 27 26 26 25 28 28 28 29 29 28 28 28 26 25 24 23 22 19 18 17 17 17 17 17 17 17 17 16 16 15 14 13 13 13
21 21 25 26 27 28 24 26 26 28 28 25 24 23 24 27 27 28 28 28 28 28 26 25 24 22 21 19 18 18 18 19 18 18 18 17 18 17 16 16 15 14 13 13
22 25 26 28 28 28 26 26 27 28 27 23 22 22 24 25 24 24 27 27 27 27 26 26 22 21 20 19 19 20 19 19 18 18 18 18 17 17 16 16 15 14 14 13
26 26 28 28 27 28 28 27 24 17 18 24 29 27 28 24 27 28 27 27 26 26 25 25 23 22 21 20 20 20 20 19 18 18 17 17 16 15 15 15 14 14 13 13
25 24 27 28 28 22 24 27 20 20 18 24 27 26 27 28 28 28 28 27 26 25 24 24 23 22 21 20 20 20 20 19 18 17 17 16 15 14 14 14 13 12 12 11
23 23 24 28 29 26 25 26 27 25 22 22 25 27 27 28 27 27 27 26 25 24 24 23 23 22 21 20 19 19 19 18 17 17 16 14 14 13 13 12 12 11 10 10
23 19 22 26 27 27 27 28 25 25 22 22 26 27 25 26 26 26 26 25 24 24 24 23 23 22 21 19 19 19 19 17 17 16 14 13 13 12 12 11 11 10 10 9
22 19 21 26 26 26 26 25 26 26 25 22 22 25 28 27 27 26 26 26 24 24 24 23 23 22 21 20 19 18 18 17 16 15 13 13 12 12 11 11 10 10 9 8
27 26 24 25 28 28 27 26 26 22 23 23 22 23 28 27 27 27 26 26 25 25 24 24 23 22 21 20 19 18 18 16 15 14 12 12 11 11 11 11 10 9 8 7
27 25 23 24 26 27 26 26 27 26 24 22 20 23 28 27 27 27 27 26 26 25 25 24 23 22 21 20 18 17 17 15 14 13 11 11 11 12 11 11 10 9 8 7
23 25 24 23 25 26 25 25 26 26 21 22 22 25 27 27 26 27 26 26 26 25 25 25 23 22 20 19 18 17 15 15 13 12 12 12 12 12 11 10 9 8 7 6
24 23 25 26 26 26 25 26 26 25 25 23 23 25 27 28 27 27 27 26 26 26 25 25 23 21 20 19 18 16 15 13 12 12 13 13 12 11 10 9 8 7 6 6
24 23 23 23 24 25 24 24 25 25 26 26 26 26 28 28 26 26 26 25 26 25 25 24 23 22 20 19 17 16 14 13 12 13 12 11 10 10 9 8 7 6 6 6
24 22 21 20 21 21 18 22 23 24 26 26 24 26 27 26 26 25 25 25 24 24 23 23 22 21 20 19 17 15 14 13 12 11 11 10 9 8 8 7 7 6 6 5
23 22 19 18 15 17 23 25 25 24 25 26 26 25 25 23 24 24 24 24 23 23 22 22 21 21 20 18 16 15 13 12 11 10 10 9 9 8 7 7 7 6 6 5
24 20 17 15 19 22 23 24 23 23 23 23 23 23 24 23 22 22 23 22 21 21 22 21 21 20 18 17 15 13 12 11 10 9 8 8 8 7 6 6 6 6 5 5
21 21 18 17 17 16 22 22 23 23 20 22 22 22 22 22 19 20 21 21 21 21 21 20 19 18 16 14 13 12 11 10 9 8 7 6 6 6 6 5 5 5 4 4
16 16 15 16 16 19 23 22 22 19 19 21 21 21 20 20 19 19 19 20 20 20 19 18 16 15 13 12 11 9 7 7 6 6 6 6 6 5 5 5 4 4 3 3
16 17 14 17 14 15 22 21 19 20 21 20 20 20 19 20 19 20 19 18 19 18 15 14 12 9 7 7 6 6 5 6 6 5 4 4 4 4 4 4 4 3 3 3
20 21 19 19 18 21 22 21 21 21 20 19 19 19 19 19 19 19 18 17 16 15 14 12 8 6 5 4 4 4 4 5 5 3 2 2 3 4 4 4 3 3 3 2
22 21 20 20 22 22 22 21 19 18 18 18 19 18 17 16 17 18 16 15 10 8 7 5 4 4 3 4 5 5 5 5 2 2 3 3 4 4 3 3 3 3 3 2
20 21 20 20 21 21 19 17 16 17 17 16 17 15 15 16 15 14 12 8 5 4 3 4 4 4 5 5 4 4 4 3 2 2 3 3 2 2 2 3 3 3 2 1
20 20 18 17 17 17 15 15 15 14 14 14 14 12 11 10 8 5 4 3 3 3 4 4 4 4 4 4 4 4 3 3 3 2 2 2 2 1 1 1 1 1 1 0

GFSCGP_925_temp_045.txt.gz
Temp
19 21 20 22 23 25 25 24 23 24 26 24 24 23 23 23 23 22 22 22 21 21 23 23 23 21 19 18 18 17 16 16 16 15 14 14 13 13 13 13 14 14 14 13
20 18 23 25 25 24 24 24 24 25 26 26 24 24 24 24 23 23 22 21 21 21 22 22 22 20 17 17 16 16 16 15 16 15 15 15 14 13 14 14 14 14 13 13
19 20 23 25 24 24 24 23 24 23 23 25 25 23 24 25 25 24 24 23 23 22 22 21 21 18 16 16 16 16 16 16 15 15 15 14 14 14 13 13 13 13 13 13
21 23 23 24 23 25 23 25 24 24 22 21 24 20 24 24 25 25 24 23 22 21 21 21 21 17 17 16 15 14 15 15 16 15 15 15 14 13 14 14 14 13 13 13
21 21 22 22 23 25 24 24 24 24 24 23 23 19 21 24 24 25 24 22 22 22 21 21 20 18 17 16 16 16 16 16 16 16 16 16 15 15 15 14 14 13 13 13
23 23 24 23 24 24 25 24 24 20 20 20 23 22 20 23 24 24 27 25 23 20 21 21 21 19 17 18 17 16 16 17 17 17 17 16 16 16 15 14 14 14 13 12
23 24 23 24 21 24 23 23 19 17 16 17 23 22 21 24 25 23 24 25 20 20 19 19 19 19 17 17 17 18 17 17 17 17 18 17 16 16 15 14 14 13 12 11
21 21 22 23 24 24 22 22 18 18 16 17 23 22 23 24 24 24 24 22 21 20 19 18 19 19 18 18 19 18 17 17 18 18 17 16 15 15 15 14 13 12 12 11
20 20 22 24 23 24 21 20 23 19 17 15 20 24 24 24 25 22 22 21 19 19 19 18 18 19 18 19 19 19 18 18 18 17 16 15 15 14 14 13 13 12 11 10
22 20 19 22 22 24 23 23 21 19 20 20 21 23 21 22 24 22 21 20 19 19 19 18 17 18 19 19 19 19 18 18 17 17 16 15 14 13 13 12 11 11 10 10
19 20 18 20 21 22 23 22 23 22 18 17 16 19 24 22 22 22 20 20 19 19 18 17 17 18 19 19 19 19 18 17 16 15 14 13 13 12 12 11 10 10 9 9
21 18 17 19 21 23 25 23 21 15 21 18 13 17 24 23 22 22 21 21 20 20 18 18 18 18 18 18 19 18 17 16 15 14 13 13 12 11 11 11 10 9 9 8
23 20 16 20 21 23 24 23 24 22 17 19 14 17 23 24 24 23 21 20 20 20 18 18 18 18 18 18 17 18 17 16 14 13 13 12 11 11 11 10 8 9 8 7
21 22 20 17 21 22 23 23 23 22 14 18 17 20 21 22 22 22 23 23 19 20 20 19 19 19 19 18 17 17 16 15 13 13 12 12 11 11 10 10 9 8 7 7
21 20 23 22 22 23 24 23 23 23 21 18 19 21 21 22 22 23 21 22 24 22 20 19 18 15 17 16 16 15 14 13 13 12 12 12 11 11 9 9 9 7 7 6
21 19 21 21 22 21 20 21 22 21 22 22 22 22 22 23 21 20 21 21 21 19 21 19 16 16 16 15 15 14 13 13 12 12 12 11 10 9 8 7 7 7 6 6
19 18 15 18 17 18 15 19 20 21 21 22 21 20 19 19 19 19 19 19 19 19 18 19 17 17 16 16 14 13 13 13 12 11 10 10 9 7 8 7 7 6 6 6
18 18 12 13 13 14 18 22 22 21 20 19 19 19 19 19 17 17 16 16 17 17 17 17 18 18 16 15 14 13 12 11 10 10 9 8 7 7 7 7 6 6 5 5
18 14 13 12 12 16 19 21 22 20 18 18 18 18 18 19 16 15 17 17 17 17 16 17 16 15 14 13 12 11 11 10 9 8 7 6 6 6 6 5 4 4 4 5
17 15 12 11 12 12 16 21 21 21 15 18 17 16 16 16 12 14 15 16 15 14 13 12 11 11 11 10 11 9 7 6 6 6 5 5 5 4 4 5 4 4 4 4
10 11 11 8 9 12 19 20 21 15 14 17 17 16 16 15 14 15 16 14 13 11 8 7 6 6 6 6 7 5 5 5 5 4 3 4 4 5 4 3 3 4 3 3
13 11 9 11 11 13 19 20 16 15 16 15 16 15 15 15 15 16 14 12 11 8 6 5 4 4 4 5 5 5 4 5 4 4 3 4 4 3 2 3 3 4 4 3
14 14 12 13 12 15 17 15 15 14 14 15 14 13 14 13 14 12 8 7 6 5 4 3 3 3 4 5 5 4 4 4 4 4 3 2 2 3 3 3 3 3 3 3
19 19 15 15 18 17 15 15 15 14 13 13 12 12 13 12 10 8 6 5 4 3 3 3 4 4 4 5 5 4 4 4 4 3 3 3 2 3 3 3 3 3 2 2
15 17 17 16 15 13 13 13 13 12 12 10 9 8 8 7 6 5 4 4 4 4 4 5 4 5 5 4 5 4 4 3 3 3 2 2 2 2 2 2 2 1 1 0
16 16 12 11 13 12 11 11 11 10 9 9 7 5 5 5 4 4 4 4 3 3 4 4 4 4 4 4 4 4 4 3 3 3 2 2 2 1 1 1 1 1 0 0

GFSCGP_925_temp_048.txt.gz
Temp
21 19 19 20 20 22 23 24 23 23 24 22 22 22 21 20 21 20 19 19 19 20 20 20 19 18 17 17 17 18 17 17 16 16 15 15 15 14 14 14 14 13 13 13
20 20 22 21 23 23 24 23 22 23 23 23 21 22 21 21 21 21 21 20 20 19 20 20 19 18 16 16 16 17 17 16 16 17 17 16 15 14 14 13 13 13 13 13
20 22 22 22 23 22 23 22 22 22 23 23 22 22 22 23 22 22 22 22 21 21 20 19 18 17 15 14 16 17 17 17 16 16 16 15 14 13 12 12 13 13 13 13
21 23 23 22 22 23 21 23 23 24 21 21 22 20 21 22 22 22 22 21 21 20 21 19 18 16 15 14 15 15 16 16 16 16 15 15 14 12 13 13 13 13 13 13
20 21 21 22 23 24 21 22 23 24 22 21 21 20 20 21 21 21 22 21 21 20 21 18 18 16 15 14 14 15 16 16 16 15 14 15 14 14 14 14 13 13 13 13
22 21 23 23 23 23 22 23 20 18 19 19 21 20 20 21 23 23 22 21 20 18 19 18 17 16 15 14 15 15 16 16 15 14 15 15 15 15 14 13 13 13 13 12
22 22 22 23 22 22 23 20 17 16 15 17 21 20 20 22 23 23 22 20 19 18 17 16 16 16 14 14 14 16 15 15 15 15 15 15 16 15 15 14 13 12 11 11
20 20 22 22 22 22 21 20 16 20 16 17 20 20 21 22 23 23 22 21 19 17 18 18 16 16 15 15 14 14 15 15 16 16 16 16 16 15 15 14 13 12 11 10
18 20 21 21 22 22 22 20 21 17 16 14 19 22 22 22 23 21 21 19 18 16 17 17 18 16 16 15 15 15 15 16 17 16 16 16 15 15 14 13 12 11 10 9
20 19 19 21 23 23 21 22 20 18 19 19 19 20 19 22 23 22 20 19 17 16 16 15 16 16 16 16 16 16 17 17 16 16 16 15 14 14 13 12 11 10 9 8
19 18 19 19 20 21 21 21 21 19 16 17 15 18 19 21 21 20 19 18 17 16 16 16 15 17 18 18 17 17 17 17 16 16 15 14 13 12 11 11 10 9 8 8
19 17 16 20 22 21 19 19 20 15 20 16 13 17 20 20 20 19 19 19 17 18 17 16 16 16 16 17 17 18 17 17 16 15 14 13 12 11 10 9 8 8 8 7
19 18 16 18 20 20 20 20 21 18 15 17 14 16 21 21 21 19 19 18 18 18 17 17 16 16 16 16 17 17 17 17 16 14 13 12 11 10 9 9 9 8 8 7
19 18 17 16 19 20 21 22 22 19 13 16 16 19 21 21 20 20 19 18 17 18 18 17 16 17 17 16 15 15 15 14 12 12 11 11 11 10 10 9 9 8 7 7
19 19 20 20 21 22 22 22 22 21 19 17 19 18 20 20 21 19 19 21 19 18 17 17 16 14 16 16 16 14 13 12 12 11 11 11 11 10 10 9 7 7 7 6
19 19 21 20 19 20 20 21 20 21 21 20 21 20 16 18 18 17 18 18 17 18 17 17 15 14 14 14 13 12 11 11 11 11 11 10 9 8 8 8 7 7 6 6
18 16 13 17 16 17 14 18 19 20 20 20 18 18 18 16 16 16 15 16 16 15 16 15 14 14 13 13 12 10 10 10 11 10 9 8 8 7 7 7 6 6 5 5
15 15 11 12 12 13 17 19 19 17 17 17 17 17 16 15 14 14 14 15 15 15 14 14 14 13 13 12 11 10 11 10 9 8 7 7 6 6 5 4 5 3 4 5
17 12 12 12 12 15 18 20 18 17 17 17 16 16 16 15 14 14 13 12 12 11 10 9 9 9 10 10 10 9 8 7 6 5 5 5 4 5 5 3 3 4 4 4
14 12 12 10 12 13 15 19 18 17 14 17 15 15 16 15 12 13 12 10 8 7 7 6 6 7 7 7 7 6 5 5 4 4 4 4 5 4 4 3 3 3 4 4
10 10 11 7 10 12 15 18 19 16 14 16 14 14 15 14 12 11 9 7 6 6 5 5 5 4 5 5 5 4 4 4 4 5 5 5 4 3 3 3 3 3 3 3
14 11 9 9 9 14 16 18 17 14 14 13 14 13 12 11 11 10 8 7 5 4 4 4 4 4 5 6 6 5 5 5 5 5 4 3 3 3 3 3 3 3 3 3
15 13 12 12 12 14 14 14 13 13 13 13 11 12 11 9 7 6 5 4 4 3 3 4 5 5 5 5 6 5 4 4 4 4 3 3 3 3 3 2 2 2 2 2
17 15 14 14 13 13 12 12 12 11 9 9 10 10 9 7 6 5 4 4 3 4 4 4 4 4 4 4 4 4 4 4 3 3 3 3 2 2 2 2 2 2 2 2
14 15 13 11 12 12 11 10 10 8 7 6 6 6 6 5 4 4 4 5 4 4 4 4 4 4 4 4 4 4 4 4 3 3 3 3 2 2 2 2 2 1 1 1
14 14 11 10 12 11 9 8 9 8 7 6 5 4 4 4 4 4 3 3 3 3 4 4 4 4 4 4 4 3 3 3 3 3 3 3 3 2 2 2 2 2 1 1

GFSCGP_925_temp_054.txt.gz
Temp
19 18 18 19 19 20 20 20 20 21 23 22 20 19 17 17 17 17 16 15 16 16 17 16 16 16 16 16 16 16 16 16 16 15 14 14 14 14 14 14 14 15 15 14
19 18 19 20 20 21 21 21 20 21 21 21 20 20 18 17 18 18 17 16 16 16 16 16 16 16 16 16 16 16 16 16 16 16 15 15 14 14 13 13 13 14 14 14
18 21 20 21 21 22 21 22 21 21 20 21 20 20 19 18 18 18 18 18 17 17 16 16 16 16 16 17 16 16 16 16 16 16 15 14 13 13 12 13 13 13 13 13
19 20 21 21 21 21 21 21 21 20 20 19 20 19 19 18 18 19 18 17 18 17 17 16 16 16 16 16 16 16 16 16 16 15 15 14 14 13 13 14 14 13 13 13
20 20 20 20 20 21 21 20 21 20 20 19 19 18 18 19 19 18 18 18 18 17 17 17 17 17 16 15 15 16 16 16 15 15 14 14 14 13 14 13 13 13 12 12
19 20 20 21 21 21 21 20 18 17 17 18 19 18 18 18 19 19 19 19 18 17 17 17 18 17 16 16 15 15 15 15 14 14 14 14 13 13 13 13 12 12 11 11
20 21 21 21 21 20 20 18 17 16 15 17 19 18 18 20 20 20 19 19 19 18 16 16 15 15 15 15 14 15 14 13 14 14 13 13 13 13 13 13 12 11 11 11
18 19 20 21 21 20 20 18 16 19 16 17 18 19 20 21 18 18 18 18 18 17 17 17 16 16 14 14 14 14 13 13 13 12 13 13 12 13 13 13 13 12 12 11
17 19 20 20 21 21 20 19 18 15 14 13 16 18 19 20 22 20 19 17 15 14 15 16 16 16 14 14 13 14 13 13 13 13 14 12 13 13 13 13 13 13 11 10
19 19 19 20 20 20 21 19 18 15 18 18 17 18 18 20 20 20 19 19 17 14 14 14 14 15 15 14 14 13 13 13 13 13 13 13 14 13 13 13 12 11 10 9
17 18 19 19 19 20 18 19 17 16 14 16 15 17 17 20 20 21 20 18 17 15 13 13 13 14 14 14 14 14 13 13 13 13 14 13 14 14 13 12 11 10 9 7
18 16 15 18 20 19 19 18 17 14 18 14 12 15 19 18 18 19 19 18 17 15 14 13 13 14 14 14 14 13 13 13 13 13 13 13 13 12 11 10 10 9 8 7
17 16 16 17 18 18 19 18 17 15 13 15 13 16 18 17 17 17 17 17 17 16 14 13 12 13 13 13 13 13 13 13 13 13 12 11 10 9 8 8 7 8 8 7
18 15 17 17 18 18 18 18 17 16 13 15 14 17 18 18 18 17 17 16 15 15 14 13 12 12 13 13 13 13 13 13 12 11 10 9 8 7 8 8 8 8 7 6
18 18 16 17 19 19 19 19 16 17 17 16 18 15 18 17 16 15 14 15 17 15 15 14 13 12 13 13 12 12 12 11 10 9 8 7 8 8 8 8 7 6 6 5
16 17 18 18 18 18 19 19 16 17 18 16 17 17 16 16 15 14 13 14 14 13 12 13 14 13 12 11 10 10 10 10 9 9 7 7 8 8 7 6 6 5 5 5
15 14 13 17 15 17 14 16 17 18 17 17 16 16 15 15 14 13 13 12 11 10 9 9 9 9 10 10 9 8 8 8 8 8 7 8 7 6 6 5 5 5 5 4
14 13 11 11 12 13 18 17 17 16 17 16 15 16 14 13 11 9 8 10 8 7 7 6 6 6 7 7 7 7 7 7 7 6 6 5 5 5 5 5 5 4 4 3
14 11 10 13 12 15 17 16 16 16 16 15 14 12 12 11 12 9 7 6 5 5 4 4 5 5 5 5 6 6 5 5 5 4 5 5 5 5 4 4 4 4 3 3
13 11 12 9 12 13 15 16 15 16 15 14 13 12 12 12 12 11 6 5 4 3 4 3 4 4 4 4 4 4 4 5 5 5 4 4 4 4 4 4 4 3 3 3
10 9 11 6 10 12 14 16 16 15 15 13 13 12 11 12 10 5 4 3 3 3 3 4 4 3 3 4 5 4 4 4 4 4 5 5 4 3 3 3 3 3 2 2
14 12 9 8 9 15 14 15 16 14 13 12 12 11 10 6 5 4 4 3 3 3 3 3 3 4 4 5 5 4 3 3 4 4 4 3 3 3 3 2 2 2 2 2
15 14 13 13 13 14 13 15 14 12 12 12 11 9 8 5 4 4 3 3 2 3 3 3 3 3 4 4 4 3 3 3 3 3 3 2 2 2 2 1 1 1 1 1
14 13 13 14 13 12 11 10 10 11 11 10 9 8 7 5 4 3 3 2 2 3 3 3 3 2 1 2 2 2 2 2 2 2 1 1 0 0 0 0 -0 -1 -1 -1
13 13 12 11 11 11 11 9 8 7 7 7 6 6 5 4 3 3 2 2 2 2 3 2 1 1 -1 -0 -0 -0 0 1 0 -0 -1 -1 -1 -1 -1 -1 -2 -2 -2 -3
12 12 12 12 13 13 12 7 7 7 6 6 5 4 4 4 3 2 2 2 2 2 1 1 -0 -1 -2 -2 -2 -2 -2 -1 -2 -2 -3 -4 -4 -4 -5 -5 -5 -5 -4 -4

GFSCGP_925_temp_057.txt.gz
Temp
19 21 21 22 20 21 21 21 22 22 23 22 22 22 20 17 18 18 18 18 18 19 19 17 16 16 16 15 15 15 15 15 15 15 14 14 14 14 14 15 14 14 14 14
20 21 21 20 20 20 21 22 22 22 22 22 21 23 21 18 18 19 19 19 19 19 19 17 16 16 16 16 15 15 16 16 15 15 15 14 14 14 14 14 14 14 14 14
20 21 19 21 21 21 22 22 21 22 21 21 22 22 21 19 19 19 19 20 20 20 19 18 17 16 16 15 15 15 15 16 15 14 15 15 14 14 13 13 13 13 13 13
20 20 20 20 21 21 21 22 21 21 22 22 21 22 21 20 19 19 20 20 20 19 19 19 18 17 16 16 15 16 16 15 15 15 15 14 14 13 12 11 12 12 12 13
21 20 20 20 21 21 22 21 21 21 21 21 20 22 23 20 21 21 21 21 20 20 20 19 19 18 17 16 15 15 15 15 15 15 14 14 13 13 13 12 13 12 12 12
20 20 20 21 21 20 20 20 19 19 19 21 20 21 23 23 23 22 22 22 20 21 20 20 19 18 18 15 15 15 14 14 14 13 13 13 12 12 12 12 12 12 11 11
20 20 21 21 21 21 20 21 20 20 20 20 19 20 23 22 22 22 23 22 21 21 20 20 19 18 18 16 15 15 15 14 13 13 12 14 14 12 12 13 13 11 9 10
20 20 21 20 22 22 21 21 20 20 20 20 19 21 24 22 22 20 20 20 20 20 20 20 20 19 18 16 15 15 15 15 13 12 12 15 15 12 12 13 13 12 11 10
18 20 20 20 20 22 20 21 20 17 15 18 20 21 23 21 22 21 21 20 20 19 20 20 20 19 18 16 16 15 15 14 13 12 12 14 14 12 12 13 12 11 10 9
19 20 19 20 20 19 21 20 20 18 19 19 20 20 22 23 23 21 22 21 20 18 17 18 19 18 17 16 16 14 14 14 14 13 12 12 13 12 12 12 11 10 9 9
18 20 19 19 20 21 20 20 18 19 18 20 19 21 20 22 22 22 21 20 20 19 18 17 18 17 17 15 15 14 14 14 14 13 12 12 12 11 12 12 11 11 10 10
19 18 18 20 19 19 20 20 20 19 19 16 16 19 20 20 20 19 20 20 20 19 19 18 17 16 16 15 15 15 14 14 14 12 12 12 12 12 11 11 11 10 9 6
18 18 18 19 19 19 20 19 18 17 16 17 18 20 20 19 21 20 20 20 19 19 19 18 17 17 16 15 15 14 13 13 13 12 12 12 11 10 9 8 8 7 6 6
19 17 19 20 21 19 18 18 18 19 18 19 18 21 22 22 21 21 20 18 18 18 18 18 17 16 15 14 13 13 12 12 12 11 11 10 8 7 7 7 7 7 5 6
19 19 17 18 19 19 20 19 18 19 20 20 21 18 21 21 21 19 16 17 16 16 16 16 16 16 15 14 12 11 10 11 10 10 8 7 7 7 6 5 5 6 6 6
16 18 17 18 17 18 19 19 18 18 18 18 19 19 19 18 17 16 15 16 15 14 13 13 14 14 13 12 11 9 9 8 8 8 7 6 6 5 5 6 6 5 5 4
16 15 16 18 16 17 16 18 18 18 18 19 18 20 18 17 16 15 14 13 13 11 11 11 10 10 10 9 8 8 7 7 7 7 6 5 6 6 5 5 4 4 3 3
15 15 14 15 13 16 20 17 18 19 18 18 17 18 17 16 12 11 11 12 10 9 9 8 8 7 7 7 6 6 6 6 5 5 5 5 5 4 4 4 3 3 3 3
15 13 13 15 16 17 18 18 18 19 21 17 18 16 15 13 13 11 8 8 8 7 6 6 6 6 6 6 6 6 6 6 5 4 4 4 4 4 4 4 4 4 4 3
12 13 15 12 16 16 18 18 16 18 18 17 16 15 14 13 16 16 8 7 6 5 5 5 5 5 5 5 6 6 5 5 4 4 4 4 5 4 4 3 3 3 3 2
13 12 15 12 15 15 15 16 16 19 20 16 16 15 14 15 14 10 6 6 5 5 5 4 5 5 5 5 5 5 5 4 4 4 4 4 4 3 3 3 2 2 1 1
15 14 13 12 13 17 15 16 18 18 14 15 14 13 13 8 7 6 6 6 5 5 5 5 4 4 4 4 5 4 4 3 3 4 3 2 2 2 2 1 1 0 0 -0
15 16 16 16 17 16 16 18 15 14 16 13 14 12 9 7 7 6 5 5 5 5 4 4 4 3 3 3 3 3 2 2 2 2 1 1 1 0 0 -0 -0 -0 -1 -1
13 13 15 16 15 15 14 13 12 13 13 12 12 11 9 7 6 5 5 5 5 4 4 3 3 2 1 0 -0 -0 1 1 1 -0 -1 -1 -1 -1 -2 -2 -2 -2 -2 -3
15 14 14 14 14 12 14 12 12 10 9 9 9 9 8 6 5 5 4 4 4 3 3 2 2 1 -1 -1 -2 -1 -1 -1 -1 -2 -2 -3 -3 -3 -3 -3 -4 -4 -4 -5
14 14 14 15 16 16 17 13 10 9 9 8 7 6 6 6 5 5 4 4 3 2 2 1 -1 -2 -3 -4 -4 -3 -3 -3 -2 -3 -4 -5 -5 -5 -5 -5 -5 -6 -7 -7

GFSCGP_925_temp_060.txt.gz
Temp
24 25 25 26 26 24 26 26 26 27 26 26 26 27 28 25 22 24 24 24 23 23 22 20 19 19 19 19 18 18 18 17 16 16 17 17 17 17 16 16 15 14 13 12
24 24 26 25 24 24 25 26 26 26 26 25 27 27 27 26 24 24 25 23 24 24 23 21 20 19 19 20 19 18 18 18 17 17 17 17 17 17 17 16 15 14 13 13
25 25 24 24 25 24 25 25 25 26 26 26 26 27 26 24 24 23 23 24 25 25 24 23 21 20 19 19 19 19 19 18 17 18 17 17 17 16 16 15 13 13 12 13
25 26 24 24 24 25 25 26 25 25 25 25 26 25 26 27 25 24 25 25 25 26 25 25 23 21 20 20 19 19 19 18 18 17 18 17 18 17 17 16 13 14 13 13
24 24 24 24 25 25 25 25 25 25 25 25 25 25 27 26 26 26 26 26 25 25 26 25 25 22 21 20 19 18 19 18 18 17 17 17 17 18 18 15 14 13 12 11
26 24 25 25 25 24 25 24 24 25 25 24 25 25 27 28 28 28 28 27 27 26 25 25 25 24 22 21 20 18 18 18 18 17 16 17 17 17 15 14 13 13 12 11
24 24 25 24 24 24 24 25 23 22 23 23 24 24 27 28 28 27 27 27 28 27 26 26 25 25 23 22 20 19 19 19 18 17 16 16 16 16 14 14 14 13 12 11
24 23 24 25 25 25 25 25 24 22 22 24 23 24 27 27 27 27 26 26 25 26 26 26 26 25 24 23 21 19 19 19 19 17 16 16 15 15 14 14 13 14 12 11
24 24 24 24 25 25 24 24 25 23 20 22 25 26 27 27 27 26 27 26 26 26 26 26 27 25 24 23 21 20 19 19 19 17 16 15 13 13 14 12 12 11 11 11
24 23 24 23 24 24 24 25 23 24 21 22 24 24 26 26 26 27 27 27 27 25 25 25 25 25 24 23 22 20 19 19 19 18 16 14 13 13 12 12 12 10 12 10
25 24 22 22 23 25 23 24 23 24 23 22 22 24 27 27 27 26 26 26 26 26 25 24 24 23 23 22 21 20 19 19 19 18 17 14 13 13 12 12 11 11 11 9
25 24 23 24 23 24 25 25 24 23 22 22 22 23 27 27 26 26 26 25 25 25 25 25 24 23 22 21 21 20 19 19 19 18 16 14 13 12 12 11 10 10 8 7
24 23 22 22 22 23 24 24 25 24 23 23 22 23 27 25 25 26 26 26 25 24 25 25 23 23 22 21 20 20 18 18 18 16 13 12 12 11 10 9 8 7 6 5
22 24 23 22 24 25 23 24 24 24 22 23 23 24 26 27 27 27 26 25 25 24 24 25 24 23 21 20 18 17 15 14 12 12 11 10 10 9 9 8 7 7 6 5
23 23 23 24 25 25 25 25 25 24 24 24 24 25 25 26 27 27 23 22 22 22 22 22 23 22 21 19 17 14 11 11 10 9 9 8 7 7 6 6 5 5 5 4
22 23 23 23 24 24 24 24 25 25 25 24 25 25 27 27 25 23 22 21 21 19 19 19 20 20 18 16 15 13 12 11 10 8 7 6 6 5 5 5 5 5 4 4
21 22 21 22 22 22 19 22 24 24 24 24 24 25 27 25 23 22 21 20 19 17 17 17 17 16 15 14 13 12 11 11 10 8 7 7 7 6 6 5 4 3 3 4
20 21 21 20 16 18 24 23 25 24 25 26 25 25 25 25 23 19 19 19 17 16 15 15 14 13 13 12 11 11 10 10 9 8 8 7 6 5 5 4 4 4 4 3
20 20 18 18 20 23 22 21 22 23 24 26 25 26 25 20 18 16 15 16 15 14 14 13 12 12 11 11 11 10 9 8 7 7 7 6 6 5 4 4 4 4 3 3
18 18 20 17 20 19 23 25 24 24 22 26 25 25 23 19 20 23 14 13 12 12 11 11 11 11 11 10 10 10 9 8 8 7 6 6 6 5 4 4 4 5 5 4
16 16 17 18 19 22 23 22 22 21 23 25 25 24 21 19 21 17 13 12 12 11 10 10 10 10 10 10 9 9 8 7 6 6 5 5 4 5 5 5 4 4 4 3
18 17 16 18 17 18 20 20 22 25 22 24 22 23 20 17 14 13 12 11 11 10 9 10 9 9 9 9 9 8 7 6 6 5 4 4 4 4 4 4 4 4 3 3
18 20 20 19 22 21 21 25 24 22 24 21 22 21 20 14 13 12 11 11 11 10 10 9 9 8 8 8 8 7 6 5 5 4 4 3 3 3 3 3 3 3 2 2
18 17 18 18 23 21 20 22 19 20 20 20 20 19 16 14 13 11 11 10 10 10 9 8 7 6 5 5 5 4 4 4 4 3 3 2 1 2 1 2 1 1 -0 -1
21 18 20 21 22 18 18 19 21 18 17 17 18 18 16 14 12 11 10 10 10 9 8 7 6 5 4 3 2 2 2 3 3 2 1 1 0 0 1 -0 -2 -2 -3 -5
19 20 18 20 23 21 24 21 21 18 17 17 16 15 14 13 12 11 10 10 9 7 7 6 4 3 1 -0 -1 -0 1 1 1 1 -0 -2 -1 -2 -1 -1 -1 -4 -5 -6

GFSCGP_925_temp_063.txt.gz
Temp
26 26 26 28 29 28 27 28 28 29 29 28 28 28 29 28 28 28 27 26 25 25 25 23 22 21 21 20 19 19 19 18 18 19 18 19 19 18 18 19 19 17 16 15
26 25 28 28 27 26 27 27 28 29 28 27 28 28 28 29 28 28 28 27 26 26 25 24 22 21 21 20 20 20 19 19 19 19 19 20 20 19 19 19 19 16 15 14
26 28 28 27 27 26 27 27 26 26 26 28 28 28 29 29 29 28 28 28 26 26 26 25 23 22 21 21 20 21 21 20 20 20 20 20 20 20 19 19 19 16 15 15
26 28 27 27 26 27 26 28 27 27 27 26 26 24 26 29 28 28 27 27 26 27 27 26 24 23 22 22 21 21 21 21 21 20 21 20 20 20 20 19 19 16 15 14
26 27 26 26 27 27 27 27 27 27 27 27 27 27 25 29 29 29 28 27 28 28 28 27 26 24 23 22 22 21 21 21 21 20 20 20 20 20 20 19 19 15 15 14
27 28 27 27 28 27 28 26 27 27 27 24 26 27 26 28 29 30 30 29 29 29 29 28 27 26 24 23 22 21 21 21 21 21 20 20 20 19 20 20 18 16 15 14
26 26 27 27 26 27 26 26 24 23 22 24 26 27 27 27 30 30 30 30 30 29 29 28 28 27 26 24 23 22 21 21 21 21 20 19 19 19 19 19 17 16 15 14
24 24 26 27 27 26 26 26 24 22 23 21 27 26 27 30 30 29 30 29 30 29 29 29 28 28 27 25 24 23 22 21 21 20 20 20 19 19 18 18 15 15 15 14
25 25 28 28 27 27 26 25 27 25 25 24 26 28 29 29 29 29 29 29 29 29 29 29 29 28 27 26 25 23 23 22 22 21 20 19 19 18 18 16 15 14 14 14
27 25 27 27 27 27 26 27 25 25 22 23 26 27 27 28 28 28 29 29 29 29 28 29 29 28 27 27 26 24 23 22 22 22 20 18 17 16 16 15 14 13 12 13
27 26 25 25 25 26 25 25 26 25 23 23 24 26 29 28 28 28 28 29 29 29 28 27 28 28 28 27 26 24 23 22 22 22 20 18 16 14 14 14 13 12 12 11
27 26 24 25 27 28 27 26 26 24 24 25 24 25 29 29 29 29 28 28 29 28 28 28 27 26 26 26 26 25 23 22 22 22 21 16 14 13 13 13 12 12 11 10
26 24 24 25 25 26 25 27 27 26 26 24 22 24 28 29 28 28 28 29 28 28 29 28 27 26 25 24 24 23 22 22 22 21 20 15 13 13 12 12 11 10 9 8
24 25 24 24 25 26 24 26 27 26 24 24 25 26 28 28 28 29 29 29 29 28 28 28 27 26 25 24 23 22 20 18 16 14 12 12 11 11 10 9 8 8 7 6
25 24 25 26 27 27 27 26 26 26 26 24 25 26 28 28 28 29 28 28 27 26 26 27 27 26 24 22 18 14 12 11 11 10 9 8 8 8 7 6 6 5 5 5
25 23 24 24 26 26 26 26 27 27 27 26 27 26 29 29 29 28 27 26 26 24 24 24 25 25 23 20 16 12 10 9 9 8 7 7 6 6 5 5 5 5 4 4
24 23 23 22 25 25 23 25 26 26 27 27 25 27 28 28 28 27 27 26 25 22 22 22 22 21 19 18 15 13 11 10 9 8 8 8 8 7 7 6 5 5 4 5
23 23 23 21 18 20 24 27 27 26 27 27 27 28 28 28 28 28 26 25 22 21 20 19 19 18 17 16 15 14 13 12 11 11 10 9 9 8 7 7 7 5 4 4
22 23 22 20 21 23 25 24 25 25 26 28 27 28 28 27 25 22 22 23 21 19 19 18 17 16 15 15 14 13 13 12 11 10 9 9 8 7 7 6 5 5 4 4
22 22 21 20 20 19 23 26 27 27 24 27 28 27 27 25 22 25 20 20 18 18 17 16 16 15 15 14 13 12 12 12 11 10 9 8 8 7 6 5 5 5 6 7
18 18 18 20 20 22 26 26 27 22 24 28 28 27 27 25 25 23 19 18 17 16 16 15 15 15 14 13 13 12 12 11 9 9 8 7 6 6 7 7 7 6 6 6
18 18 17 19 19 19 24 23 23 25 27 27 27 27 26 24 20 19 18 17 16 16 14 14 14 13 13 12 12 11 10 9 8 8 7 7 7 7 6 6 6 6 6 5
18 21 20 21 22 24 23 25 24 27 26 26 26 27 25 21 19 18 17 16 16 15 14 14 13 12 12 12 11 11 9 8 7 7 6 6 6 6 5 5 5 5 4 3
22 23 20 22 23 24 24 24 24 24 24 26 25 25 24 20 18 17 16 16 15 15 14 13 12 12 11 10 10 9 8 7 7 6 6 5 5 5 4 4 4 3 2 1
21 22 21 21 23 24 24 23 23 25 23 23 23 24 23 20 18 17 16 15 15 14 13 12 11 10 9 8 7 7 6 6 6 5 4 4 3 3 3 2 1 -0 -3 -4
22 21 20 20 22 22 23 24 23 24 24 21 22 22 21 20 18 17 16 15 14 13 11 10 9 8 7 6 5 5 5 5 4 4 3 1 1 1 2 2 -1 -3 -3 -4

GFSCGP_925_temp_066.txt.gz
Temp
25 24 24 26 27 27 28 27 27 28 29 28 28 28 24 22 25 26 26 25 24 24 23 19 19 18 17 17 16 16 16 18 18 18 18 18 17 17 18 18 18 17 16 16
25 23 26 28 28 28 27 27 27 29 29 28 28 28 26 26 28 29 27 26 25 25 24 23 22 20 18 18 18 18 18 18 18 18 18 18 18 18 18 19 18 18 17 16
24 26 28 27 28 26 27 27 26 26 28 28 28 27 28 29 29 29 29 28 26 26 25 23 22 21 20 19 19 19 19 18 18 19 19 19 19 19 19 19 19 18 17 16
26 28 28 28 27 27 26 28 28 28 27 26 27 23 26 28 28 28 29 28 27 27 26 24 23 21 21 20 19 20 19 19 19 20 20 20 20 20 19 19 19 18 17 16
26 27 27 26 27 28 27 27 27 27 27 27 26 24 27 27 28 28 28 28 26 26 26 25 24 22 21 21 20 20 21 20 20 20 20 20 20 20 20 20 19 19 16 16
27 29 28 28 28 28 28 27 27 27 26 24 27 25 25 27 27 29 29 28 27 27 26 26 25 24 23 22 21 20 21 21 21 21 20 20 20 20 20 20 19 17 16 16
26 26 28 28 27 28 27 26 23 23 23 24 27 26 27 26 27 29 30 28 27 28 27 27 26 25 24 23 22 21 21 21 21 22 20 20 20 19 20 20 19 17 16 15
23 23 27 28 27 26 26 26 24 21 18 21 22 25 28 29 30 30 30 30 30 29 28 27 27 26 25 23 22 22 22 21 22 21 21 20 20 20 19 19 19 17 17 16
23 24 28 28 27 27 26 25 27 21 20 20 21 27 29 30 29 29 29 29 29 29 29 28 28 27 26 25 23 22 22 22 22 22 21 21 20 19 19 19 19 17 16 15
25 24 27 28 28 28 27 27 25 25 19 22 26 26 27 28 28 29 29 29 29 29 29 29 28 27 27 26 24 23 22 23 22 22 21 20 20 19 18 18 17 15 14 13
25 25 26 28 26 26 26 25 25 26 26 23 23 24 24 27 29 28 29 29 28 28 28 28 28 29 27 27 26 24 23 23 23 22 21 20 20 19 17 16 15 15 14 13
25 25 24 26 27 28 27 26 26 24 24 24 22 24 25 26 29 29 28 29 29 29 28 27 27 27 27 27 27 25 24 23 23 23 22 21 19 16 15 15 13 13 12 12
24 24 23 23 26 27 26 27 27 27 26 24 21 24 29 29 29 29 28 29 28 28 28 27 26 26 26 26 27 26 24 24 23 22 21 18 14 13 13 13 13 12 12 11
22 25 24 23 24 26 25 26 26 26 22 24 24 25 27 28 27 28 28 28 29 28 28 28 27 26 25 25 25 22 19 18 17 14 13 12 12 12 12 11 10 10 9 8
24 23 25 25 26 26 26 26 26 26 26 24 25 26 27 28 28 29 28 28 27 28 28 27 27 25 25 20 15 14 13 12 11 10 10 9 9 10 9 8 8 7 7 6
22 23 24 23 25 26 26 27 26 26 26 27 27 26 29 29 29 28 28 27 27 27 26 26 26 25 21 16 13 11 10 9 10 9 8 8 8 7 6 6 5 5 5 5
21 21 22 21 24 24 22 25 27 27 27 27 26 27 28 28 28 28 28 28 26 25 24 24 25 22 17 14 12 10 9 9 9 8 7 7 6 6 5 5 5 5 4 4
20 22 21 19 17 19 24 27 27 26 27 28 28 28 28 28 29 28 28 27 25 23 22 22 21 19 16 14 12 11 10 9 9 9 8 8 7 6 6 6 6 5 4 4
20 20 18 18 19 22 24 25 26 25 25 27 27 28 28 29 27 24 25 25 23 21 20 20 19 18 17 15 13 13 12 12 11 10 10 9 9 8 7 6 5 4 4 4
20 20 19 19 19 18 22 25 26 26 22 26 27 27 27 26 22 25 23 22 21 20 19 18 17 16 16 15 14 14 13 12 11 10 9 9 8 7 6 6 5 5 5 5
16 18 18 18 18 21 24 25 25 22 22 26 27 27 27 26 25 22 22 21 20 19 18 17 17 16 15 14 14 13 12 11 10 10 9 8 7 6 6 6 6 6 7 6
16 17 17 17 17 18 24 25 23 24 24 26 26 27 26 21 21 21 20 19 19 18 17 17 16 15 14 14 13 13 11 10 10 9 8 7 7 8 7 6 6 6 6 5
16 19 19 20 20 23 21 23 23 24 24 24 25 26 26 21 20 20 19 18 18 17 16 16 15 14 14 13 13 11 10 9 8 8 8 7 7 7 7 6 6 5 4 4
19 19 17 15 22 23 23 22 23 23 23 25 25 25 25 21 20 19 18 18 17 17 16 16 14 14 13 13 12 10 9 8 8 7 6 6 6 5 5 5 4 3 2 1
21 20 19 18 20 20 21 21 22 22 22 23 23 23 23 21 19 19 18 17 17 16 16 15 13 13 12 11 10 9 8 8 7 6 5 4 4 4 4 2 1 -0 -1 -1
21 21 19 19 22 21 21 20 20 21 22 23 22 22 22 21 20 19 17 17 16 16 15 14 13 11 10 9 8 8 7 7 6 4 3 2 2 3 3 0 -1 -2 -2 -3

GFSCGP_925_temp_069.txt.gz
Temp
21 19 20 20 21 23 23 24 23 25 27 25 24 21 20 20 20 17 17 17 18 17 16 15 14 13 13 13 13 13 13 14 15 15 16 17 17 17 17 17 17 17 17 17
20 20 22 23 24 24 25 24 23 26 26 27 25 23 21 20 19 20 18 18 19 18 17 16 15 15 14 13 14 14 15 15 16 16 16 16 17 17 17 17 17 17 17 17
20 22 23 23 24 24 24 24 23 24 25 25 25 23 21 23 22 21 21 22 21 18 17 17 17 15 15 14 14 14 14 15 15 16 17 17 17 17 17 17 18 17 17 17
21 23 24 24 24 25 24 25 26 25 24 21 23 20 24 24 24 24 24 22 21 19 19 18 17 16 16 15 15 15 16 16 17 18 18 17 17 17 17 17 18 18 18 17
22 23 23 23 25 25 24 26 26 25 23 23 23 20 22 23 24 24 22 22 22 21 20 20 18 17 17 17 16 16 17 18 18 18 17 17 18 18 18 18 18 18 18 17
22 24 24 25 26 26 26 26 25 24 22 19 22 21 19 22 24 25 24 23 22 22 21 20 20 19 18 18 18 18 18 18 18 18 18 18 18 19 19 18 18 18 18 17
22 23 25 26 24 25 25 24 19 18 17 17 23 22 22 24 25 25 24 23 23 23 22 21 20 20 20 18 18 18 18 18 18 18 18 19 19 19 20 20 19 18 16 16
20 20 24 26 25 24 23 22 18 19 17 18 21 21 23 25 25 27 25 25 23 23 23 22 21 20 20 20 19 19 19 19 19 18 18 19 19 20 20 20 19 19 18 17
20 21 26 25 26 25 23 21 22 18 18 16 19 22 25 25 25 26 27 23 23 23 23 23 22 22 21 20 20 19 19 19 20 20 19 18 19 19 19 19 19 19 17 18
22 21 24 25 25 25 24 25 22 19 16 17 20 21 22 22 24 25 25 25 24 23 22 23 23 23 22 21 21 20 20 20 20 20 20 20 19 18 18 18 17 17 16 17
22 21 21 23 23 24 23 23 23 22 19 17 18 19 21 22 25 25 23 23 23 23 24 23 22 23 23 22 21 20 20 20 20 20 20 20 19 19 19 17 16 15 15 14
22 20 19 20 23 26 24 23 22 18 20 19 16 18 24 22 25 23 24 24 23 22 23 24 22 22 22 23 22 21 20 21 20 20 20 20 19 18 18 15 15 14 14 13
20 18 17 20 23 25 24 23 24 23 20 19 15 18 23 23 26 24 23 23 23 23 22 22 22 22 22 23 22 22 21 20 20 19 17 17 16 17 16 14 13 13 13 12
20 20 19 18 20 23 22 23 24 22 17 19 18 21 23 24 25 26 24 24 22 23 23 21 21 21 19 17 13 15 15 19 18 16 12 12 12 13 12 12 12 12 12 11
19 18 19 20 22 23 23 23 23 23 22 19 21 22 23 23 23 24 24 23 23 23 23 22 20 18 15 13 11 11 11 12 12 11 11 10 11 10 10 10 10 10 9 9
19 18 19 19 22 23 22 23 23 24 23 23 23 22 24 24 24 24 24 24 24 22 22 22 19 16 14 12 11 10 9 10 11 10 9 9 9 8 8 8 8 7 7 6
19 18 18 17 20 21 18 21 21 23 24 23 21 22 24 24 25 24 22 23 22 21 21 19 18 16 13 11 11 10 9 8 8 8 8 8 8 7 6 6 6 6 6 5
18 19 17 16 17 17 20 23 23 23 24 24 25 25 24 24 24 23 22 21 20 20 19 16 15 13 12 11 10 10 9 9 8 7 7 6 6 6 6 5 5 5 5 5
18 17 14 16 17 19 21 23 23 22 22 24 24 23 24 24 21 22 21 20 18 17 16 14 14 12 12 11 11 10 9 9 8 8 7 6 6 6 5 5 4 4 4 5
18 16 14 14 16 17 20 21 23 24 18 23 24 23 23 22 18 18 19 17 16 15 16 15 14 13 12 11 11 10 10 10 9 9 8 7 7 6 6 5 4 5 5 5
12 13 13 13 14 16 21 22 23 20 17 22 23 23 23 20 18 18 16 16 16 16 15 15 14 13 12 12 12 11 10 10 9 9 8 8 7 7 6 5 5 5 5 5
14 13 13 13 14 15 21 23 20 19 20 21 22 23 21 19 17 18 17 16 15 14 14 14 13 13 13 13 12 11 10 9 9 8 7 7 7 6 6 6 5 5 5 4
14 14 14 15 15 18 19 19 21 22 21 22 23 21 18 16 17 17 16 15 15 13 14 14 13 12 13 13 12 10 9 9 8 8 7 7 6 6 6 6 5 4 4 3
17 17 15 16 17 15 15 15 18 20 21 22 22 20 17 16 15 15 14 14 13 12 13 14 12 11 12 12 10 9 9 8 8 7 7 7 6 6 5 4 4 3 2 2
15 17 16 15 17 16 17 14 18 18 19 19 19 21 21 16 15 15 13 13 12 13 13 12 11 11 10 10 9 9 8 8 7 6 6 5 5 4 2 2 1 1 -0 0
17 16 14 14 17 16 17 17 18 19 19 18 18 18 21 16 15 14 13 13 12 12 12 11 10 8 8 8 8 8 8 7 5 3 3 3 2 2 1 0 -2 -2 -1 -2

GFSCGP_925_temp_072.txt.gz
Temp
20 18 19 19 18 20 20 20 20 22 24 25 23 19 18 17 18 17 16 16 16 15 14 13 12 12 12 11 12 12 11 12 12 14 14 15 15 16 16 16 16 16 16 16
19 19 21 20 20 20 20 20 20 22 24 25 23 23 18 18 19 18 18 17 16 15 13 13 12 11 11 12 12 12 12 12 12 13 14 14 16 16 16 17 17 17 17 17
19 20 22 21 20 21 21 20 21 22 24 23 23 21 20 20 19 18 19 19 17 16 14 14 13 12 12 11 12 12 13 13 13 14 15 15 16 16 16 17 17 17 17 17
19 21 21 20 21 21 20 22 23 23 22 21 22 19 20 20 20 20 19 18 18 17 16 15 14 13 12 13 13 13 14 14 14 14 15 16 16 16 16 16 17 17 17 17
19 20 20 20 22 23 22 23 23 24 22 21 21 19 19 21 21 20 20 19 19 18 16 15 15 14 13 13 13 14 14 14 14 15 15 16 15 16 16 17 17 17 17 17
20 22 21 22 23 23 24 23 23 20 20 19 21 19 19 19 22 22 21 21 20 18 17 16 16 15 15 14 14 14 14 14 15 15 16 15 16 17 16 16 17 17 17 17
20 20 22 22 21 22 23 21 19 18 17 17 21 20 20 22 22 22 22 21 20 19 17 17 16 16 15 15 15 14 14 15 15 15 15 16 17 17 17 17 17 17 17 16
18 18 21 22 22 22 22 21 18 19 17 17 19 20 21 23 24 23 22 22 21 19 19 18 17 17 16 16 15 15 15 15 16 16 16 17 17 16 17 17 17 17 17 16
18 18 22 24 24 24 22 20 21 17 17 16 18 20 21 23 24 23 22 22 21 20 20 19 19 18 18 17 16 16 16 16 16 16 17 17 16 16 16 16 17 18 17 16
20 19 22 23 24 24 22 22 19 18 17 17 18 19 19 23 25 24 22 19 21 21 20 20 19 19 19 18 17 17 17 17 17 17 17 17 17 17 17 16 17 17 17 16
20 19 19 22 22 21 22 22 21 20 18 17 17 18 19 21 23 23 21 20 20 20 20 20 20 20 19 19 19 18 17 18 18 18 17 17 17 17 17 16 16 16 14 14
20 18 17 20 22 22 21 22 21 17 18 17 15 18 22 20 23 22 21 21 20 20 19 20 21 21 20 20 19 19 18 18 18 17 18 17 17 16 15 14 15 14 14 14
18 17 17 19 21 22 21 22 22 20 18 18 16 18 22 21 22 22 20 20 21 21 20 18 18 19 21 21 20 20 19 18 18 18 18 17 17 14 15 14 15 15 15 15
19 17 19 18 19 20 20 22 23 21 16 18 17 21 22 22 22 23 20 21 20 20 20 19 18 16 15 17 20 20 19 18 18 18 17 14 15 14 14 14 14 14 13 11
18 17 18 19 20 20 20 20 22 22 20 20 21 20 22 21 21 22 21 22 20 20 20 19 17 14 12 12 13 16 16 17 18 16 13 12 12 13 12 12 12 12 11 11
17 17 17 17 19 19 19 20 22 21 21 21 20 20 22 22 20 21 22 22 20 21 20 19 17 14 12 11 11 11 11 11 12 10 10 11 11 10 11 11 11 11 10 10
17 16 15 15 18 19 16 17 19 20 20 21 20 21 23 23 22 21 21 21 20 19 18 17 17 15 12 11 10 10 10 10 10 10 10 10 10 10 9 9 9 8 8 7
15 16 14 12 16 14 17 20 20 19 21 21 22 22 21 22 21 21 20 20 19 18 17 16 15 12 10 10 10 10 10 10 9 8 8 8 8 7 7 7 7 6 6 6
14 15 13 14 15 16 18 20 20 20 21 23 21 22 22 23 21 22 20 19 20 17 15 14 13 11 9 9 9 9 9 8 8 7 7 6 6 6 5 5 5 5 5 5
14 13 15 12 14 13 17 20 21 22 18 21 22 22 23 19 18 18 20 17 16 14 13 12 11 10 10 9 9 8 8 8 8 7 7 6 6 5 5 5 5 5 5 5
11 11 12 10 12 14 17 20 21 19 17 20 22 21 21 19 18 19 16 16 15 14 13 12 11 11 10 10 9 9 8 8 8 7 6 6 6 6 7 5 4 4 4 4
15 13 12 11 12 14 18 19 19 17 18 19 20 21 21 19 18 16 15 14 13 13 12 12 11 10 10 10 10 9 8 8 8 7 7 7 6 6 5 5 4 4 4 3
13 14 13 13 13 16 15 16 16 16 17 18 19 18 19 17 16 15 15 14 13 12 11 11 10 10 10 10 10 8 7 8 8 7 6 6 6 5 5 4 4 3 3 2
15 15 14 15 16 16 16 17 15 15 15 17 17 19 18 17 15 15 13 12 11 11 11 11 10 9 9 10 9 8 8 8 8 7 6 6 5 4 4 4 4 3 2 1
13 15 15 14 16 16 15 16 16 16 15 16 17 18 19 17 16 14 13 12 12 10 11 11 10 8 7 8 8 8 8 8 6 5 4 3 3 3 2 1 1 1 0 1
14 14 13 12 16 16 16 15 15 15 17 17 16 17 19 16 14 13 11 10 11 9 9 8 6 5 4 5 5 5 6 7 5 3 2 2 1 0 -1 -1 -2 -2 -2 -1

GFSCGP_925_temp_075.txt.gz
Temp
18 17 17 18 18 19 19 19 18 19 21 22 20 20 19 16 15 15 15 15 15 15 13 13 13 12 12 12 12 12 12 11 11 12 13 14 14 15 15 16 16 16 16 16
18 17 20 19 18 19 18 18 18 19 21 21 20 21 19 16 17 17 16 15 15 14 14 12 11 12 11 11 12 12 11 12 12 13 13 14 15 15 15 16 16 16 16 16
18 19 20 20 19 19 18 18 18 19 20 21 21 21 20 19 18 18 17 17 15 14 14 13 11 11 12 11 12 12 11 12 12 13 13 14 14 15 15 15 16 16 16 16
17 20 19 19 19 19 18 20 20 20 19 19 21 18 19 18 18 18 18 16 15 14 14 13 12 10 11 11 11 12 12 12 12 13 13 14 14 15 15 16 16 16 16 16
17 18 19 19 19 19 19 21 20 20 19 20 20 18 18 19 19 19 20 18 16 15 14 13 13 12 11 11 11 12 12 12 12 12 13 14 14 15 15 16 16 16 16 16
18 19 19 19 21 20 22 21 21 19 18 17 19 18 18 19 20 21 20 20 18 16 14 14 14 13 12 12 12 12 12 12 13 13 14 14 15 15 15 16 16 16 16 17
18 18 20 21 19 20 20 20 17 17 17 17 20 18 18 20 20 21 21 19 19 17 15 14 14 14 13 12 12 12 13 13 13 14 14 14 15 15 16 16 16 16 16 16
17 16 19 19 20 19 19 19 16 19 17 17 18 18 20 21 21 20 21 21 20 17 16 15 15 15 14 13 13 13 13 13 13 14 14 15 15 16 16 16 16 16 16 17
16 17 20 20 21 22 19 18 21 16 16 15 17 19 20 21 21 20 20 19 18 18 17 16 16 15 15 14 14 13 14 14 14 14 14 14 15 15 14 15 15 16 16 16
18 17 20 21 21 21 21 20 19 17 17 17 17 18 19 21 21 21 19 18 19 19 18 17 17 16 15 15 15 14 14 14 14 14 14 14 14 15 14 15 15 16 15 15
17 17 18 20 20 19 20 20 19 18 16 17 16 17 18 20 20 21 19 18 18 19 18 18 17 18 17 16 15 15 15 14 15 15 15 15 15 15 15 15 15 15 15 14
17 16 17 18 21 22 21 20 19 16 17 16 14 17 20 19 20 21 20 18 18 19 19 19 18 18 18 17 17 16 15 15 15 15 16 15 17 16 16 16 16 16 14 14
16 15 15 17 19 20 20 19 20 19 17 15 15 17 21 20 20 20 20 19 18 19 19 19 19 19 18 18 18 17 16 16 16 15 16 15 15 15 15 15 16 15 14 14
15 16 17 17 18 19 19 20 20 20 16 17 17 20 21 22 21 21 20 19 19 18 18 19 19 18 19 19 18 18 17 17 16 16 15 15 16 16 15 16 16 14 14 14
16 16 17 18 20 19 19 19 19 18 20 19 19 19 21 21 21 21 20 19 19 18 18 17 17 15 14 16 18 18 18 17 16 15 15 15 15 13 15 14 13 13 13 12
14 16 17 17 18 20 19 19 18 18 19 19 20 19 20 21 20 20 20 20 20 19 19 17 16 14 13 13 13 14 14 16 16 15 13 12 13 12 13 13 13 12 12 11
13 13 14 15 17 17 15 16 19 18 18 18 19 19 21 20 20 20 20 19 20 19 19 16 17 15 13 12 12 12 11 12 13 11 10 10 11 11 11 11 11 10 9 9
12 13 12 13 15 13 17 18 19 19 19 19 19 20 20 20 22 20 19 20 18 18 18 17 17 12 12 11 10 10 10 11 10 10 9 10 9 9 8 8 8 8 7 7
13 13 12 12 13 16 17 18 18 17 18 19 19 19 20 20 20 20 19 17 18 17 17 14 14 12 11 11 9 10 9 9 9 8 8 8 8 8 7 7 6 6 6 6
12 13 12 11 13 12 15 19 20 19 15 19 20 20 19 19 18 18 19 18 16 15 12 11 10 10 10 9 10 10 9 9 8 8 8 8 7 7 7 6 6 5 5 5
10 10 11 12 12 13 15 18 19 16 15 18 19 21 19 18 17 18 18 16 14 13 12 11 10 9 9 9 9 9 9 8 8 8 7 7 7 6 6 5 5 5 4 4
13 11 9 10 11 13 16 17 18 16 17 19 17 19 18 16 16 17 16 14 13 11 10 10 9 9 8 8 9 8 8 8 8 7 6 6 6 5 5 5 4 4 3 2
12 13 12 14 13 15 15 18 16 16 16 17 17 16 16 16 16 14 14 13 12 11 10 9 9 8 8 8 9 7 7 7 7 6 6 5 5 4 4 4 3 3 3 1
13 14 13 14 16 15 16 15 15 15 16 16 16 17 16 17 16 15 12 11 10 10 9 9 9 8 7 8 8 8 7 7 6 5 4 4 4 3 3 3 3 2 1 -1
12 14 14 14 14 15 15 14 16 14 15 16 17 17 16 15 16 14 12 11 10 9 9 9 8 7 6 7 6 6 6 7 5 4 3 3 3 3 1 1 0 1 -0 1
10 11 12 13 15 15 15 15 15 15 16 17 16 16 17 16 16 12 10 9 9 8 7 5 4 4 4 5 5 5 6 7 5 2 0 -0 -1 -2 -2 -3 -4 -3 -2 -1

GFSCGP_925_temp_078.txt.gz
Temp
16 15 15 17 16 18 18 18 18 17 19 20 19 17 19 18 15 14 14 14 14 14 13 13 13 12 12 12 12 12 12 11 11 12 12 12 13 13 14 15 16 16 16 16
16 16 18 18 17 17 18 18 18 18 19 19 18 19 19 17 16 15 14 14 14 14 13 14 13 12 12 12 12 12 12 11 12 12 12 12 13 13 14 15 15 15 16 16
17 18 18 18 17 17 17 17 18 18 18 19 19 18 19 20 16 17 16 15 14 14 15 14 13 13 12 12 12 12 12 12 11 12 12 13 13 13 14 15 15 15 16 16
16 19 18 18 18 18 17 18 19 18 18 17 19 17 18 19 18 18 17 15 14 14 14 14 13 13 12 12 12 12 12 12 11 12 12 13 13 13 14 15 16 16 16 16
16 17 17 17 18 18 18 19 18 18 17 18 18 16 17 19 20 19 18 16 14 14 14 13 12 12 12 12 11 11 12 12 11 12 13 13 14 15 15 15 16 16 16 16
16 18 17 18 19 19 20 19 19 18 16 15 18 17 17 18 20 21 20 18 15 14 14 13 13 11 11 11 11 11 11 12 11 12 12 13 14 14 15 15 15 15 15 16
17 17 19 20 18 18 18 18 16 16 15 16 18 17 20 20 19 19 20 19 17 15 13 13 12 11 10 10 11 11 11 11 12 12 12 13 14 14 15 15 15 16 16 16
16 16 17 18 18 18 17 17 15 18 16 17 17 18 19 20 20 19 19 19 17 14 14 14 13 13 11 11 11 11 11 11 12 12 12 13 13 14 14 15 15 15 16 16
15 15 18 19 19 20 18 17 18 16 15 15 16 18 19 21 20 20 18 18 17 14 14 14 14 14 13 12 11 12 12 12 12 12 12 12 13 13 14 14 15 15 15 15
17 16 17 19 19 20 19 18 17 15 16 16 17 17 18 20 21 20 20 18 17 16 14 14 14 14 14 13 12 12 12 12 13 13 13 13 13 13 14 14 15 15 15 16
16 16 17 19 18 18 18 19 19 18 16 17 16 17 17 20 19 18 18 18 17 16 15 15 15 15 14 14 13 13 13 13 13 13 13 13 14 14 15 15 16 16 16 16
16 14 14 17 19 19 19 18 19 17 17 15 15 19 20 19 18 19 18 19 17 16 15 15 15 15 14 14 14 13 13 13 13 13 13 14 15 16 16 15 15 14 14 15
14 13 14 16 18 18 19 19 19 18 15 15 16 18 19 21 21 20 19 18 18 17 16 15 15 15 15 15 14 14 14 13 13 13 13 14 14 14 15 14 14 14 14 14
13 13 14 15 17 17 18 19 19 19 15 15 15 19 20 21 20 20 20 18 17 16 16 15 15 15 16 16 15 15 14 14 14 13 13 14 13 14 14 13 14 14 14 14
12 12 13 15 17 18 19 18 19 18 17 17 19 18 21 20 21 21 20 20 19 18 17 16 15 15 15 15 16 16 15 14 14 13 13 14 14 14 14 14 14 13 13 13
12 11 12 14 16 17 17 18 17 17 17 18 18 17 20 19 19 19 20 20 19 18 17 16 15 15 14 14 15 16 16 15 14 13 13 13 13 13 13 13 13 13 12 12
11 10 11 15 16 17 15 16 17 18 17 18 16 18 19 19 19 18 19 18 19 18 18 18 17 17 16 14 14 13 13 14 14 13 13 12 11 11 12 12 12 12 12 12
11 10 10 11 13 13 16 17 19 18 18 17 18 18 19 20 19 18 18 19 17 18 18 17 17 15 12 13 12 11 11 11 11 11 11 10 11 11 11 11 11 10 9 9
12 12 11 12 12 13 16 17 17 16 16 17 17 18 19 19 17 18 17 17 19 18 19 17 17 12 11 11 11 11 10 10 10 9 9 10 10 10 10 8 8 8 7 6
13 12 12 11 13 13 14 16 19 18 14 18 18 17 17 18 17 17 19 18 16 15 14 11 11 11 10 10 10 10 9 9 9 9 9 9 9 8 7 7 6 5 5 4
11 10 12 11 12 13 14 16 17 15 15 18 19 18 17 16 16 18 15 16 15 13 10 10 10 10 10 10 10 9 9 8 9 8 8 7 7 7 7 6 5 4 4 4
11 10 10 11 11 13 16 17 16 14 17 17 16 16 16 15 14 15 14 14 14 11 10 9 9 9 10 10 10 9 8 7 8 7 7 6 6 5 5 5 4 3 3 2
11 11 12 12 12 14 14 15 15 15 15 16 16 16 15 16 15 14 13 12 11 10 10 9 9 8 8 9 9 8 7 7 6 6 5 5 4 4 4 4 3 2 1 0
12 12 12 13 14 14 14 14 15 14 15 16 16 15 15 17 15 13 11 10 9 9 8 8 8 8 7 7 8 7 7 7 6 4 4 4 4 3 3 3 2 2 1 0
10 12 11 11 13 12 14 14 14 15 14 14 15 16 16 16 15 13 10 9 9 8 7 7 7 6 5 6 5 6 6 7 5 4 3 3 2 2 1 -0 -0 -0 -1 0
10 9 9 8 10 8 10 13 14 13 14 14 15 16 15 13 11 9 8 7 7 6 5 4 4 3 2 3 3 3 4 5 3 -0 -1 -2 -2 -3 -4 -4 -5 -4 -3 -2

GFSCGP_925_temp_081.txt.gz
Temp
16 17 17 19 19 20 20 20 20 21 20 21 22 21 23 23 18 18 18 18 17 16 17 16 13 12 12 12 12 12 11 11 11 12 12 12 12 13 13 14 14 15 15 15
16 17 18 19 18 19 20 20 20 20 21 20 22 22 23 22 22 20 19 18 18 18 15 15 14 12 12 12 12 12 12 11 12 12 12 12 12 12 13 13 14 14 15 16
18 18 19 19 18 18 19 19 20 20 20 21 20 21 22 23 20 19 19 20 19 19 16 15 14 12 12 12 12 12 12 11 11 12 12 12 12 12 12 13 14 15 15 16
17 19 18 18 19 19 19 20 19 19 19 20 20 21 22 24 23 21 20 18 19 18 18 17 15 13 12 12 12 12 12 12 11 12 12 11 12 12 12 13 15 15 16 15
17 17 18 18 18 19 19 20 19 20 19 19 21 20 21 20 23 25 24 20 19 19 18 17 15 14 13 13 12 12 12 12 11 11 12 12 12 13 13 13 13 13 15 15
17 18 18 19 19 19 20 20 19 18 19 18 20 20 22 23 24 24 24 23 19 19 18 18 16 14 13 13 12 12 12 12 12 12 12 12 13 13 13 13 14 13 14 15
17 18 18 19 18 18 19 19 18 18 17 19 20 19 22 22 22 23 25 25 21 18 18 17 16 13 12 12 11 11 11 12 12 12 12 12 13 13 14 14 14 14 13 13
16 16 18 19 20 19 19 19 18 18 19 20 18 20 23 23 23 22 22 23 21 18 18 18 17 15 13 11 11 11 11 12 12 12 12 12 12 13 13 13 14 14 14 15
16 16 18 19 19 21 18 18 20 18 16 18 20 20 22 23 22 23 23 22 21 19 18 18 17 16 15 13 11 11 12 13 12 12 12 12 12 13 13 14 15 15 15 16
16 16 18 19 19 20 20 20 18 18 18 18 20 20 23 23 24 23 22 22 21 19 18 18 17 16 15 14 13 12 12 13 12 12 12 12 12 12 13 13 14 15 15 15
16 16 17 18 18 19 19 19 19 20 19 20 20 21 21 23 23 22 21 21 21 19 18 17 18 17 16 15 14 13 13 13 13 12 12 12 12 12 13 13 14 15 15 15
13 14 15 17 19 19 20 20 20 19 18 18 19 21 21 22 22 20 22 21 21 20 19 18 17 17 16 15 14 14 14 14 13 12 12 12 12 13 13 14 15 14 14 14
13 13 14 16 18 19 19 19 20 20 18 20 19 21 21 20 21 22 22 23 22 20 18 18 17 17 17 16 15 15 14 14 13 12 12 12 13 12 13 15 13 13 13 13
13 12 12 14 15 16 18 19 19 20 18 19 19 21 22 22 22 23 21 22 22 20 19 19 18 18 17 16 16 15 14 14 13 13 13 13 13 13 15 14 13 13 13 13
13 13 13 13 14 15 16 18 20 19 20 19 20 21 22 22 23 23 21 21 22 22 20 19 19 18 18 16 15 15 15 14 14 13 13 14 14 14 15 14 13 13 14 14
13 11 11 12 14 15 15 18 19 19 19 19 19 19 21 22 22 22 22 20 22 22 21 20 19 18 17 16 16 15 14 14 13 13 13 14 14 14 14 13 12 12 13 13
10 10 11 13 13 12 15 17 18 19 19 20 19 20 21 21 20 21 21 19 20 21 21 20 20 19 18 17 15 15 15 14 13 13 13 13 13 13 13 12 11 11 12 12
11 11 10 12 11 13 17 17 19 19 20 19 19 20 21 21 21 20 21 20 20 20 20 20 19 19 17 15 15 14 14 14 14 14 14 13 12 11 11 11 11 12 12 11
11 11 10 11 12 11 15 17 18 18 19 19 19 20 20 21 19 21 20 19 18 19 19 20 20 18 14 13 12 12 12 12 12 12 11 11 10 11 11 10 10 9 8 7
10 11 11 11 12 12 14 16 18 18 17 18 18 18 18 18 19 19 17 17 17 17 16 17 16 14 13 12 12 11 11 10 10 10 10 11 11 10 9 9 7 6 6 5
10 11 11 12 12 14 15 16 17 17 18 17 18 18 17 18 19 18 15 15 15 14 13 11 12 12 12 11 11 11 10 9 9 9 9 9 9 8 7 6 5 5 4 3
12 11 11 12 12 13 15 16 16 17 15 16 17 17 17 16 15 16 14 13 12 11 10 11 11 10 10 10 10 10 9 8 7 7 7 6 6 5 5 5 4 3 3 1
12 12 13 13 14 14 14 16 16 15 15 17 16 17 17 16 15 16 14 11 10 10 9 9 9 9 9 9 9 7 6 7 6 6 5 5 5 4 4 4 2 1 0 -1
12 12 13 13 14 13 14 15 14 15 15 16 15 16 16 15 14 14 12 10 9 9 9 8 7 7 6 7 7 6 6 6 5 4 3 3 3 2 2 2 1 0 -0 -1
12 12 12 12 13 13 14 14 12 12 11 13 15 15 15 15 13 12 10 9 8 7 7 7 6 5 5 5 5 5 4 4 3 2 1 -0 -1 -1 -1 -2 -1 -1 -1 -0
10 11 11 12 10 9 11 11 10 9 10 12 14 14 11 12 10 8 7 6 6 5 4 3 2 1 1 2 2 2 3 4 1 -1 -1 -2 -3 -3 -3 -4 -4 -3 -2 -2

GFSCGP_925_temp_084.txt.gz
Temp
20 20 21 22 22 24 25 24 25 27 26 24 25 26 28 29 28 27 26 25 24 24 23 21 17 15 15 14 12 12 12 12 12 12 12 12 12 11 12 13 14 15 15 13
19 19 23 23 23 22 23 23 24 26 25 24 25 26 28 28 29 28 28 26 26 24 23 21 17 15 14 15 13 12 12 11 12 12 12 12 12 12 13 13 14 13 12 13
19 22 22 22 21 21 22 23 24 24 25 25 24 25 27 28 28 27 27 27 27 26 24 21 19 16 15 15 14 12 11 12 12 12 12 12 12 12 12 13 13 13 14 14
18 20 21 21 21 22 21 24 23 23 23 23 24 24 28 27 28 28 28 26 27 26 25 22 20 17 16 15 14 13 12 12 12 12 12 12 12 12 12 13 13 13 13 14
20 19 19 20 21 22 21 23 23 23 23 23 24 23 26 27 27 28 29 28 27 26 25 24 21 18 17 16 15 13 12 12 12 12 12 12 12 13 13 13 13 14 14 14
19 20 20 20 22 22 22 22 22 22 22 21 23 24 26 28 27 28 29 29 28 27 26 25 22 18 18 16 14 14 13 12 12 12 12 12 12 12 13 13 14 15 15 15
18 19 21 21 21 22 21 22 21 21 21 22 25 24 25 28 28 28 28 29 28 27 26 25 23 20 18 16 14 14 13 13 12 12 12 13 13 13 13 13 14 15 16 17
18 18 19 20 21 21 21 22 23 21 22 24 24 23 25 28 29 29 28 28 28 26 25 25 24 22 18 16 15 14 13 13 13 12 13 13 14 13 13 14 14 15 16 16
19 19 21 21 22 23 22 21 24 22 22 20 24 25 26 27 27 28 28 28 28 27 26 25 24 22 19 17 16 14 14 14 14 13 14 14 14 15 15 15 14 15 16 16
19 18 21 21 21 22 23 24 20 21 19 20 24 24 25 26 27 28 28 28 28 28 26 26 25 22 20 18 16 14 14 15 16 14 14 15 15 15 15 15 15 16 16 15
18 18 20 20 20 20 20 20 21 23 22 21 22 25 27 26 27 27 27 27 27 26 26 25 25 23 21 19 17 15 16 17 17 16 15 15 15 15 15 15 15 15 15 15
16 17 17 19 21 22 22 22 22 21 22 22 22 23 26 26 27 26 27 27 26 25 25 25 24 24 22 20 19 17 17 18 17 16 16 16 15 15 15 15 15 15 15 15
16 14 17 18 20 21 20 21 21 22 22 21 21 23 27 27 27 27 27 27 27 25 25 25 24 23 23 21 20 19 18 17 17 16 16 15 15 15 15 15 15 15 15 16
15 16 14 16 16 17 17 19 21 21 20 20 22 23 25 26 26 27 27 27 28 27 25 24 24 23 23 22 21 20 19 18 17 16 16 15 15 15 15 15 15 15 15 15
15 15 16 17 17 18 18 18 19 20 22 21 22 23 24 25 26 27 27 26 26 27 26 24 24 24 23 22 21 20 20 18 17 17 16 16 15 15 15 15 15 14 15 15
14 13 14 14 16 18 17 18 19 20 21 22 23 23 25 26 26 26 26 26 25 26 25 25 24 24 23 22 22 21 20 19 18 17 17 17 16 16 16 16 16 15 14 15
12 12 11 14 17 16 16 18 19 21 22 22 21 23 25 24 25 25 26 26 25 25 24 23 24 24 24 22 21 21 20 19 18 18 17 17 17 17 17 16 16 16 14 14
11 13 12 13 14 14 17 15 17 20 22 23 23 23 24 25 26 26 24 24 23 22 22 22 23 24 24 23 21 21 20 19 18 18 18 17 17 17 17 17 17 15 12 11
13 13 12 12 15 16 14 14 14 17 21 23 23 24 24 24 24 24 22 21 21 21 21 22 21 22 22 23 23 21 20 19 18 18 18 17 17 16 15 13 11 10 11 10
14 13 13 13 13 15 16 16 15 17 18 21 21 21 21 22 21 23 20 20 20 20 19 17 15 18 19 18 19 20 20 19 19 18 17 15 13 11 11 10 10 8 8 6
12 11 11 13 12 16 17 17 17 14 14 17 18 21 21 21 20 20 19 19 18 17 16 14 14 16 18 16 17 18 18 17 15 12 11 10 10 10 9 8 7 6 5 3
10 12 12 12 12 14 17 18 15 13 16 18 17 19 19 20 21 21 18 17 16 14 12 13 13 12 13 15 15 14 12 9 8 7 7 7 7 7 6 6 4 3 2 0
14 13 11 14 16 16 16 15 16 16 16 16 17 19 19 20 20 20 17 15 12 11 10 10 10 9 10 11 11 8 7 6 6 6 4 4 4 4 3 3 1 0 -0 -1
16 16 15 15 16 16 15 15 13 14 14 15 16 18 19 19 20 18 15 13 12 9 9 8 7 6 6 6 6 5 5 5 4 3 2 2 1 1 1 0 0 -1 -1 -2
16 15 16 16 16 16 18 15 12 12 13 13 15 17 18 18 18 16 13 10 9 8 7 6 5 4 4 4 4 4 4 4 2 1 -0 -1 -2 -2 -2 -2 -2 -2 -2 -2
16 14 14 15 10 11 14 12 11 11 11 10 12 15 13 15 13 11 9 7 6 5 3 2 2 1 1 1 2 3 3 2 1 -0 -1 -2 -2 -3 -3 -4 -4 -4 -3 -3

GFSCGP_925_temp_087.txt.gz
Temp
21 21 22 24 24 25 25 26 27 29 30 28 28 28 29 31 31 31 30 30 30 29 29 26 23 21 20 19 15 13 12 12 12 12 12 11 11 11 11 12 12 12 12 13
23 21 24 25 25 24 24 25 25 27 28 28 27 27 29 30 31 31 31 31 30 29 28 26 23 20 19 18 16 13 12 12 12 12 12 12 11 11 11 11 12 13 13 14
22 24 25 23 23 21 23 24 24 25 28 29 27 27 28 30 30 31 31 31 31 30 28 26 24 20 17 18 16 14 13 13 13 12 12 11 11 11 11 11 13 14 14 15
23 24 24 23 23 23 22 25 24 25 25 25 28 26 28 30 31 31 31 30 30 31 29 27 24 21 18 18 17 15 13 13 13 12 12 12 12 12 12 12 13 13 14 14
22 22 22 21 23 23 23 25 24 24 25 25 26 26 27 29 30 30 31 31 30 30 29 28 25 23 21 19 17 15 13 13 13 12 12 12 12 13 13 13 14 14 13 14
21 24 22 23 22 22 23 23 24 24 24 23 25 26 27 29 30 30 31 31 31 31 30 29 26 24 22 19 17 15 14 13 12 12 12 12 12 12 13 13 13 13 13 14
19 21 22 22 21 22 21 22 21 22 22 23 27 27 27 30 30 31 30 31 31 31 30 29 27 25 23 20 18 15 14 13 12 12 12 12 12 12 13 13 13 13 13 13
19 20 21 23 22 22 22 22 21 21 23 25 28 26 28 30 31 31 31 31 31 30 30 29 28 25 23 21 18 15 15 14 13 12 13 13 12 13 13 13 13 13 14 14
21 21 24 22 23 23 23 21 23 23 24 23 25 27 29 29 29 30 30 30 30 30 30 29 28 26 23 21 19 16 15 15 13 13 13 13 13 13 14 13 13 14 14 15
20 19 23 22 23 22 21 25 21 23 21 21 24 26 27 28 28 29 29 30 30 31 30 29 28 26 24 22 20 18 16 15 14 14 13 13 14 14 14 14 14 15 15 16
20 19 21 22 21 22 21 22 23 23 23 22 23 26 29 29 29 29 29 29 29 30 30 29 28 27 25 22 21 19 18 17 17 14 14 14 14 15 15 15 15 15 15 16
18 18 19 21 23 24 24 23 23 21 22 24 24 24 29 28 29 29 29 28 28 28 30 30 29 28 25 23 22 20 18 18 19 17 16 15 15 15 15 16 16 15 16 16
17 17 17 19 21 22 22 22 23 23 23 22 22 24 28 29 28 28 28 29 29 28 28 28 28 27 26 24 22 21 19 19 19 19 18 17 16 16 16 16 16 16 16 16
15 17 17 17 17 20 20 22 22 22 22 22 22 24 26 27 28 28 28 29 29 29 28 28 27 27 26 25 23 22 20 20 20 19 19 18 18 17 17 16 16 16 16 16
16 15 17 18 19 19 20 20 21 21 21 21 22 24 25 26 27 27 28 29 28 28 29 28 27 27 27 25 24 23 22 21 20 20 19 19 18 18 17 17 17 16 16 16
15 15 16 17 18 19 19 20 21 21 22 22 22 23 26 27 27 27 28 28 28 28 28 28 27 27 26 26 24 24 23 21 20 20 19 19 18 18 18 17 17 17 16 16
14 14 13 14 18 18 17 20 21 21 21 21 22 23 25 26 26 26 26 27 27 27 27 27 27 27 27 26 25 24 23 22 21 20 20 19 18 18 18 17 17 17 16 16
13 14 13 14 15 14 19 20 18 17 18 20 22 24 25 26 27 27 27 27 25 25 25 25 26 25 26 26 25 24 23 23 21 21 20 20 19 19 18 18 18 18 17 16
14 14 11 13 15 17 18 20 18 17 16 19 22 25 26 26 26 26 27 25 24 23 23 23 22 22 23 24 25 25 23 23 22 21 21 20 20 19 19 19 18 18 16 12
16 15 13 14 14 15 17 19 17 17 16 15 17 21 23 23 22 21 23 22 22 22 22 20 20 19 20 22 23 25 23 23 22 21 21 21 20 19 19 19 12 9 10 9
14 13 12 13 14 16 17 19 18 15 13 13 14 18 16 22 22 21 22 22 21 20 19 18 18 18 17 20 20 22 23 23 22 21 20 20 19 17 12 9 8 7 5 3
14 12 12 13 14 13 18 18 15 13 14 14 13 14 15 14 22 22 21 20 19 18 17 16 14 13 14 16 17 19 16 11 11 9 9 8 9 8 7 6 4 3 1 -0
13 14 14 16 16 14 17 15 15 15 15 16 16 17 17 18 21 22 20 19 16 14 13 11 10 8 8 10 10 8 7 7 7 6 4 4 4 3 3 2 0 -0 -1 -2
17 15 11 12 13 13 16 14 15 15 14 14 16 18 19 19 21 21 19 17 14 11 10 8 7 6 5 5 5 5 4 4 3 1 1 0 0 -0 -0 -0 -0 -1 -2 -2
17 15 17 17 14 15 13 14 13 14 14 13 14 16 16 18 18 18 15 12 9 7 5 5 4 3 3 3 3 3 2 2 1 -0 -1 -1 -2 -3 -3 -3 -3 -3 -2 -3
14 13 15 13 12 13 14 13 11 12 12 11 11 12 13 14 13 11 7 5 4 3 2 2 1 1 0 0 0 1 1 0 -0 -1 -2 -2 -3 -3 -4 -4 -5 -4 -4 -3

GFSCGP_925_temp_090.txt.gz
Temp
22 20 20 22 23 23 24 24 25 26 28 29 29 29 30 31 31 31 30 30 30 30 30 28 26 23 22 18 15 14 13 13 13 12 12 11 11 11 11 11 11 11 12 13
21 20 22 24 24 24 24 24 23 25 26 27 28 28 29 30 30 31 31 31 30 30 30 27 25 22 22 18 14 13 13 13 13 12 12 11 11 10 11 11 10 11 12 12
22 23 24 23 23 23 24 23 23 22 24 27 27 27 28 29 30 30 31 31 31 31 29 27 24 22 21 17 14 13 13 13 13 12 11 11 11 10 10 10 10 10 12 12
22 24 24 24 24 24 23 24 23 21 21 21 26 25 27 29 30 31 31 30 30 31 30 27 25 21 20 19 14 14 13 13 12 12 11 11 11 11 11 11 11 12 12 12
21 22 23 23 23 24 23 24 22 20 20 22 24 25 26 28 28 30 31 31 30 30 30 27 25 22 20 19 16 14 13 13 13 12 12 12 12 12 11 11 13 13 13 13
21 23 23 24 24 24 24 23 22 22 21 19 22 24 25 27 29 31 32 31 30 30 30 28 26 23 21 19 17 14 13 13 13 12 12 12 12 12 11 12 12 13 13 13
20 21 22 23 21 23 23 21 20 18 17 19 24 25 26 28 30 31 31 31 31 30 29 28 26 24 22 20 17 15 14 13 13 12 12 12 12 12 12 12 13 13 13 13
20 19 21 23 22 21 22 21 20 18 18 18 22 23 27 30 30 31 31 31 31 30 29 28 26 24 23 20 18 16 15 14 13 13 12 12 12 12 12 13 13 14 14 14
20 21 24 23 23 23 22 20 22 21 21 19 21 23 26 29 30 30 30 31 30 30 29 29 27 25 23 21 19 16 15 14 13 13 13 12 12 12 13 13 13 13 13 13
20 19 23 23 23 23 22 23 20 21 18 19 22 24 25 27 29 30 29 30 30 30 30 28 28 25 24 22 19 16 15 15 14 13 13 13 12 12 13 13 13 13 13 13
20 20 20 23 21 21 21 20 20 21 22 21 20 22 25 24 25 29 29 29 28 29 29 28 28 25 24 22 19 17 16 15 14 14 13 13 13 13 13 13 13 13 13 14
17 18 17 20 23 24 23 21 21 19 20 22 21 21 26 27 27 28 29 29 28 29 28 29 28 25 25 22 20 18 17 16 15 14 14 14 14 14 13 13 13 13 13 14
16 18 16 19 21 22 22 23 23 22 22 21 20 22 27 27 26 28 27 29 28 28 28 29 28 27 25 23 22 20 18 18 17 15 15 14 14 15 14 14 14 14 14 14
16 16 16 16 15 18 17 20 23 22 20 21 22 23 25 25 24 23 24 28 29 28 27 28 28 27 26 24 22 21 19 19 18 17 15 15 15 15 15 15 15 15 14 15
16 15 16 17 18 19 19 19 20 21 22 21 21 22 24 25 26 26 27 27 28 28 28 27 27 27 26 25 23 22 20 19 19 19 17 16 15 15 15 15 15 16 16 15
16 14 16 16 18 18 18 19 20 20 21 22 22 22 25 25 26 26 27 27 28 28 28 28 28 27 27 26 24 23 21 19 19 19 19 18 17 16 16 16 16 16 16 16
14 14 14 14 16 17 16 18 20 20 21 22 20 21 22 23 24 25 27 27 27 27 27 26 25 26 27 26 26 24 23 21 20 20 20 19 19 18 17 17 17 16 16 16
13 14 13 13 14 13 18 21 20 20 20 20 21 21 22 20 24 26 26 25 26 25 24 24 23 22 23 24 26 25 24 22 21 20 20 20 19 18 18 18 17 17 16 16
15 14 11 12 14 16 17 19 20 19 18 16 15 16 16 19 24 25 24 24 23 23 22 21 21 21 20 21 23 25 24 24 22 21 20 20 19 19 18 18 17 17 17 16
15 14 13 13 13 14 17 16 18 19 17 15 13 13 14 17 20 19 22 22 22 21 20 20 19 19 19 20 21 22 24 24 23 22 21 20 20 19 19 18 18 15 14 9
14 13 12 12 12 15 17 14 13 15 14 14 14 12 13 13 15 14 15 22 21 20 18 17 16 15 14 16 17 19 18 20 23 23 21 20 20 17 14 12 9 9 8 5
12 12 12 13 13 13 16 17 13 13 15 15 15 13 13 14 16 16 15 18 17 16 14 12 12 10 9 11 13 11 9 8 9 14 9 8 8 9 9 9 6 4 2 -0
13 15 13 14 15 14 10 13 15 15 14 13 13 14 14 15 17 16 13 13 12 11 9 8 7 6 5 5 6 7 5 6 5 4 4 5 5 4 3 2 1 0 -0 -2
15 17 13 13 15 14 12 13 13 14 13 12 13 13 14 14 14 14 13 11 8 6 5 4 4 3 2 3 2 2 2 2 3 2 0 0 0 -0 -0 0 -0 -1 -2 -3
13 12 14 13 13 13 11 12 11 12 12 12 12 12 12 13 11 9 7 6 4 4 2 2 1 1 1 1 1 1 0 0 -1 -1 -2 -2 -3 -3 -3 -3 -3 -3 -3 -3
10 10 11 10 11 12 10 10 10 10 11 11 11 10 11 9 7 5 3 2 1 1 0 0 -0 -0 -0 -0 -0 1 1 -1 -1 -2 -3 -3 -3 -4 -4 -4 -5 -5 -5 -5

GFSCGP_925_temp_093.txt.gz
Temp
18 16 15 16 17 19 20 20 20 21 24 24 23 23 24 26 26 25 24 24 24 24 23 24 22 20 16 16 15 14 14 13 13 12 12 12 12 12 13 13 13 14 14 14
18 17 18 19 19 19 20 20 20 22 23 24 22 21 22 24 26 26 25 23 23 24 23 22 21 17 15 14 14 14 14 13 12 12 12 12 11 11 11 11 11 12 12 13
18 19 21 20 20 20 20 20 20 21 22 21 19 20 21 24 26 27 26 25 24 25 23 21 20 17 14 13 14 14 14 13 12 12 11 11 10 10 10 10 10 10 11 12
19 21 21 21 20 21 19 21 22 22 19 17 20 16 19 21 24 27 27 27 26 24 23 21 20 16 14 13 15 15 14 13 12 12 11 11 10 10 10 11 10 10 11 12
19 19 19 20 21 21 21 21 21 20 18 17 18 16 18 22 24 26 26 26 27 24 23 21 19 18 14 14 14 14 14 13 12 12 11 11 10 11 10 10 10 11 12 12
18 19 20 20 21 21 22 22 21 19 18 15 17 17 17 21 24 26 27 28 24 23 23 21 20 19 15 14 13 14 13 13 12 12 11 11 11 11 10 10 10 10 11 11
17 18 19 20 19 20 21 20 17 16 16 16 20 18 18 22 25 27 27 27 25 25 23 21 19 18 16 14 13 13 13 13 12 11 11 11 11 11 11 11 12 12 12 12
15 15 18 20 19 19 20 20 16 16 16 16 19 18 20 22 22 27 27 26 25 22 23 21 19 18 17 15 13 14 13 13 12 12 12 12 12 11 11 12 12 12 12 12
17 18 21 20 20 20 19 18 20 18 19 17 18 20 21 23 25 27 27 27 25 22 23 22 20 19 18 16 14 14 13 13 13 12 12 12 12 12 12 12 12 12 13 13
19 17 20 21 20 20 20 21 18 18 16 16 19 21 19 21 23 23 26 25 24 24 23 22 21 20 18 16 15 14 14 14 13 13 12 12 12 12 12 12 12 13 13 13
15 16 17 20 19 19 19 19 19 19 17 16 17 19 22 22 22 22 22 23 24 24 24 22 22 21 19 17 15 15 15 14 13 13 13 12 12 12 12 12 12 13 13 13
15 16 15 18 20 19 20 20 19 17 17 18 18 19 23 22 21 21 19 19 25 26 24 22 23 21 19 17 15 15 15 14 13 13 13 13 12 12 12 12 12 13 13 13
14 14 14 16 19 17 17 20 20 19 18 18 16 18 23 23 22 21 20 18 22 26 25 22 22 21 19 18 16 15 15 14 15 14 13 13 13 12 12 12 13 13 13 13
15 14 14 13 15 14 15 17 19 17 16 17 18 20 22 23 21 20 20 21 21 22 25 22 22 21 20 19 17 16 15 14 14 14 14 13 13 13 12 12 12 12 13 13
14 13 14 15 16 17 17 17 18 18 17 16 17 19 21 21 21 22 23 24 23 23 25 25 21 22 20 20 18 17 16 15 15 14 14 14 14 14 13 13 12 13 13 13
14 13 13 14 16 17 16 17 18 18 19 19 19 19 19 20 20 19 20 22 24 24 26 24 23 21 21 20 20 19 17 16 16 15 14 14 14 14 13 13 13 13 13 13
12 12 11 12 14 14 13 16 17 18 19 19 17 16 15 16 16 16 17 19 22 21 20 20 20 18 17 18 20 20 18 17 17 17 15 15 14 14 14 14 14 14 14 14
12 12 11 10 12 10 15 18 18 18 15 14 15 14 14 14 15 17 15 19 20 18 18 18 17 17 17 18 19 20 19 18 18 17 17 17 15 14 14 14 14 14 14 14
13 11 8 9 10 13 16 15 14 13 13 13 13 13 14 14 15 17 15 13 17 16 16 15 15 13 13 13 14 17 19 19 18 18 18 18 17 16 15 15 15 15 14 14
13 11 10 9 11 11 15 13 14 15 12 14 13 12 12 13 13 13 13 13 14 12 12 11 10 9 8 8 11 12 10 12 16 18 18 18 18 17 16 16 16 16 15 12
11 10 10 10 10 12 13 12 14 13 11 13 13 12 12 11 12 13 14 12 11 10 9 9 7 6 6 6 9 7 7 7 7 8 17 18 18 18 17 16 14 12 9 7
11 10 9 9 10 10 11 13 12 10 12 11 10 12 12 12 12 13 12 9 8 7 7 6 5 4 4 4 5 5 4 4 5 6 5 5 8 10 13 12 7 7 6 3
10 11 9 11 10 9 10 11 12 11 10 10 10 11 11 11 9 8 8 7 6 5 4 4 3 3 3 3 2 2 1 2 2 2 2 1 2 3 3 4 3 1 1 -1
12 12 12 11 12 10 10 10 11 11 10 10 10 11 10 8 7 6 5 5 4 3 2 2 3 2 2 1 1 1 1 1 -0 -1 -2 -1 -2 -2 -2 -1 -1 -1 -1 -2
9 9 11 11 10 10 9 9 9 9 10 10 9 8 7 6 5 4 3 2 2 1 1 -0 -0 -1 -1 -0 -0 -0 -1 1 -2 -3 -3 -3 -4 -4 -4 -4 -4 -4 -3 -3
8 7 8 8 5 9 8 8 8 8 8 9 7 7 5 4 3 2 0 -1 -1 -1 -2 -2 -2 -2 -2 -2 -2 -1 -1 -1 -0 -3 -4 -4 -4 -5 -5 -5 -5 -5 -5 -4

GFSCGP_925_temp_096.txt.gz
Temp
17 15 14 16 17 19 18 18 17 19 20 21 20 21 21 20 20 21 22 23 22 21 21 20 18 16 15 14 15 15 14 14 14 14 13 12 13 13 14 14 14 14 14 14
16 15 16 17 17 17 17 17 17 19 20 20 20 20 19 20 21 21 21 23 22 22 19 19 16 14 14 13 13 14 14 14 14 14 14 12 12 12 13 13 14 14 14 13
16 18 19 17 17 17 17 17 17 18 19 19 19 20 21 22 21 22 23 23 23 21 20 19 15 13 13 13 13 13 14 14 14 12 13 12 11 11 11 12 13 13 14 14
16 18 18 18 18 18 17 19 19 19 18 17 19 18 20 21 21 21 22 23 24 21 21 19 16 13 13 12 13 14 13 13 12 12 12 12 11 10 10 11 11 12 13 13
16 17 17 18 18 19 18 19 19 19 17 16 17 16 19 19 19 20 22 24 25 22 21 19 16 14 13 12 12 13 13 12 12 12 13 11 11 11 10 10 10 11 11 12
16 17 17 18 19 19 20 19 19 17 16 14 16 17 19 17 19 21 23 25 25 22 21 20 18 14 13 12 12 13 12 12 12 12 12 11 11 10 10 10 10 10 10 10
15 16 17 18 17 18 19 18 15 14 15 15 18 16 18 19 20 21 21 23 24 24 21 19 16 13 13 12 12 12 12 12 12 12 12 11 11 11 10 10 10 10 10 11
13 14 16 17 17 17 16 16 14 16 15 16 18 16 17 20 21 22 22 24 24 24 21 19 17 14 13 13 12 12 12 12 12 12 11 11 11 11 10 10 10 11 11 11
14 14 18 18 19 18 17 17 18 17 16 15 16 18 19 20 19 20 21 21 23 23 21 19 18 15 14 13 13 13 12 12 12 12 11 11 11 11 11 11 11 11 11 11
16 15 18 19 18 18 18 18 17 16 16 15 17 17 18 19 17 19 19 20 20 21 20 19 18 16 15 14 13 13 13 12 12 12 11 11 11 11 11 11 12 12 12 12
15 15 16 18 18 17 17 17 18 17 15 15 15 17 18 16 17 16 19 20 20 20 20 19 19 18 16 14 13 13 13 12 12 12 12 12 11 11 11 11 12 12 12 12
14 14 14 16 17 17 18 18 16 14 15 15 15 17 19 17 16 17 17 19 20 20 21 20 19 18 16 14 13 13 13 13 12 12 12 12 12 12 11 12 12 12 12 13
14 14 14 15 16 14 14 15 17 17 16 16 14 17 21 20 19 18 17 18 19 20 21 19 20 18 16 15 14 14 13 13 13 13 13 12 12 12 12 12 12 12 12 13
14 13 13 13 14 14 13 12 16 15 13 14 15 18 19 19 19 17 16 17 18 20 22 19 20 19 17 15 15 14 14 13 13 13 13 13 12 12 12 12 12 12 12 12
13 12 13 14 15 15 16 14 15 16 15 14 16 16 18 17 18 17 18 18 20 21 21 20 18 19 17 16 15 14 14 13 13 13 13 14 13 12 12 12 12 12 12 12
13 12 12 13 14 14 14 15 16 17 17 17 18 17 15 16 16 16 16 16 20 19 18 18 19 18 18 17 16 15 14 14 13 13 14 14 13 13 13 12 12 12 12 12
11 11 10 11 12 13 13 15 16 16 13 15 15 13 14 14 15 14 14 16 17 16 15 15 14 14 14 14 17 16 15 14 13 13 13 13 13 13 13 13 12 12 12 12
11 11 9 10 11 10 15 16 15 13 13 13 13 12 13 13 14 14 14 13 13 13 12 11 10 11 9 10 12 15 17 15 14 14 13 13 13 13 13 13 13 13 12 12
11 10 9 9 9 12 14 13 13 14 12 13 12 12 12 13 15 13 14 12 10 10 10 9 8 8 7 8 8 9 10 14 15 15 15 14 13 13 13 13 13 13 13 13
11 10 9 8 10 10 12 14 14 14 12 12 11 12 12 12 12 12 13 10 9 9 8 8 7 6 6 6 7 6 6 6 7 7 9 13 14 13 13 13 13 13 13 13
9 8 9 9 9 11 11 12 12 12 10 10 10 11 11 10 9 8 8 8 7 7 6 7 6 5 4 4 5 5 4 4 4 4 5 8 12 14 14 13 13 13 12 11
10 9 9 9 9 10 11 11 11 9 10 10 9 10 10 9 9 8 7 6 5 5 5 4 4 3 2 2 3 3 2 2 2 2 2 2 3 6 8 11 9 8 8 4
10 11 9 10 10 10 9 10 10 10 9 9 8 8 8 7 7 6 5 4 4 3 2 2 2 2 1 1 0 1 -0 -0 1 0 -1 -1 0 0 1 2 2 2 1 -1
10 11 10 10 10 9 9 9 9 9 8 8 7 7 6 5 5 4 3 2 1 1 0 0 0 0 -0 -0 -0 -1 -1 -1 -2 -2 -2 -3 -3 -3 -2 -2 -2 -1 -1 -1
9 8 8 9 7 8 7 8 8 7 7 6 5 5 4 4 3 2 1 0 -0 -1 -1 -2 -1 -1 -2 -1 -1 -1 -1 -2 -3 -3 -3 -3 -4 -4 -4 -4 -4 -4 -3 -3
7 6 7 6 5 6 6 6 7 6 6 5 4 3 2 2 1 0 -1 -2 -2 -2 -3 -3 -3 -3 -3 -2 -2 -2 -2 -2 -3 -4 -4 -4 -4 -4 -4 -4 -4 -4 -4 -3

GFSCGP_925_temp_099.txt.gz
Temp
15 14 14 14 16 18 17 17 17 18 19 18 18 18 19 19 19 18 18 18 19 19 20 19 18 16 15 15 14 15 15 14 14 13 13 13 13 14 14 14 14 14 14 14
15 14 15 15 16 16 16 16 16 17 18 18 18 19 19 18 19 19 19 18 18 19 19 16 15 14 14 13 13 14 14 13 13 13 13 13 13 13 13 14 14 14 14 14
14 15 16 16 16 16 15 15 16 16 18 17 16 18 18 19 19 20 20 19 20 19 18 16 14 14 13 13 13 13 13 13 13 13 13 13 13 13 13 12 13 14 14 13
14 16 17 16 16 16 15 17 17 16 16 14 17 17 19 19 20 20 20 20 21 20 18 17 15 14 13 13 12 12 12 13 12 13 12 12 11 11 12 12 12 13 14 14
15 17 15 16 16 16 16 17 16 16 16 16 16 14 17 19 18 20 20 20 20 20 18 17 16 15 14 13 12 12 12 12 12 12 12 12 12 11 11 12 12 12 13 13
15 16 17 16 18 17 19 17 17 16 14 13 16 15 18 18 18 19 20 20 20 20 18 19 18 15 13 12 12 12 12 12 12 12 12 12 12 11 11 10 11 11 12 12
15 15 16 17 16 16 17 17 14 14 14 15 16 15 18 19 20 19 19 18 19 20 18 17 16 14 14 12 12 12 12 12 11 11 12 12 11 11 11 10 10 11 11 11
12 14 14 15 16 15 14 15 13 15 14 16 16 15 17 19 18 18 18 18 19 19 20 19 17 14 14 13 12 12 12 12 11 11 11 11 11 11 11 10 10 10 10 10
13 13 16 16 17 17 16 15 17 16 15 14 15 16 18 18 16 16 16 17 17 18 19 19 17 14 14 13 12 12 12 12 11 11 11 11 11 11 11 10 11 10 10 10
15 14 17 18 17 16 17 17 16 14 15 15 15 16 16 16 15 16 15 15 16 18 19 19 17 14 14 13 12 12 12 12 12 11 11 11 11 11 11 10 11 11 11 11
14 14 15 17 17 15 15 16 16 16 14 16 15 14 15 16 16 15 14 14 16 18 19 18 17 15 14 13 12 12 12 12 12 11 11 10 10 11 11 11 11 11 11 11
12 12 12 15 15 15 16 16 15 14 15 14 14 15 18 18 17 16 15 14 16 18 18 17 18 15 14 13 13 12 12 12 12 12 11 11 10 11 11 11 11 12 12 12
9 11 12 15 15 14 13 14 15 15 14 14 14 15 18 18 18 17 14 13 15 17 18 18 18 16 14 13 13 12 12 12 12 12 11 11 11 10 11 11 11 12 12 12
10 10 10 13 13 14 13 14 13 14 13 13 14 16 17 16 17 16 16 14 14 17 17 15 17 17 15 14 13 13 12 12 12 12 12 11 11 11 11 11 11 12 12 12
10 9 11 13 14 14 14 14 13 14 14 13 15 16 16 14 15 15 16 16 16 16 14 13 15 16 15 14 14 13 13 12 12 12 12 12 11 12 11 11 11 12 12 11
11 10 11 12 13 13 14 15 15 14 16 15 14 15 14 14 15 14 14 16 16 14 13 12 12 11 14 14 14 14 13 12 12 12 12 12 12 12 12 11 11 11 11 11
11 11 10 11 11 12 13 14 14 12 12 13 14 13 13 13 14 13 13 12 12 12 11 10 10 9 9 10 11 13 13 13 12 12 12 12 12 12 12 12 11 11 11 11
10 10 8 9 10 9 14 14 14 13 13 12 13 13 12 12 13 12 11 10 10 10 9 9 8 8 7 8 8 10 13 13 13 12 12 12 13 12 13 13 12 12 11 11
10 9 8 8 8 11 13 13 13 12 10 11 11 12 12 12 13 10 9 9 8 8 8 8 7 6 6 7 7 7 7 11 12 11 12 12 12 12 12 12 12 12 12 11
9 10 9 7 9 9 12 12 12 12 11 10 10 11 10 11 10 9 8 7 7 7 6 6 5 4 4 4 6 6 6 6 6 5 6 8 10 12 12 12 12 12 12 12
8 8 9 8 8 10 12 11 11 12 10 9 10 9 11 10 9 8 7 6 5 5 4 4 3 2 2 2 3 3 3 3 3 3 4 5 6 8 10 12 12 12 12 12
9 9 9 9 8 9 10 11 11 9 9 9 8 8 9 8 7 7 6 5 3 3 2 2 2 1 1 1 1 1 -0 0 0 0 1 1 2 4 5 8 7 9 8 6
9 9 8 9 9 9 8 8 8 8 7 7 7 6 6 5 5 5 4 3 2 1 0 1 1 0 -0 -0 -0 -0 -1 -1 -2 -2 -2 -2 -1 -0 1 2 2 1 1 -0
7 8 10 9 9 8 7 8 7 7 6 5 5 4 4 4 4 3 2 1 0 -0 -1 -1 -1 -1 -1 -1 -1 -2 -2 -2 -2 -3 -3 -3 -3 -3 -2 -1 -1 -1 -2 -3
7 7 7 8 6 6 5 6 6 6 5 4 3 2 2 3 2 1 -0 -1 -1 -2 -2 -2 -2 -2 -2 -2 -2 -3 -2 -3 -3 -4 -4 -4 -4 -4 -4 -4 -3 -3 -2 -0
5 5 6 5 5 5 4 5 5 3 2 2 2 2 1 1 0 -1 -2 -2 -3 -3 -3 -3 -3 -3 -3 -3 -4 -4 -3 -4 -4 -4 -4 -4 -4 -4 -4 -4 -4 -4 -4 -4

GFSCGP_925_temp_102.txt.gz
Temp
14 14 13 13 15 16 17 16 16 17 18 18 17 17 16 17 17 17 16 17 17 17 18 20 20 21 19 17 15 16 15 16 16 14 14 14 14 14 15 15 15 15 14 14
14 13 15 15 14 15 15 15 15 16 17 17 17 18 17 17 17 17 18 16 17 17 18 17 16 16 16 14 14 13 14 15 15 13 13 13 13 13 14 16 15 14 14 14
14 16 15 15 14 15 14 15 15 16 16 16 15 16 17 17 17 18 18 17 17 17 17 17 15 13 14 13 13 13 13 14 13 13 13 12 12 12 13 13 14 14 14 13
15 16 15 14 15 15 14 15 16 15 15 14 15 14 19 18 18 19 18 18 17 17 19 16 16 12 13 13 13 13 13 13 12 13 12 12 12 12 12 12 13 13 14 13
15 16 14 15 15 15 14 15 15 15 14 15 15 13 14 18 18 19 19 18 17 17 17 17 16 15 14 14 13 12 13 12 13 13 12 12 11 12 11 11 12 13 13 13
14 15 15 15 16 15 17 16 15 14 13 12 14 14 15 17 19 19 19 18 17 16 17 17 18 15 13 13 12 13 12 12 12 12 12 11 11 11 11 11 11 12 13 13
14 14 15 17 16 16 16 14 14 13 13 14 15 14 17 18 18 17 16 15 15 15 16 16 17 13 13 13 12 13 12 11 11 11 11 12 12 13 12 10 11 11 11 12
12 14 14 15 15 15 14 14 13 15 14 14 15 14 15 16 15 16 16 15 14 15 16 16 17 16 13 13 12 13 12 12 11 11 11 11 12 11 11 11 10 11 11 11
12 13 15 15 15 16 14 13 15 15 15 14 14 15 17 16 15 15 14 14 14 15 15 16 17 17 14 13 13 13 13 12 11 12 10 11 11 11 11 11 10 11 11 11
13 13 15 17 16 15 16 15 14 13 14 14 14 15 15 16 16 15 14 13 13 15 15 15 17 15 15 14 13 13 13 12 11 11 10 11 11 11 11 11 10 11 11 11
10 13 13 15 16 15 14 14 15 14 13 15 15 14 14 15 16 15 14 13 13 14 14 15 17 16 14 14 13 12 13 12 12 11 10 10 11 11 11 11 10 11 11 10
10 10 12 13 15 15 15 15 14 13 14 13 13 15 17 15 14 14 13 14 13 13 14 15 15 15 14 13 13 12 13 12 12 11 10 10 11 11 11 10 10 11 11 11
10 10 12 13 14 14 13 14 14 13 12 13 12 14 16 15 14 14 14 14 14 13 13 14 13 15 14 14 13 13 13 12 12 12 11 10 10 10 10 10 10 11 11 12
10 9 10 11 10 11 12 13 13 13 13 13 12 14 15 13 13 14 14 14 14 13 13 13 12 15 14 14 13 13 12 12 12 12 11 10 10 10 10 10 11 11 11 11
10 8 9 10 10 11 13 12 13 13 14 13 14 14 13 13 13 13 13 16 14 13 12 11 11 10 13 13 13 12 12 12 12 12 11 11 10 10 10 10 11 11 11 11
9 9 9 10 11 12 12 12 12 13 13 13 14 13 13 13 13 12 12 12 12 11 11 10 9 9 9 9 12 12 12 12 12 12 12 11 11 10 10 11 11 11 11 11
8 10 9 11 11 10 11 13 13 11 11 12 13 12 12 13 13 11 11 11 10 10 9 8 8 7 7 8 7 11 12 12 12 12 12 12 12 11 11 11 11 11 11 11
8 10 8 10 10 9 11 12 12 12 12 12 12 12 12 12 10 9 9 9 8 8 7 7 6 5 5 6 6 7 11 12 12 12 12 12 12 12 12 11 11 11 11 11
8 9 8 9 8 10 12 12 12 12 10 10 10 11 11 12 12 10 8 8 7 6 6 5 4 3 3 4 5 6 6 7 7 8 8 9 11 11 12 12 12 11 11 11
8 9 9 8 10 8 12 11 11 12 11 10 10 11 10 10 10 9 7 6 5 4 4 4 3 2 2 3 3 3 3 3 3 3 4 4 6 8 10 11 12 12 12 11
8 8 9 9 8 10 10 10 10 10 9 8 9 9 10 9 8 7 6 5 3 3 3 2 2 1 1 1 2 1 1 0 0 1 1 2 3 4 5 9 11 12 12 11
8 8 8 8 9 8 8 9 10 8 7 7 6 6 6 6 6 5 4 3 2 1 1 1 1 0 -0 -0 0 -0 -1 -1 -1 -1 -1 -0 0 1 2 4 5 7 9 7
9 8 8 9 9 7 7 7 6 6 5 5 4 4 5 5 5 3 2 2 0 -1 -1 -0 -0 -1 -1 -1 -2 -2 -2 -2 -2 -2 -2 -2 -2 -1 -1 -0 0 1 1 -1
8 6 8 9 7 6 6 6 5 5 3 3 3 3 4 3 3 2 1 0 -1 -2 -2 -2 -1 -2 -2 -2 -3 -3 -3 -3 -3 -3 -3 -3 -3 -3 -2 -2 -2 -2 -2 -2
6 6 6 7 6 5 4 4 3 4 3 3 2 1 2 2 1 -0 -1 -2 -2 -3 -3 -3 -3 -3 -3 -3 -4 -3 -3 -3 -4 -4 -4 -4 -4 -4 -4 -4 -4 -4 -3 -3
5 4 5 5 4 4 3 2 3 2 1 0 0 0 -1 -1 -1 -1 -2 -3 -3 -3 -4 -4 -4 -4 -4 -4 -5 -5 -4 -5 -5 -5 -5 -4 -4 -5 -5 -5 -5 -5 -4 -4

GFSCGP_925_temp_105.txt.gz
Temp
14 14 15 16 17 18 18 18 19 18 19 20 20 21 20 21 21 21 22 22 22 22 23 21 20 20 20 20 17 16 15 15 14 14 15 14 14 14 14 14 14 14 14 14
14 13 16 16 16 17 17 17 18 17 18 19 20 20 21 20 21 22 22 22 22 21 22 22 20 19 18 18 16 15 15 14 14 14 14 14 14 14 14 14 14 14 14 14
14 17 17 16 15 15 16 16 17 17 18 18 18 19 21 20 19 20 20 21 20 20 20 20 20 19 18 16 15 15 15 13 14 14 14 13 13 13 13 13 13 14 14 14
14 16 15 14 15 16 15 16 17 17 17 17 17 19 20 21 21 21 22 21 20 19 19 19 19 19 18 16 15 14 14 13 14 13 13 13 14 14 13 13 14 14 14 14
15 15 15 15 15 15 15 16 17 17 16 16 17 17 19 19 21 21 21 19 19 18 18 18 18 19 18 16 15 14 13 13 13 13 13 13 13 13 12 12 13 13 13 14
15 15 16 16 16 16 17 16 16 15 16 15 17 18 19 20 21 20 19 18 18 17 17 18 18 18 18 15 15 14 12 13 12 13 12 12 12 13 13 12 11 12 13 13
14 15 15 16 15 16 17 17 16 15 15 16 17 16 20 20 19 18 18 18 17 17 17 18 18 18 18 17 15 14 13 13 12 12 12 12 12 12 12 11 11 11 12 12
14 14 15 16 17 16 16 17 17 16 16 17 16 17 19 19 17 17 17 17 17 17 17 18 18 17 17 18 15 14 13 13 12 12 11 12 12 12 12 12 11 11 12 12
14 15 15 15 17 17 15 15 17 16 15 16 17 17 18 17 16 16 17 16 16 16 17 17 18 17 17 17 15 14 13 13 12 11 11 11 12 12 13 11 11 11 11 11
13 14 15 16 16 16 17 17 16 15 15 15 17 17 18 17 18 17 18 17 16 16 17 17 17 18 16 16 15 13 13 12 12 11 12 11 11 12 12 11 10 11 11 11
11 13 15 16 16 15 15 16 16 16 16 16 16 18 17 18 18 18 17 16 15 15 15 16 17 16 14 14 15 14 13 13 12 11 11 11 11 11 11 11 11 11 11 11
10 11 13 15 16 16 16 16 16 16 15 16 17 17 18 17 17 16 16 15 15 15 15 14 14 13 14 15 14 13 13 13 12 11 11 10 10 11 11 11 11 11 11 10
10 11 13 14 14 15 14 14 15 15 15 16 16 17 16 16 16 16 16 16 15 14 15 12 12 11 13 14 13 13 12 12 11 11 10 10 10 10 11 10 10 11 11 11
11 10 11 13 12 12 13 14 14 15 15 16 16 17 16 15 15 15 15 16 15 14 13 11 10 10 10 13 13 13 12 12 11 11 10 10 10 10 10 10 10 10 10 10
9 9 10 11 11 11 12 13 14 14 15 15 15 15 16 14 14 13 14 14 13 12 11 10 9 8 8 9 12 12 12 12 12 11 11 10 10 10 10 10 10 10 10 11
8 9 9 11 12 12 12 13 13 14 14 14 15 15 13 14 13 12 11 11 10 10 9 8 7 6 6 6 8 12 12 12 12 11 11 11 10 10 10 10 10 10 10 11
8 9 10 11 11 12 13 13 14 13 13 13 14 13 13 13 11 9 9 9 8 8 7 6 6 5 4 5 6 8 11 12 12 11 11 11 11 10 10 10 10 10 11 11
8 9 10 11 11 11 12 13 14 13 12 12 13 12 12 11 9 8 8 7 6 6 6 5 4 3 2 3 4 5 10 12 12 12 12 11 11 11 11 11 11 11 11 10
9 9 10 10 11 12 13 12 12 12 11 11 10 12 11 12 10 7 6 6 5 4 4 3 2 2 1 2 2 3 3 4 5 5 5 6 9 11 11 11 11 11 11 10
8 9 10 9 10 11 11 11 11 12 11 10 10 10 11 12 10 8 5 4 4 3 2 2 1 1 1 1 1 2 1 1 1 2 2 2 4 5 7 9 11 11 11 11
9 9 9 10 10 11 9 10 11 12 10 8 9 8 8 8 7 5 4 3 1 1 1 1 1 0 -0 -0 0 -0 -0 -1 -1 -0 -0 1 2 2 3 5 7 10 11 10
9 9 9 10 9 10 7 10 11 8 7 7 6 6 6 6 5 4 3 2 0 -0 -1 -1 0 -0 -1 -1 -1 -1 -1 -2 -2 -2 -1 -1 -1 -0 1 2 3 4 5 3
9 8 9 9 9 7 6 6 6 7 6 5 5 5 5 4 3 2 1 1 -1 -2 -2 -2 -1 -1 -2 -2 -2 -2 -2 -2 -2 -3 -3 -3 -2 -2 -2 -1 -1 -1 0 -1
8 6 7 8 7 6 5 4 5 5 4 3 3 4 4 2 2 1 -0 -1 -1 -2 -2 -3 -2 -2 -3 -3 -3 -4 -3 -2 -2 -3 -3 -4 -4 -3 -3 -3 -3 -2 -2 -2
6 6 5 6 5 5 4 3 2 2 2 2 1 1 1 2 0 -1 -1 -2 -2 -3 -3 -3 -3 -3 -3 -4 -4 -4 -4 -3 -3 -3 -3 -4 -4 -4 -4 -4 -4 -4 -4 -4
4 3 5 5 3 4 3 1 1 0 0 0 1 -1 -1 -1 -1 -1 -2 -3 -4 -4 -4 -4 -4 -4 -4 -5 -5 -5 -5 -5 -3 -4 -4 -4 -4 -5 -5 -5 -5 -5 -5 -5

GFSCGP_925_temp_108.txt.gz
Temp
17 17 17 20 20 21 22 22 21 23 23 23 24 25 26 27 26 26 26 27 27 27 28 28 25 25 24 24 23 23 23 21 19 17 16 15 15 15 15 15 15 16 15 15
17 17 20 20 20 19 17 17 20 21 21 21 23 24 25 26 25 26 26 27 28 28 27 26 25 24 23 23 23 22 21 20 19 16 15 16 15 15 15 15 15 15 15 14
17 19 19 19 18 17 17 17 17 19 21 21 22 22 24 25 26 26 26 26 26 26 25 25 24 23 23 22 22 21 21 20 19 18 15 16 15 15 14 14 14 14 14 14
18 19 19 17 17 17 18 20 19 18 17 19 22 22 24 24 25 25 26 26 25 25 24 24 24 23 23 22 21 21 20 20 19 18 15 16 16 15 16 15 14 14 14 14
17 18 17 18 18 18 18 20 18 18 19 19 21 20 23 24 24 25 25 25 24 23 23 23 23 23 22 22 20 19 19 19 17 18 15 16 18 18 18 17 16 13 14 14
19 19 19 19 18 18 18 17 18 18 19 18 20 21 23 24 25 25 24 23 23 22 23 23 23 22 22 22 21 19 18 18 16 15 15 16 19 19 17 16 14 13 13 13
18 18 18 19 17 17 18 18 17 17 17 19 21 21 23 23 24 24 23 23 23 22 22 22 23 23 22 21 20 20 18 17 15 14 15 16 18 17 17 17 15 13 13 13
17 16 18 18 19 18 17 18 19 16 18 20 20 19 21 24 23 22 23 23 22 22 22 22 22 22 21 21 20 19 18 17 15 13 14 15 16 17 17 16 15 14 14 14
17 17 18 19 19 20 18 17 20 18 19 18 21 21 21 21 21 21 22 22 22 22 22 21 21 21 20 18 18 19 18 16 14 13 13 13 14 17 17 16 15 14 14 13
16 16 18 18 18 19 19 20 17 19 17 18 21 21 21 20 21 21 21 22 21 21 21 20 20 19 17 17 16 17 17 15 14 13 12 12 14 16 16 15 13 13 13 13
15 17 16 17 17 17 17 17 18 19 19 19 19 21 22 22 22 21 21 21 20 19 19 19 18 16 15 15 12 17 16 15 14 13 12 12 14 15 15 14 12 12 13 13
13 14 16 17 17 19 19 18 19 17 18 18 19 20 21 20 20 20 20 20 20 19 19 18 17 14 13 11 8 16 15 14 14 12 12 13 14 15 14 13 12 12 13 13
11 14 16 16 16 17 18 19 19 19 19 19 19 20 20 20 20 19 19 19 19 18 17 17 16 14 11 9 8 13 14 14 13 12 12 12 12 14 13 13 12 12 13 13
12 13 13 15 16 17 16 17 18 18 18 19 20 20 20 19 19 18 18 16 14 14 15 13 12 12 9 7 6 7 13 13 12 12 12 11 11 12 13 13 12 12 12 12
10 12 13 15 15 15 16 17 18 18 18 18 19 19 19 18 18 15 14 13 13 12 12 10 9 9 7 6 5 6 12 12 11 11 11 11 11 12 13 13 12 12 12 12
9 12 11 13 15 14 15 16 17 18 18 18 18 18 17 16 14 12 12 12 10 10 9 9 7 6 5 4 4 5 11 12 11 11 11 11 11 11 12 13 12 12 12 12
9 11 12 13 14 14 14 16 17 17 17 17 17 16 15 14 11 9 10 9 8 7 7 7 5 4 3 3 3 3 6 12 11 11 11 11 12 11 11 12 12 12 12 12
9 11 12 13 14 12 15 16 16 17 16 16 14 13 14 12 9 8 7 7 6 5 5 5 4 2 1 1 2 2 6 11 10 10 11 11 11 12 12 12 12 12 13 13
12 11 11 12 14 15 15 12 14 15 12 12 11 12 14 11 9 7 6 5 4 3 3 2 2 1 -0 0 1 1 2 3 4 4 4 5 7 9 11 11 12 12 12 12
11 11 11 13 12 13 12 10 14 14 12 11 11 11 12 13 11 7 5 4 3 2 1 1 1 -0 -1 -0 0 0 0 0 1 1 1 2 3 5 6 8 10 11 12 11
11 10 10 12 12 14 11 10 11 13 10 8 9 9 9 8 6 5 5 3 1 0 -0 -0 0 -0 -1 -1 0 -0 -0 -1 -1 -0 -0 -0 1 2 3 4 6 8 10 9
11 11 11 12 12 12 9 13 11 8 8 8 8 8 7 6 5 4 3 1 0 -0 -1 -1 -1 -1 -2 -2 -0 -0 -1 -1 -0 -1 -1 -1 -1 -1 0 1 2 2 3 1
10 10 9 10 10 7 7 6 7 9 9 8 7 7 6 5 3 2 1 0 -1 -2 -2 -2 -2 -2 -2 -2 -2 -1 -1 -1 -2 -2 -2 -2 -2 -2 -2 -1 -1 -1 -1 -1
10 8 8 8 6 5 5 4 5 7 7 6 7 6 6 4 3 2 1 -0 -1 -2 -3 -3 -3 -3 -3 -3 -2 -3 -1 -1 -1 -2 -2 -3 -4 -4 -3 -3 -3 -2 -2 -3
8 8 6 6 5 4 3 3 3 4 5 5 4 4 4 4 2 1 0 -1 -2 -3 -3 -4 -4 -4 -4 -4 -3 -3 -2 -1 -1 -1 -2 -2 -3 -4 -4 -5 -4 -4 -4 -4
6 4 6 6 4 4 3 2 2 2 2 3 4 3 2 2 2 1 0 -1 -2 -3 -3 -4 -4 -4 -5 -5 -5 -5 -4 -2 -1 -2 -3 -3 -3 -4 -4 -4 -5 -5 -5 -5

GFSCGP_925_temp_114.txt.gz
Temp
14 16 16 17 20 22 22 23 24 25 26 26 26 27 28 29 28 28 29 29 30 30 30 31 30 30 30 29 28 28 28 26 24 23 22 22 22 21 21 20 20 18 17 17
11 13 18 18 20 20 22 22 23 26 27 24 23 23 27 28 28 28 29 29 29 29 30 30 30 28 28 28 27 27 27 26 25 23 22 22 22 21 20 20 20 19 17 17
9 14 18 18 19 20 21 21 23 24 21 18 22 21 23 27 28 29 29 29 29 28 29 29 29 27 27 26 26 26 26 26 26 25 24 23 20 18 18 18 19 19 19 18
10 14 17 18 18 21 21 23 23 23 21 15 20 19 22 24 26 27 27 28 28 28 28 29 28 25 26 26 25 24 24 24 25 25 24 21 18 17 17 17 17 18 18 18
11 13 18 19 19 21 22 24 23 22 19 17 18 18 21 23 23 24 27 28 28 27 27 28 27 27 26 26 25 24 23 23 23 24 24 20 18 19 18 16 16 17 18 17
12 15 17 21 22 23 23 22 21 20 19 16 18 19 20 23 23 24 27 28 27 26 26 25 26 26 26 26 24 23 23 23 23 23 23 21 18 18 18 17 16 16 17 17
15 17 18 21 21 22 21 20 16 15 16 16 20 19 21 25 26 26 27 27 26 25 25 24 25 25 24 23 23 22 22 21 22 22 22 22 19 17 18 19 18 17 16 16
15 12 15 20 21 21 19 19 16 15 16 17 20 19 22 25 26 27 26 25 25 24 24 24 24 22 21 20 19 18 18 18 20 19 21 21 20 17 18 18 20 17 16 15
14 16 16 18 22 21 19 18 20 18 18 18 20 21 25 26 25 25 25 24 23 24 24 23 22 21 19 18 18 16 16 16 18 17 18 20 19 17 17 18 19 18 17 16
14 13 17 16 21 21 20 20 17 18 17 17 17 21 20 23 23 23 22 24 24 24 23 22 20 19 19 18 16 15 14 14 14 13 15 18 17 17 16 17 18 18 18 17
15 14 16 20 16 18 19 19 19 20 20 18 18 16 20 23 22 18 23 23 20 20 20 19 19 18 17 16 15 14 12 11 10 11 13 17 16 16 16 16 18 18 17 17
14 13 13 18 22 22 21 20 20 18 18 20 19 18 20 20 23 23 19 20 18 18 17 17 17 16 15 15 14 12 10 9 8 8 14 16 15 16 15 16 17 17 16 16
12 12 12 15 18 21 20 21 21 21 20 18 18 19 18 18 15 19 17 17 17 16 15 15 15 14 13 12 12 10 9 7 6 7 11 14 14 15 14 15 16 16 16 15
13 13 11 12 12 14 18 21 21 20 18 19 18 18 19 16 16 16 15 15 14 14 13 13 12 11 10 9 8 7 6 6 5 6 10 13 13 13 14 14 15 15 16 15
14 12 12 14 15 10 13 15 19 20 20 19 16 16 16 14 12 14 14 14 12 12 11 11 10 8 8 7 5 5 4 4 3 4 8 12 13 13 13 13 14 15 14 15
14 12 13 15 18 16 13 14 14 14 16 18 18 18 13 13 14 12 11 11 10 10 9 8 7 6 5 4 3 3 3 2 3 4 8 12 12 13 13 13 14 14 14 14
13 11 12 15 17 17 17 18 19 20 20 19 17 15 14 13 11 9 9 9 8 7 7 5 4 3 3 2 1 2 2 2 2 5 10 12 12 12 12 13 13 13 13 13
13 13 13 13 15 14 15 15 16 17 16 16 16 15 13 10 8 7 8 7 6 5 5 3 3 1 1 0 -0 0 1 1 1 1 3 9 12 12 12 12 12 12 13 13
15 13 12 13 14 16 12 13 12 12 12 12 14 13 11 9 8 6 7 7 5 4 3 2 1 0 -1 -1 -1 -0 -0 -0 -0 -1 0 2 6 11 12 12 12 12 12 12
15 14 13 13 13 13 11 14 15 14 10 6 11 12 12 11 10 6 7 6 5 2 1 0 -0 -1 -1 -2 -1 -1 -1 -1 -1 -1 -1 -0 2 6 9 11 12 12 11 9
12 12 12 13 13 11 9 12 14 12 9 7 8 9 8 7 6 6 6 5 3 1 -0 -0 0 -1 -2 -2 -2 -1 -1 -2 -2 -2 -1 -0 0 0 3 6 8 9 8 6
10 10 9 10 12 11 7 11 9 7 7 7 7 8 7 7 6 6 5 3 1 -0 -1 -2 -2 -2 -3 -3 -2 -1 -1 -2 -2 -2 -2 -2 -0 -0 -1 1 1 2 2 1
10 11 10 8 8 5 5 6 6 7 8 9 9 9 8 7 6 5 4 2 0 -1 -2 -2 -3 -3 -3 -4 -3 -2 -2 -2 -2 -3 -3 -3 -2 -1 -0 -1 -1 -1 -2 -2
11 12 9 9 6 6 4 4 4 4 6 8 8 8 8 7 6 5 4 3 0 -1 -2 -2 -3 -3 -4 -4 -3 -3 -2 -2 -3 -3 -3 -4 -4 -4 -3 -2 -1 -3 -3 -3
10 10 7 6 6 6 4 3 3 3 4 6 7 6 6 7 6 5 4 3 2 0 -1 -3 -3 -3 -4 -4 -4 -4 -3 -2 -3 -3 -3 -4 -5 -5 -5 -5 -4 -4 -4 -4
7 4 6 5 3 4 3 2 2 1 2 4 5 6 4 4 4 4 3 2 1 -0 -1 -2 -3 -3 -4 -5 -5 -4 -4 -3 -3 -3 -3 -3 -4 -5 -5 -6 -5 -5 -5 -5